<?xml version="1.0" encoding="UTF-8" standalone="no" ?>
<gpx xmlns="http://www.topografix.com/GPX/1/1" xmlns:xsi="http://www.w3.org/2001/XMLSchema-instance" xsi:schemaLocation="http://www.topografix.com/GPX/1/1 http://www.topografix.com/GPX/1/1/gpx.xsd" version="1.1" creator="VisuGPX - https://www.visugpx.com">
  <metadata>
    <name>Locronan/Autour de Kergoat</name>
    <desc><![CDATA[Départ parking à l\'entrée de Locronan petite citée de caractère à la pointe du Finistère. Une agréable balade entre chemin creux et petite rte dans la campagne, balisage peu présent, je recommande un GPS pour le circuit.A voir  Locronan, la chapelle Bonne nouvelle, la fontaine de Kergoat.]]></desc>
  </metadata>
  <trk>
    <name><![CDATA[Autour de Kergoat]]></name>
    <trkseg>
      <trkpt lat="48.09792" lon="-4.21233">
        <ele>156.3515625</ele>
        <time>2015-10-01T11:52:58Z</time>
      </trkpt>
      <trkpt lat="48.09795" lon="-4.2124">
        <ele>152.50634765625</ele>
        <time>2015-10-01T11:53:21Z</time>
      </trkpt>
      <trkpt lat="48.09797" lon="-4.21249">
        <ele>152.02575683594</ele>
        <time>2015-10-01T11:53:27Z</time>
      </trkpt>
      <trkpt lat="48.09797" lon="-4.21262">
        <ele>152.50634765625</ele>
        <time>2015-10-01T11:53:35Z</time>
      </trkpt>
      <trkpt lat="48.09797" lon="-4.21265">
        <ele>152.98693847656</ele>
        <time>2015-10-01T11:53:37Z</time>
      </trkpt>
      <trkpt lat="48.09798" lon="-4.21273">
        <ele>152.02575683594</ele>
        <time>2015-10-01T11:53:46Z</time>
      </trkpt>
      <trkpt lat="48.09796" lon="-4.21275">
        <ele>151.544921875</ele>
        <time>2015-10-01T11:53:51Z</time>
      </trkpt>
      <trkpt lat="48.09801" lon="-4.21275">
        <ele>150.58361816406</ele>
        <time>2015-10-01T11:53:57Z</time>
      </trkpt>
      <trkpt lat="48.09803" lon="-4.21276">
        <ele>151.06420898438</ele>
        <time>2015-10-01T11:53:59Z</time>
      </trkpt>
      <trkpt lat="48.09809" lon="-4.21277">
        <ele>150.58361816406</ele>
        <time>2015-10-01T11:54:06Z</time>
      </trkpt>
      <trkpt lat="48.09815" lon="-4.21278">
        <ele>152.50634765625</ele>
        <time>2015-10-01T11:54:11Z</time>
      </trkpt>
      <trkpt lat="48.09817" lon="-4.21279">
        <ele>153.46765136719</ele>
        <time>2015-10-01T11:54:12Z</time>
      </trkpt>
      <trkpt lat="48.09822" lon="-4.21277">
        <ele>153.46765136719</ele>
        <time>2015-10-01T11:54:16Z</time>
      </trkpt>
      <trkpt lat="48.09825" lon="-4.21272">
        <ele>152.98693847656</ele>
        <time>2015-10-01T11:54:21Z</time>
      </trkpt>
      <trkpt lat="48.0983" lon="-4.21265">
        <ele>152.98693847656</ele>
        <time>2015-10-01T11:54:29Z</time>
      </trkpt>
      <trkpt lat="48.09833" lon="-4.21264">
        <ele>152.02575683594</ele>
        <time>2015-10-01T11:54:31Z</time>
      </trkpt>
      <trkpt lat="48.0984" lon="-4.21261">
        <ele>148.66101074219</ele>
        <time>2015-10-01T11:54:38Z</time>
      </trkpt>
      <trkpt lat="48.09842" lon="-4.21261">
        <ele>147.69970703125</ele>
        <time>2015-10-01T11:54:40Z</time>
      </trkpt>
      <trkpt lat="48.09851" lon="-4.21259">
        <ele>145.77709960938</ele>
        <time>2015-10-01T11:54:48Z</time>
      </trkpt>
      <trkpt lat="48.09855" lon="-4.21258">
        <ele>144.81579589844</ele>
        <time>2015-10-01T11:54:53Z</time>
      </trkpt>
      <trkpt lat="48.09862" lon="-4.21256">
        <ele>144.33520507812</ele>
        <time>2015-10-01T11:55:01Z</time>
      </trkpt>
      <trkpt lat="48.09869" lon="-4.21257">
        <ele>144.81579589844</ele>
        <time>2015-10-01T11:55:08Z</time>
      </trkpt>
      <trkpt lat="48.09876" lon="-4.21256">
        <ele>141.93176269531</ele>
        <time>2015-10-01T11:55:15Z</time>
      </trkpt>
      <trkpt lat="48.09884" lon="-4.21255">
        <ele>141.45104980469</ele>
        <time>2015-10-01T11:55:22Z</time>
      </trkpt>
      <trkpt lat="48.09885" lon="-4.21255">
        <ele>141.45104980469</ele>
        <time>2015-10-01T11:55:23Z</time>
      </trkpt>
      <trkpt lat="48.09892" lon="-4.21251">
        <ele>139.52844238281</ele>
        <time>2015-10-01T11:55:29Z</time>
      </trkpt>
      <trkpt lat="48.09896" lon="-4.21248">
        <ele>138.56726074219</ele>
        <time>2015-10-01T11:55:33Z</time>
      </trkpt>
      <trkpt lat="48.099" lon="-4.21239">
        <ele>136.64465332031</ele>
        <time>2015-10-01T11:55:40Z</time>
      </trkpt>
      <trkpt lat="48.09902" lon="-4.21231">
        <ele>136.16394042969</ele>
        <time>2015-10-01T11:55:45Z</time>
      </trkpt>
      <trkpt lat="48.09902" lon="-4.21227">
        <ele>135.68310546875</ele>
        <time>2015-10-01T11:55:48Z</time>
      </trkpt>
      <trkpt lat="48.09902" lon="-4.21222">
        <ele>135.20251464844</ele>
        <time>2015-10-01T11:55:51Z</time>
      </trkpt>
      <trkpt lat="48.09904" lon="-4.21218">
        <ele>134.72192382812</ele>
        <time>2015-10-01T11:55:54Z</time>
      </trkpt>
      <trkpt lat="48.09906" lon="-4.21204">
        <ele>136.64465332031</ele>
        <time>2015-10-01T11:56:00Z</time>
      </trkpt>
      <trkpt lat="48.09906" lon="-4.21195">
        <ele>138.08654785156</ele>
        <time>2015-10-01T11:56:05Z</time>
      </trkpt>
      <trkpt lat="48.09906" lon="-4.21193">
        <ele>138.56726074219</ele>
        <time>2015-10-01T11:56:06Z</time>
      </trkpt>
      <trkpt lat="48.09908" lon="-4.2118">
        <ele>139.0478515625</ele>
        <time>2015-10-01T11:56:14Z</time>
      </trkpt>
      <trkpt lat="48.09909" lon="-4.21173">
        <ele>137.60583496094</ele>
        <time>2015-10-01T11:56:18Z</time>
      </trkpt>
      <trkpt lat="48.09906" lon="-4.21166">
        <ele>136.64465332031</ele>
        <time>2015-10-01T11:56:24Z</time>
      </trkpt>
      <trkpt lat="48.09903" lon="-4.21159">
        <ele>136.64465332031</ele>
        <time>2015-10-01T11:56:30Z</time>
      </trkpt>
      <trkpt lat="48.09901" lon="-4.2115">
        <ele>136.64465332031</ele>
        <time>2015-10-01T11:56:36Z</time>
      </trkpt>
      <trkpt lat="48.09903" lon="-4.21141">
        <ele>131.837890625</ele>
        <time>2015-10-01T11:56:43Z</time>
      </trkpt>
      <trkpt lat="48.09902" lon="-4.21133">
        <ele>131.35729980469</ele>
        <time>2015-10-01T11:56:48Z</time>
      </trkpt>
      <trkpt lat="48.09902" lon="-4.21124">
        <ele>130.39599609375</ele>
        <time>2015-10-01T11:56:54Z</time>
      </trkpt>
      <trkpt lat="48.09901" lon="-4.21121">
        <ele>129.91528320312</ele>
        <time>2015-10-01T11:56:56Z</time>
      </trkpt>
      <trkpt lat="48.09901" lon="-4.2111">
        <ele>128.47338867188</ele>
        <time>2015-10-01T11:57:04Z</time>
      </trkpt>
      <trkpt lat="48.09901" lon="-4.21099">
        <ele>126.06994628906</ele>
        <time>2015-10-01T11:57:12Z</time>
      </trkpt>
      <trkpt lat="48.099" lon="-4.21092">
        <ele>127.03137207031</ele>
        <time>2015-10-01T11:57:18Z</time>
      </trkpt>
      <trkpt lat="48.09898" lon="-4.21083">
        <ele>126.06994628906</ele>
        <time>2015-10-01T11:57:23Z</time>
      </trkpt>
      <trkpt lat="48.09898" lon="-4.21082">
        <ele>126.55065917969</ele>
        <time>2015-10-01T11:57:24Z</time>
      </trkpt>
      <trkpt lat="48.09897" lon="-4.21078">
        <ele>126.55065917969</ele>
        <time>2015-10-01T11:57:27Z</time>
      </trkpt>
      <trkpt lat="48.09896" lon="-4.21069">
        <ele>127.51196289062</ele>
        <time>2015-10-01T11:57:31Z</time>
      </trkpt>
      <trkpt lat="48.09895" lon="-4.21062">
        <ele>127.51196289062</ele>
        <time>2015-10-01T11:57:36Z</time>
      </trkpt>
      <trkpt lat="48.09896" lon="-4.21056">
        <ele>126.55065917969</ele>
        <time>2015-10-01T11:57:40Z</time>
      </trkpt>
      <trkpt lat="48.09898" lon="-4.21049">
        <ele>126.06994628906</ele>
        <time>2015-10-01T11:57:45Z</time>
      </trkpt>
      <trkpt lat="48.099" lon="-4.21032">
        <ele>127.03137207031</ele>
        <time>2015-10-01T11:57:53Z</time>
      </trkpt>
      <trkpt lat="48.09901" lon="-4.21027">
        <ele>127.51196289062</ele>
        <time>2015-10-01T11:57:57Z</time>
      </trkpt>
      <trkpt lat="48.09901" lon="-4.2101">
        <ele>133.76049804688</ele>
        <time>2015-10-01T11:58:04Z</time>
      </trkpt>
      <trkpt lat="48.09902" lon="-4.21006">
        <ele>135.68310546875</ele>
        <time>2015-10-01T11:58:06Z</time>
      </trkpt>
      <trkpt lat="48.09903" lon="-4.21004">
        <ele>136.64465332031</ele>
        <time>2015-10-01T11:58:09Z</time>
      </trkpt>
      <trkpt lat="48.0991" lon="-4.21005">
        <ele>139.52844238281</ele>
        <time>2015-10-01T11:58:16Z</time>
      </trkpt>
      <trkpt lat="48.09915" lon="-4.21007">
        <ele>140.97045898438</ele>
        <time>2015-10-01T11:58:22Z</time>
      </trkpt>
      <trkpt lat="48.09919" lon="-4.21007">
        <ele>139.0478515625</ele>
        <time>2015-10-01T11:58:28Z</time>
      </trkpt>
      <trkpt lat="48.09923" lon="-4.21008">
        <ele>138.56726074219</ele>
        <time>2015-10-01T11:58:33Z</time>
      </trkpt>
      <trkpt lat="48.09928" lon="-4.21009">
        <ele>139.0478515625</ele>
        <time>2015-10-01T11:58:38Z</time>
      </trkpt>
      <trkpt lat="48.09936" lon="-4.21013">
        <ele>138.56726074219</ele>
        <time>2015-10-01T11:58:46Z</time>
      </trkpt>
      <trkpt lat="48.0994" lon="-4.21016">
        <ele>136.64465332031</ele>
        <time>2015-10-01T11:58:51Z</time>
      </trkpt>
      <trkpt lat="48.09945" lon="-4.21018">
        <ele>135.68310546875</ele>
        <time>2015-10-01T11:58:56Z</time>
      </trkpt>
      <trkpt lat="48.09954" lon="-4.21021">
        <ele>134.2412109375</ele>
        <time>2015-10-01T11:59:05Z</time>
      </trkpt>
      <trkpt lat="48.09959" lon="-4.21023">
        <ele>134.2412109375</ele>
        <time>2015-10-01T11:59:10Z</time>
      </trkpt>
      <trkpt lat="48.09966" lon="-4.21024">
        <ele>132.79931640625</ele>
        <time>2015-10-01T11:59:16Z</time>
      </trkpt>
      <trkpt lat="48.09969" lon="-4.21025">
        <ele>132.79931640625</ele>
        <time>2015-10-01T11:59:20Z</time>
      </trkpt>
      <trkpt lat="48.09974" lon="-4.21025">
        <ele>128.9541015625</ele>
        <time>2015-10-01T11:59:30Z</time>
      </trkpt>
      <trkpt lat="48.09977" lon="-4.21026">
        <ele>128.47338867188</ele>
        <time>2015-10-01T11:59:34Z</time>
      </trkpt>
      <trkpt lat="48.09984" lon="-4.21023">
        <ele>125.58935546875</ele>
        <time>2015-10-01T11:59:41Z</time>
      </trkpt>
      <trkpt lat="48.09989" lon="-4.21021">
        <ele>125.58935546875</ele>
        <time>2015-10-01T11:59:48Z</time>
      </trkpt>
      <trkpt lat="48.09996" lon="-4.21021">
        <ele>125.10876464844</ele>
        <time>2015-10-01T11:59:57Z</time>
      </trkpt>
      <trkpt lat="48.10001" lon="-4.21021">
        <ele>122.70544433594</ele>
        <time>2015-10-01T12:00:03Z</time>
      </trkpt>
      <trkpt lat="48.10009" lon="-4.21022">
        <ele>121.744140625</ele>
        <time>2015-10-01T12:00:10Z</time>
      </trkpt>
      <trkpt lat="48.10014" lon="-4.21023">
        <ele>121.26354980469</ele>
        <time>2015-10-01T12:00:16Z</time>
      </trkpt>
      <trkpt lat="48.10018" lon="-4.21023">
        <ele>121.744140625</ele>
        <time>2015-10-01T12:00:21Z</time>
      </trkpt>
      <trkpt lat="48.10023" lon="-4.21019">
        <ele>121.26354980469</ele>
        <time>2015-10-01T12:00:26Z</time>
      </trkpt>
      <trkpt lat="48.10024" lon="-4.21017">
        <ele>121.744140625</ele>
        <time>2015-10-01T12:00:27Z</time>
      </trkpt>
      <trkpt lat="48.10023" lon="-4.21013">
        <ele>121.26354980469</ele>
        <time>2015-10-01T12:00:30Z</time>
      </trkpt>
      <trkpt lat="48.1002" lon="-4.21012">
        <ele>120.78283691406</ele>
        <time>2015-10-01T12:00:37Z</time>
      </trkpt>
      <trkpt lat="48.10021" lon="-4.21013">
        <ele>122.22473144531</ele>
        <time>2015-10-01T12:00:46Z</time>
      </trkpt>
      <trkpt lat="48.10023" lon="-4.21014">
        <ele>127.51196289062</ele>
        <time>2015-10-01T12:01:03Z</time>
      </trkpt>
      <trkpt lat="48.10025" lon="-4.21013">
        <ele>123.18615722656</ele>
        <time>2015-10-01T12:01:11Z</time>
      </trkpt>
      <trkpt lat="48.10023" lon="-4.2101">
        <ele>116.45678710938</ele>
        <time>2015-10-01T12:01:16Z</time>
      </trkpt>
      <trkpt lat="48.10025" lon="-4.21009">
        <ele>115.01489257812</ele>
        <time>2015-10-01T12:01:22Z</time>
      </trkpt>
      <trkpt lat="48.10025" lon="-4.21009">
        <ele>123.18615722656</ele>
        <time>2015-10-01T12:01:30Z</time>
      </trkpt>
      <trkpt lat="48.10015" lon="-4.2101">
        <ele>126.55065917969</ele>
        <time>2015-10-01T12:01:36Z</time>
      </trkpt>
      <trkpt lat="48.10016" lon="-4.21013">
        <ele>132.79931640625</ele>
        <time>2015-10-01T12:01:42Z</time>
      </trkpt>
      <trkpt lat="48.10012" lon="-4.21013">
        <ele>119.3408203125</ele>
        <time>2015-10-01T12:01:55Z</time>
      </trkpt>
      <trkpt lat="48.10012" lon="-4.21015">
        <ele>122.22473144531</ele>
        <time>2015-10-01T12:02:05Z</time>
      </trkpt>
      <trkpt lat="48.10011" lon="-4.21006">
        <ele>117.41821289062</ele>
        <time>2015-10-01T12:02:10Z</time>
      </trkpt>
      <trkpt lat="48.10019" lon="-4.21011">
        <ele>127.99255371094</ele>
        <time>2015-10-01T12:02:16Z</time>
      </trkpt>
      <trkpt lat="48.1003" lon="-4.21006">
        <ele>132.79931640625</ele>
        <time>2015-10-01T12:02:20Z</time>
      </trkpt>
      <trkpt lat="48.10032" lon="-4.21008">
        <ele>135.20251464844</ele>
        <time>2015-10-01T12:02:22Z</time>
      </trkpt>
      <trkpt lat="48.10027" lon="-4.21009">
        <ele>138.56726074219</ele>
        <time>2015-10-01T12:02:28Z</time>
      </trkpt>
      <trkpt lat="48.10022" lon="-4.21009">
        <ele>136.16394042969</ele>
        <time>2015-10-01T12:02:34Z</time>
      </trkpt>
      <trkpt lat="48.10019" lon="-4.21019">
        <ele>133.27990722656</ele>
        <time>2015-10-01T12:02:51Z</time>
      </trkpt>
      <trkpt lat="48.1002" lon="-4.21022">
        <ele>133.76049804688</ele>
        <time>2015-10-01T12:02:56Z</time>
      </trkpt>
      <trkpt lat="48.10017" lon="-4.21025">
        <ele>144.33520507812</ele>
        <time>2015-10-01T12:03:05Z</time>
      </trkpt>
      <trkpt lat="48.10007" lon="-4.21022">
        <ele>138.08654785156</ele>
        <time>2015-10-01T12:03:15Z</time>
      </trkpt>
      <trkpt lat="48.10013" lon="-4.21026">
        <ele>132.79931640625</ele>
        <time>2015-10-01T12:03:21Z</time>
      </trkpt>
      <trkpt lat="48.10015" lon="-4.21014">
        <ele>130.39599609375</ele>
        <time>2015-10-01T12:03:32Z</time>
      </trkpt>
      <trkpt lat="48.10016" lon="-4.2101">
        <ele>129.43469238281</ele>
        <time>2015-10-01T12:03:35Z</time>
      </trkpt>
      <trkpt lat="48.10026" lon="-4.20998">
        <ele>130.39599609375</ele>
        <time>2015-10-01T12:03:43Z</time>
      </trkpt>
      <trkpt lat="48.10026" lon="-4.20998">
        <ele>131.837890625</ele>
        <time>2015-10-01T12:03:45Z</time>
      </trkpt>
      <trkpt lat="48.1002" lon="-4.20998">
        <ele>135.68310546875</ele>
        <time>2015-10-01T12:03:50Z</time>
      </trkpt>
      <trkpt lat="48.1002" lon="-4.20999">
        <ele>136.64465332031</ele>
        <time>2015-10-01T12:03:52Z</time>
      </trkpt>
      <trkpt lat="48.10021" lon="-4.20999">
        <ele>140.00915527344</ele>
        <time>2015-10-01T12:03:58Z</time>
      </trkpt>
      <trkpt lat="48.10024" lon="-4.20984">
        <ele>135.20251464844</ele>
        <time>2015-10-01T12:04:02Z</time>
      </trkpt>
      <trkpt lat="48.10022" lon="-4.20988">
        <ele>136.16394042969</ele>
        <time>2015-10-01T12:04:12Z</time>
      </trkpt>
      <trkpt lat="48.10019" lon="-4.20993">
        <ele>127.51196289062</ele>
        <time>2015-10-01T12:04:17Z</time>
      </trkpt>
      <trkpt lat="48.10021" lon="-4.20995">
        <ele>125.10876464844</ele>
        <time>2015-10-01T12:04:20Z</time>
      </trkpt>
      <trkpt lat="48.10024" lon="-4.21003">
        <ele>123.18615722656</ele>
        <time>2015-10-01T12:04:25Z</time>
      </trkpt>
      <trkpt lat="48.10026" lon="-4.21014">
        <ele>121.744140625</ele>
        <time>2015-10-01T12:04:33Z</time>
      </trkpt>
      <trkpt lat="48.10028" lon="-4.2102">
        <ele>121.26354980469</ele>
        <time>2015-10-01T12:04:40Z</time>
      </trkpt>
      <trkpt lat="48.10028" lon="-4.21026">
        <ele>122.70544433594</ele>
        <time>2015-10-01T12:04:47Z</time>
      </trkpt>
      <trkpt lat="48.10028" lon="-4.21035">
        <ele>124.62805175781</ele>
        <time>2015-10-01T12:04:54Z</time>
      </trkpt>
      <trkpt lat="48.10029" lon="-4.21044">
        <ele>126.06994628906</ele>
        <time>2015-10-01T12:05:02Z</time>
      </trkpt>
      <trkpt lat="48.10032" lon="-4.21044">
        <ele>127.51196289062</ele>
        <time>2015-10-01T12:05:10Z</time>
      </trkpt>
      <trkpt lat="48.10033" lon="-4.2104">
        <ele>128.9541015625</ele>
        <time>2015-10-01T12:05:17Z</time>
      </trkpt>
      <trkpt lat="48.10034" lon="-4.21046">
        <ele>128.47338867188</ele>
        <time>2015-10-01T12:05:23Z</time>
      </trkpt>
      <trkpt lat="48.10037" lon="-4.21052">
        <ele>127.51196289062</ele>
        <time>2015-10-01T12:05:29Z</time>
      </trkpt>
      <trkpt lat="48.10039" lon="-4.21056">
        <ele>127.03137207031</ele>
        <time>2015-10-01T12:05:33Z</time>
      </trkpt>
      <trkpt lat="48.10043" lon="-4.21062">
        <ele>127.03137207031</ele>
        <time>2015-10-01T12:05:38Z</time>
      </trkpt>
      <trkpt lat="48.10044" lon="-4.21063">
        <ele>127.51196289062</ele>
        <time>2015-10-01T12:05:39Z</time>
      </trkpt>
      <trkpt lat="48.10045" lon="-4.21069">
        <ele>126.55065917969</ele>
        <time>2015-10-01T12:05:43Z</time>
      </trkpt>
      <trkpt lat="48.10047" lon="-4.21075">
        <ele>124.62805175781</ele>
        <time>2015-10-01T12:05:49Z</time>
      </trkpt>
      <trkpt lat="48.10048" lon="-4.2108">
        <ele>122.22473144531</ele>
        <time>2015-10-01T12:05:54Z</time>
      </trkpt>
      <trkpt lat="48.10048" lon="-4.21083">
        <ele>117.89880371094</ele>
        <time>2015-10-01T12:06:04Z</time>
      </trkpt>
      <trkpt lat="48.10051" lon="-4.21093">
        <ele>118.86010742188</ele>
        <time>2015-10-01T12:06:09Z</time>
      </trkpt>
      <trkpt lat="48.10055" lon="-4.21101">
        <ele>119.82141113281</ele>
        <time>2015-10-01T12:06:14Z</time>
      </trkpt>
      <trkpt lat="48.10056" lon="-4.21105">
        <ele>119.82141113281</ele>
        <time>2015-10-01T12:06:16Z</time>
      </trkpt>
      <trkpt lat="48.10059" lon="-4.21114">
        <ele>121.26354980469</ele>
        <time>2015-10-01T12:06:23Z</time>
      </trkpt>
      <trkpt lat="48.10059" lon="-4.21117">
        <ele>121.744140625</ele>
        <time>2015-10-01T12:06:25Z</time>
      </trkpt>
      <trkpt lat="48.10063" lon="-4.21123">
        <ele>121.744140625</ele>
        <time>2015-10-01T12:06:29Z</time>
      </trkpt>
      <trkpt lat="48.10065" lon="-4.21129">
        <ele>121.26354980469</ele>
        <time>2015-10-01T12:06:34Z</time>
      </trkpt>
      <trkpt lat="48.10069" lon="-4.21142">
        <ele>122.22473144531</ele>
        <time>2015-10-01T12:06:41Z</time>
      </trkpt>
      <trkpt lat="48.1007" lon="-4.21144">
        <ele>122.70544433594</ele>
        <time>2015-10-01T12:06:42Z</time>
      </trkpt>
      <trkpt lat="48.10074" lon="-4.21152">
        <ele>122.70544433594</ele>
        <time>2015-10-01T12:06:48Z</time>
      </trkpt>
      <trkpt lat="48.10076" lon="-4.21156">
        <ele>122.22473144531</ele>
        <time>2015-10-01T12:06:51Z</time>
      </trkpt>
      <trkpt lat="48.1008" lon="-4.2116">
        <ele>123.18615722656</ele>
        <time>2015-10-01T12:06:57Z</time>
      </trkpt>
      <trkpt lat="48.10083" lon="-4.21163">
        <ele>123.66674804688</ele>
        <time>2015-10-01T12:07:00Z</time>
      </trkpt>
      <trkpt lat="48.10088" lon="-4.21174">
        <ele>123.18615722656</ele>
        <time>2015-10-01T12:07:07Z</time>
      </trkpt>
      <trkpt lat="48.10089" lon="-4.21176">
        <ele>123.18615722656</ele>
        <time>2015-10-01T12:07:14Z</time>
      </trkpt>
      <trkpt lat="48.10091" lon="-4.21176">
        <ele>121.744140625</ele>
        <time>2015-10-01T12:07:28Z</time>
      </trkpt>
      <trkpt lat="48.10087" lon="-4.21176">
        <ele>132.79931640625</ele>
        <time>2015-10-01T12:07:41Z</time>
      </trkpt>
      <trkpt lat="48.10087" lon="-4.21175">
        <ele>133.27990722656</ele>
        <time>2015-10-01T12:07:44Z</time>
      </trkpt>
      <trkpt lat="48.10083" lon="-4.21174">
        <ele>131.837890625</ele>
        <time>2015-10-01T12:07:50Z</time>
      </trkpt>
      <trkpt lat="48.10092" lon="-4.21179">
        <ele>126.06994628906</ele>
        <time>2015-10-01T12:08:02Z</time>
      </trkpt>
      <trkpt lat="48.10091" lon="-4.21176">
        <ele>127.51196289062</ele>
        <time>2015-10-01T12:08:07Z</time>
      </trkpt>
      <trkpt lat="48.10089" lon="-4.21176">
        <ele>126.06994628906</ele>
        <time>2015-10-01T12:08:10Z</time>
      </trkpt>
      <trkpt lat="48.10097" lon="-4.21182">
        <ele>123.18615722656</ele>
        <time>2015-10-01T12:08:16Z</time>
      </trkpt>
      <trkpt lat="48.10105" lon="-4.21193">
        <ele>121.26354980469</ele>
        <time>2015-10-01T12:08:24Z</time>
      </trkpt>
      <trkpt lat="48.10109" lon="-4.21197">
        <ele>121.744140625</ele>
        <time>2015-10-01T12:08:30Z</time>
      </trkpt>
      <trkpt lat="48.10117" lon="-4.21199">
        <ele>119.82141113281</ele>
        <time>2015-10-01T12:08:39Z</time>
      </trkpt>
      <trkpt lat="48.10122" lon="-4.21202">
        <ele>118.37939453125</ele>
        <time>2015-10-01T12:08:43Z</time>
      </trkpt>
      <trkpt lat="48.10124" lon="-4.21203">
        <ele>118.37939453125</ele>
        <time>2015-10-01T12:08:45Z</time>
      </trkpt>
      <trkpt lat="48.10128" lon="-4.21206">
        <ele>117.89880371094</ele>
        <time>2015-10-01T12:08:50Z</time>
      </trkpt>
      <trkpt lat="48.10135" lon="-4.2121">
        <ele>116.9375</ele>
        <time>2015-10-01T12:08:57Z</time>
      </trkpt>
      <trkpt lat="48.10141" lon="-4.21211">
        <ele>115.01489257812</ele>
        <time>2015-10-01T12:09:03Z</time>
      </trkpt>
      <trkpt lat="48.10143" lon="-4.21212">
        <ele>115.01489257812</ele>
        <time>2015-10-01T12:09:04Z</time>
      </trkpt>
      <trkpt lat="48.10152" lon="-4.21218">
        <ele>115.49560546875</ele>
        <time>2015-10-01T12:09:11Z</time>
      </trkpt>
      <trkpt lat="48.10153" lon="-4.21219">
        <ele>115.49560546875</ele>
        <time>2015-10-01T12:09:12Z</time>
      </trkpt>
      <trkpt lat="48.10161" lon="-4.21224">
        <ele>115.97619628906</ele>
        <time>2015-10-01T12:09:19Z</time>
      </trkpt>
      <trkpt lat="48.10164" lon="-4.21226">
        <ele>115.97619628906</ele>
        <time>2015-10-01T12:09:23Z</time>
      </trkpt>
      <trkpt lat="48.1017" lon="-4.2123">
        <ele>116.9375</ele>
        <time>2015-10-01T12:09:30Z</time>
      </trkpt>
      <trkpt lat="48.10174" lon="-4.21236">
        <ele>115.97619628906</ele>
        <time>2015-10-01T12:09:36Z</time>
      </trkpt>
      <trkpt lat="48.10174" lon="-4.21245">
        <ele>116.45678710938</ele>
        <time>2015-10-01T12:09:42Z</time>
      </trkpt>
      <trkpt lat="48.10174" lon="-4.21247">
        <ele>116.9375</ele>
        <time>2015-10-01T12:09:43Z</time>
      </trkpt>
      <trkpt lat="48.10172" lon="-4.2126">
        <ele>119.82141113281</ele>
        <time>2015-10-01T12:09:50Z</time>
      </trkpt>
      <trkpt lat="48.10169" lon="-4.21272">
        <ele>121.26354980469</ele>
        <time>2015-10-01T12:09:59Z</time>
      </trkpt>
      <trkpt lat="48.10167" lon="-4.21282">
        <ele>121.26354980469</ele>
        <time>2015-10-01T12:10:05Z</time>
      </trkpt>
      <trkpt lat="48.10167" lon="-4.21284">
        <ele>121.26354980469</ele>
        <time>2015-10-01T12:10:06Z</time>
      </trkpt>
      <trkpt lat="48.10165" lon="-4.21288">
        <ele>120.78283691406</ele>
        <time>2015-10-01T12:10:10Z</time>
      </trkpt>
      <trkpt lat="48.10164" lon="-4.213">
        <ele>120.30212402344</ele>
        <time>2015-10-01T12:10:17Z</time>
      </trkpt>
      <trkpt lat="48.10162" lon="-4.2131">
        <ele>119.82141113281</ele>
        <time>2015-10-01T12:10:24Z</time>
      </trkpt>
      <trkpt lat="48.1016" lon="-4.21315">
        <ele>120.78283691406</ele>
        <time>2015-10-01T12:10:27Z</time>
      </trkpt>
      <trkpt lat="48.10157" lon="-4.21326">
        <ele>124.62805175781</ele>
        <time>2015-10-01T12:10:34Z</time>
      </trkpt>
      <trkpt lat="48.10155" lon="-4.21338">
        <ele>125.10876464844</ele>
        <time>2015-10-01T12:10:41Z</time>
      </trkpt>
      <trkpt lat="48.10154" lon="-4.21347">
        <ele>125.10876464844</ele>
        <time>2015-10-01T12:10:47Z</time>
      </trkpt>
      <trkpt lat="48.10154" lon="-4.21349">
        <ele>124.62805175781</ele>
        <time>2015-10-01T12:10:48Z</time>
      </trkpt>
      <trkpt lat="48.10153" lon="-4.2136">
        <ele>122.70544433594</ele>
        <time>2015-10-01T12:10:54Z</time>
      </trkpt>
      <trkpt lat="48.10153" lon="-4.21374">
        <ele>120.78283691406</ele>
        <time>2015-10-01T12:11:02Z</time>
      </trkpt>
      <trkpt lat="48.10153" lon="-4.21376">
        <ele>121.26354980469</ele>
        <time>2015-10-01T12:11:03Z</time>
      </trkpt>
      <trkpt lat="48.10156" lon="-4.21388">
        <ele>121.744140625</ele>
        <time>2015-10-01T12:11:13Z</time>
      </trkpt>
      <trkpt lat="48.10159" lon="-4.2139">
        <ele>121.744140625</ele>
        <time>2015-10-01T12:11:15Z</time>
      </trkpt>
      <trkpt lat="48.10161" lon="-4.21391">
        <ele>121.26354980469</ele>
        <time>2015-10-01T12:11:17Z</time>
      </trkpt>
      <trkpt lat="48.10167" lon="-4.21397">
        <ele>120.30212402344</ele>
        <time>2015-10-01T12:11:26Z</time>
      </trkpt>
      <trkpt lat="48.1017" lon="-4.21399">
        <ele>119.82141113281</ele>
        <time>2015-10-01T12:11:33Z</time>
      </trkpt>
      <trkpt lat="48.10173" lon="-4.214">
        <ele>118.37939453125</ele>
        <time>2015-10-01T12:11:38Z</time>
      </trkpt>
      <trkpt lat="48.1018" lon="-4.21402">
        <ele>115.97619628906</ele>
        <time>2015-10-01T12:11:44Z</time>
      </trkpt>
      <trkpt lat="48.10186" lon="-4.21403">
        <ele>114.5341796875</ele>
        <time>2015-10-01T12:11:52Z</time>
      </trkpt>
      <trkpt lat="48.10194" lon="-4.21407">
        <ele>114.5341796875</ele>
        <time>2015-10-01T12:11:59Z</time>
      </trkpt>
      <trkpt lat="48.10198" lon="-4.21409">
        <ele>114.5341796875</ele>
        <time>2015-10-01T12:12:03Z</time>
      </trkpt>
      <trkpt lat="48.10204" lon="-4.21413">
        <ele>113.57299804688</ele>
        <time>2015-10-01T12:12:09Z</time>
      </trkpt>
      <trkpt lat="48.10211" lon="-4.21417">
        <ele>113.09228515625</ele>
        <time>2015-10-01T12:12:15Z</time>
      </trkpt>
      <trkpt lat="48.10215" lon="-4.21419">
        <ele>112.61157226562</ele>
        <time>2015-10-01T12:12:18Z</time>
      </trkpt>
      <trkpt lat="48.10223" lon="-4.21422">
        <ele>112.61157226562</ele>
        <time>2015-10-01T12:12:25Z</time>
      </trkpt>
      <trkpt lat="48.10226" lon="-4.21424">
        <ele>112.61157226562</ele>
        <time>2015-10-01T12:12:30Z</time>
      </trkpt>
      <trkpt lat="48.10235" lon="-4.21429">
        <ele>112.61157226562</ele>
        <time>2015-10-01T12:12:38Z</time>
      </trkpt>
      <trkpt lat="48.10238" lon="-4.2143">
        <ele>112.61157226562</ele>
        <time>2015-10-01T12:12:40Z</time>
      </trkpt>
      <trkpt lat="48.10245" lon="-4.21432">
        <ele>112.13098144531</ele>
        <time>2015-10-01T12:12:46Z</time>
      </trkpt>
      <trkpt lat="48.10252" lon="-4.21436">
        <ele>110.68884277344</ele>
        <time>2015-10-01T12:12:53Z</time>
      </trkpt>
      <trkpt lat="48.10254" lon="-4.21438">
        <ele>110.68884277344</ele>
        <time>2015-10-01T12:12:56Z</time>
      </trkpt>
      <trkpt lat="48.10261" lon="-4.21441">
        <ele>109.24694824219</ele>
        <time>2015-10-01T12:13:03Z</time>
      </trkpt>
      <trkpt lat="48.10266" lon="-4.21444">
        <ele>108.76623535156</ele>
        <time>2015-10-01T12:13:09Z</time>
      </trkpt>
      <trkpt lat="48.10272" lon="-4.21447">
        <ele>108.28564453125</ele>
        <time>2015-10-01T12:13:15Z</time>
      </trkpt>
      <trkpt lat="48.10273" lon="-4.21447">
        <ele>107.80505371094</ele>
        <time>2015-10-01T12:13:16Z</time>
      </trkpt>
      <trkpt lat="48.10277" lon="-4.21449">
        <ele>108.28564453125</ele>
        <time>2015-10-01T12:13:19Z</time>
      </trkpt>
      <trkpt lat="48.10284" lon="-4.21451">
        <ele>107.32434082031</ele>
        <time>2015-10-01T12:13:25Z</time>
      </trkpt>
      <trkpt lat="48.10289" lon="-4.21453">
        <ele>106.36303710938</ele>
        <time>2015-10-01T12:13:31Z</time>
      </trkpt>
      <trkpt lat="48.10291" lon="-4.21454">
        <ele>106.36303710938</ele>
        <time>2015-10-01T12:13:33Z</time>
      </trkpt>
      <trkpt lat="48.10301" lon="-4.21455">
        <ele>107.80505371094</ele>
        <time>2015-10-01T12:13:40Z</time>
      </trkpt>
      <trkpt lat="48.10307" lon="-4.21455">
        <ele>107.80505371094</ele>
        <time>2015-10-01T12:13:44Z</time>
      </trkpt>
      <trkpt lat="48.10311" lon="-4.21459">
        <ele>108.28564453125</ele>
        <time>2015-10-01T12:13:50Z</time>
      </trkpt>
      <trkpt lat="48.10319" lon="-4.21463">
        <ele>109.72766113281</ele>
        <time>2015-10-01T12:13:58Z</time>
      </trkpt>
      <trkpt lat="48.10324" lon="-4.21464">
        <ele>109.24694824219</ele>
        <time>2015-10-01T12:14:04Z</time>
      </trkpt>
      <trkpt lat="48.1033" lon="-4.21467">
        <ele>108.76623535156</ele>
        <time>2015-10-01T12:14:08Z</time>
      </trkpt>
      <trkpt lat="48.10332" lon="-4.21467">
        <ele>108.28564453125</ele>
        <time>2015-10-01T12:14:10Z</time>
      </trkpt>
      <trkpt lat="48.10337" lon="-4.21469">
        <ele>107.32434082031</ele>
        <time>2015-10-01T12:14:16Z</time>
      </trkpt>
      <trkpt lat="48.10341" lon="-4.2147">
        <ele>106.84362792969</ele>
        <time>2015-10-01T12:14:19Z</time>
      </trkpt>
      <trkpt lat="48.10344" lon="-4.21471">
        <ele>106.84362792969</ele>
        <time>2015-10-01T12:14:22Z</time>
      </trkpt>
      <trkpt lat="48.10351" lon="-4.21473">
        <ele>108.28564453125</ele>
        <time>2015-10-01T12:14:29Z</time>
      </trkpt>
      <trkpt lat="48.10351" lon="-4.21473">
        <ele>108.28564453125</ele>
        <time>2015-10-01T12:14:30Z</time>
      </trkpt>
      <trkpt lat="48.10361" lon="-4.21475">
        <ele>106.36303710938</ele>
        <time>2015-10-01T12:14:38Z</time>
      </trkpt>
      <trkpt lat="48.10365" lon="-4.21476">
        <ele>104.4404296875</ele>
        <time>2015-10-01T12:14:43Z</time>
      </trkpt>
      <trkpt lat="48.10366" lon="-4.21477">
        <ele>103.95971679688</ele>
        <time>2015-10-01T12:14:44Z</time>
      </trkpt>
      <trkpt lat="48.10373" lon="-4.21479">
        <ele>102.51770019531</ele>
        <time>2015-10-01T12:14:49Z</time>
      </trkpt>
      <trkpt lat="48.10377" lon="-4.21481">
        <ele>102.037109375</ele>
        <time>2015-10-01T12:14:53Z</time>
      </trkpt>
      <trkpt lat="48.10384" lon="-4.21481">
        <ele>102.037109375</ele>
        <time>2015-10-01T12:15:00Z</time>
      </trkpt>
      <trkpt lat="48.10385" lon="-4.21481">
        <ele>102.037109375</ele>
        <time>2015-10-01T12:15:01Z</time>
      </trkpt>
      <trkpt lat="48.10388" lon="-4.21481">
        <ele>102.51770019531</ele>
        <time>2015-10-01T12:15:04Z</time>
      </trkpt>
      <trkpt lat="48.10397" lon="-4.21482">
        <ele>100.11450195312</ele>
        <time>2015-10-01T12:15:13Z</time>
      </trkpt>
      <trkpt lat="48.10402" lon="-4.21484">
        <ele>98.672485351562</ele>
        <time>2015-10-01T12:15:18Z</time>
      </trkpt>
      <trkpt lat="48.10408" lon="-4.21485">
        <ele>98.19189453125</ele>
        <time>2015-10-01T12:15:24Z</time>
      </trkpt>
      <trkpt lat="48.10412" lon="-4.21487">
        <ele>97.711181640625</ele>
        <time>2015-10-01T12:15:28Z</time>
      </trkpt>
      <trkpt lat="48.10424" lon="-4.21487">
        <ele>96.749877929688</ele>
        <time>2015-10-01T12:15:37Z</time>
      </trkpt>
      <trkpt lat="48.10428" lon="-4.21488">
        <ele>96.749877929688</ele>
        <time>2015-10-01T12:15:41Z</time>
      </trkpt>
      <trkpt lat="48.10438" lon="-4.21491">
        <ele>95.788452148438</ele>
        <time>2015-10-01T12:15:50Z</time>
      </trkpt>
      <trkpt lat="48.10446" lon="-4.21491">
        <ele>93.865844726562</ele>
        <time>2015-10-01T12:15:58Z</time>
      </trkpt>
      <trkpt lat="48.10452" lon="-4.21492">
        <ele>92.904541015625</ele>
        <time>2015-10-01T12:16:04Z</time>
      </trkpt>
      <trkpt lat="48.1046" lon="-4.21496">
        <ele>92.423950195312</ele>
        <time>2015-10-01T12:16:11Z</time>
      </trkpt>
      <trkpt lat="48.10468" lon="-4.21498">
        <ele>93.385131835938</ele>
        <time>2015-10-01T12:16:18Z</time>
      </trkpt>
      <trkpt lat="48.10471" lon="-4.21496">
        <ele>93.385131835938</ele>
        <time>2015-10-01T12:16:21Z</time>
      </trkpt>
      <trkpt lat="48.10474" lon="-4.21491">
        <ele>92.423950195312</ele>
        <time>2015-10-01T12:16:26Z</time>
      </trkpt>
      <trkpt lat="48.10475" lon="-4.21478">
        <ele>89.059326171875</ele>
        <time>2015-10-01T12:16:34Z</time>
      </trkpt>
      <trkpt lat="48.10476" lon="-4.21474">
        <ele>87.6171875</ele>
        <time>2015-10-01T12:16:37Z</time>
      </trkpt>
      <trkpt lat="48.10477" lon="-4.21465">
        <ele>85.694580078125</ele>
        <time>2015-10-01T12:16:42Z</time>
      </trkpt>
      <trkpt lat="48.10477" lon="-4.21456">
        <ele>83.291381835938</ele>
        <time>2015-10-01T12:16:48Z</time>
      </trkpt>
      <trkpt lat="48.10478" lon="-4.21449">
        <ele>80.88818359375</ele>
        <time>2015-10-01T12:16:53Z</time>
      </trkpt>
      <trkpt lat="48.10479" lon="-4.2144">
        <ele>78.965454101562</ele>
        <time>2015-10-01T12:16:59Z</time>
      </trkpt>
      <trkpt lat="48.10479" lon="-4.21434">
        <ele>76.081420898438</ele>
        <time>2015-10-01T12:17:03Z</time>
      </trkpt>
      <trkpt lat="48.10479" lon="-4.21431">
        <ele>76.081420898438</ele>
        <time>2015-10-01T12:17:05Z</time>
      </trkpt>
      <trkpt lat="48.10479" lon="-4.21422">
        <ele>77.042846679688</ele>
        <time>2015-10-01T12:17:11Z</time>
      </trkpt>
      <trkpt lat="48.10485" lon="-4.21412">
        <ele>77.5234375</ele>
        <time>2015-10-01T12:17:17Z</time>
      </trkpt>
      <trkpt lat="48.10488" lon="-4.21406">
        <ele>77.042846679688</ele>
        <time>2015-10-01T12:17:20Z</time>
      </trkpt>
      <trkpt lat="48.1049" lon="-4.21397">
        <ele>78.004028320312</ele>
        <time>2015-10-01T12:17:26Z</time>
      </trkpt>
      <trkpt lat="48.10491" lon="-4.21395">
        <ele>77.5234375</ele>
        <time>2015-10-01T12:17:27Z</time>
      </trkpt>
      <trkpt lat="48.10493" lon="-4.21387">
        <ele>77.042846679688</ele>
        <time>2015-10-01T12:17:31Z</time>
      </trkpt>
      <trkpt lat="48.10494" lon="-4.21376">
        <ele>76.562133789062</ele>
        <time>2015-10-01T12:17:36Z</time>
      </trkpt>
      <trkpt lat="48.10493" lon="-4.21371">
        <ele>76.562133789062</ele>
        <time>2015-10-01T12:17:39Z</time>
      </trkpt>
      <trkpt lat="48.10495" lon="-4.21363">
        <ele>76.081420898438</ele>
        <time>2015-10-01T12:17:43Z</time>
      </trkpt>
      <trkpt lat="48.10494" lon="-4.21353">
        <ele>77.042846679688</ele>
        <time>2015-10-01T12:17:48Z</time>
      </trkpt>
      <trkpt lat="48.10493" lon="-4.21339">
        <ele>78.965454101562</ele>
        <time>2015-10-01T12:17:55Z</time>
      </trkpt>
      <trkpt lat="48.10493" lon="-4.21328">
        <ele>80.407470703125</ele>
        <time>2015-10-01T12:18:01Z</time>
      </trkpt>
      <trkpt lat="48.10493" lon="-4.21313">
        <ele>80.88818359375</ele>
        <time>2015-10-01T12:18:09Z</time>
      </trkpt>
      <trkpt lat="48.10493" lon="-4.21296">
        <ele>81.368774414062</ele>
        <time>2015-10-01T12:18:18Z</time>
      </trkpt>
      <trkpt lat="48.10494" lon="-4.21277">
        <ele>81.849365234375</ele>
        <time>2015-10-01T12:18:28Z</time>
      </trkpt>
      <trkpt lat="48.10493" lon="-4.2126">
        <ele>81.849365234375</ele>
        <time>2015-10-01T12:18:37Z</time>
      </trkpt>
      <trkpt lat="48.10493" lon="-4.21243">
        <ele>81.849365234375</ele>
        <time>2015-10-01T12:18:46Z</time>
      </trkpt>
      <trkpt lat="48.10493" lon="-4.21226">
        <ele>81.849365234375</ele>
        <time>2015-10-01T12:18:55Z</time>
      </trkpt>
      <trkpt lat="48.10492" lon="-4.21209">
        <ele>82.330078125</ele>
        <time>2015-10-01T12:19:04Z</time>
      </trkpt>
      <trkpt lat="48.10491" lon="-4.21192">
        <ele>82.810791015625</ele>
        <time>2015-10-01T12:19:13Z</time>
      </trkpt>
      <trkpt lat="48.10491" lon="-4.21174">
        <ele>83.291381835938</ele>
        <time>2015-10-01T12:19:22Z</time>
      </trkpt>
      <trkpt lat="48.10489" lon="-4.21159">
        <ele>83.291381835938</ele>
        <time>2015-10-01T12:19:30Z</time>
      </trkpt>
      <trkpt lat="48.10488" lon="-4.21142">
        <ele>83.77197265625</ele>
        <time>2015-10-01T12:19:40Z</time>
      </trkpt>
      <trkpt lat="48.10487" lon="-4.21128">
        <ele>83.77197265625</ele>
        <time>2015-10-01T12:19:47Z</time>
      </trkpt>
      <trkpt lat="48.10485" lon="-4.21111">
        <ele>84.252685546875</ele>
        <time>2015-10-01T12:19:56Z</time>
      </trkpt>
      <trkpt lat="48.10484" lon="-4.21097">
        <ele>84.7333984375</ele>
        <time>2015-10-01T12:20:03Z</time>
      </trkpt>
      <trkpt lat="48.10483" lon="-4.21083">
        <ele>83.77197265625</ele>
        <time>2015-10-01T12:20:11Z</time>
      </trkpt>
      <trkpt lat="48.10482" lon="-4.2107">
        <ele>83.77197265625</ele>
        <time>2015-10-01T12:20:18Z</time>
      </trkpt>
      <trkpt lat="48.10481" lon="-4.21058">
        <ele>84.7333984375</ele>
        <time>2015-10-01T12:20:24Z</time>
      </trkpt>
      <trkpt lat="48.10479" lon="-4.21039">
        <ele>85.694580078125</ele>
        <time>2015-10-01T12:20:34Z</time>
      </trkpt>
      <trkpt lat="48.10478" lon="-4.21025">
        <ele>85.694580078125</ele>
        <time>2015-10-01T12:20:42Z</time>
      </trkpt>
      <trkpt lat="48.10478" lon="-4.21022">
        <ele>85.694580078125</ele>
        <time>2015-10-01T12:20:43Z</time>
      </trkpt>
      <trkpt lat="48.10476" lon="-4.21014">
        <ele>85.694580078125</ele>
        <time>2015-10-01T12:20:48Z</time>
      </trkpt>
      <trkpt lat="48.10478" lon="-4.21007">
        <ele>84.7333984375</ele>
        <time>2015-10-01T12:20:52Z</time>
      </trkpt>
      <trkpt lat="48.1048" lon="-4.21003">
        <ele>84.7333984375</ele>
        <time>2015-10-01T12:20:55Z</time>
      </trkpt>
      <trkpt lat="48.10485" lon="-4.20997">
        <ele>84.252685546875</ele>
        <time>2015-10-01T12:21:01Z</time>
      </trkpt>
      <trkpt lat="48.10486" lon="-4.20997">
        <ele>83.77197265625</ele>
        <time>2015-10-01T12:21:02Z</time>
      </trkpt>
      <trkpt lat="48.10497" lon="-4.20997">
        <ele>85.213989257812</ele>
        <time>2015-10-01T12:21:11Z</time>
      </trkpt>
      <trkpt lat="48.10505" lon="-4.20999">
        <ele>85.213989257812</ele>
        <time>2015-10-01T12:21:18Z</time>
      </trkpt>
      <trkpt lat="48.10516" lon="-4.20999">
        <ele>86.17529296875</ele>
        <time>2015-10-01T12:21:26Z</time>
      </trkpt>
      <trkpt lat="48.10524" lon="-4.21">
        <ele>87.136596679688</ele>
        <time>2015-10-01T12:21:33Z</time>
      </trkpt>
      <trkpt lat="48.10531" lon="-4.20999">
        <ele>87.6171875</ele>
        <time>2015-10-01T12:21:39Z</time>
      </trkpt>
      <trkpt lat="48.10535" lon="-4.20999">
        <ele>87.6171875</ele>
        <time>2015-10-01T12:21:42Z</time>
      </trkpt>
      <trkpt lat="48.10543" lon="-4.20999">
        <ele>88.098022460938</ele>
        <time>2015-10-01T12:21:48Z</time>
      </trkpt>
      <trkpt lat="48.10546" lon="-4.20999">
        <ele>88.098022460938</ele>
        <time>2015-10-01T12:21:50Z</time>
      </trkpt>
      <trkpt lat="48.10549" lon="-4.20999">
        <ele>88.578735351562</ele>
        <time>2015-10-01T12:21:53Z</time>
      </trkpt>
      <trkpt lat="48.10553" lon="-4.20999">
        <ele>90.020629882812</ele>
        <time>2015-10-01T12:22:00Z</time>
      </trkpt>
      <trkpt lat="48.10559" lon="-4.20998">
        <ele>91.462524414062</ele>
        <time>2015-10-01T12:22:05Z</time>
      </trkpt>
      <trkpt lat="48.10564" lon="-4.20999">
        <ele>90.501342773438</ele>
        <time>2015-10-01T12:22:09Z</time>
      </trkpt>
      <trkpt lat="48.10574" lon="-4.20999">
        <ele>90.501342773438</ele>
        <time>2015-10-01T12:22:17Z</time>
      </trkpt>
      <trkpt lat="48.10583" lon="-4.21">
        <ele>90.501342773438</ele>
        <time>2015-10-01T12:22:25Z</time>
      </trkpt>
      <trkpt lat="48.10589" lon="-4.21002">
        <ele>91.462524414062</ele>
        <time>2015-10-01T12:22:31Z</time>
      </trkpt>
      <trkpt lat="48.10597" lon="-4.21004">
        <ele>91.943237304688</ele>
        <time>2015-10-01T12:22:38Z</time>
      </trkpt>
      <trkpt lat="48.10603" lon="-4.21006">
        <ele>92.423950195312</ele>
        <time>2015-10-01T12:22:43Z</time>
      </trkpt>
      <trkpt lat="48.10612" lon="-4.2101">
        <ele>92.904541015625</ele>
        <time>2015-10-01T12:22:52Z</time>
      </trkpt>
      <trkpt lat="48.10621" lon="-4.21012">
        <ele>94.346557617188</ele>
        <time>2015-10-01T12:22:59Z</time>
      </trkpt>
      <trkpt lat="48.10634" lon="-4.21019">
        <ele>95.788452148438</ele>
        <time>2015-10-01T12:23:09Z</time>
      </trkpt>
      <trkpt lat="48.10642" lon="-4.21023">
        <ele>96.269287109375</ele>
        <time>2015-10-01T12:23:16Z</time>
      </trkpt>
      <trkpt lat="48.10649" lon="-4.21026">
        <ele>96.749877929688</ele>
        <time>2015-10-01T12:23:22Z</time>
      </trkpt>
      <trkpt lat="48.10658" lon="-4.21028">
        <ele>96.749877929688</ele>
        <time>2015-10-01T12:23:30Z</time>
      </trkpt>
      <trkpt lat="48.10668" lon="-4.21033">
        <ele>97.23046875</ele>
        <time>2015-10-01T12:23:39Z</time>
      </trkpt>
      <trkpt lat="48.10678" lon="-4.21038">
        <ele>97.23046875</ele>
        <time>2015-10-01T12:23:47Z</time>
      </trkpt>
      <trkpt lat="48.10687" lon="-4.21042">
        <ele>98.19189453125</ele>
        <time>2015-10-01T12:23:55Z</time>
      </trkpt>
      <trkpt lat="48.10697" lon="-4.21046">
        <ele>98.672485351562</ele>
        <time>2015-10-01T12:24:03Z</time>
      </trkpt>
      <trkpt lat="48.10706" lon="-4.2105">
        <ele>98.672485351562</ele>
        <time>2015-10-01T12:24:11Z</time>
      </trkpt>
      <trkpt lat="48.10712" lon="-4.21051">
        <ele>98.672485351562</ele>
        <time>2015-10-01T12:24:16Z</time>
      </trkpt>
      <trkpt lat="48.10717" lon="-4.21045">
        <ele>99.6337890625</ele>
        <time>2015-10-01T12:24:23Z</time>
      </trkpt>
      <trkpt lat="48.10717" lon="-4.21042">
        <ele>100.11450195312</ele>
        <time>2015-10-01T12:24:28Z</time>
      </trkpt>
      <trkpt lat="48.10717" lon="-4.21042">
        <ele>100.11450195312</ele>
        <time>2015-10-01T12:24:33Z</time>
      </trkpt>
      <trkpt lat="48.10716" lon="-4.21042">
        <ele>99.6337890625</ele>
        <time>2015-10-01T12:24:42Z</time>
      </trkpt>
      <trkpt lat="48.10717" lon="-4.21042">
        <ele>100.11450195312</ele>
        <time>2015-10-01T12:24:51Z</time>
      </trkpt>
      <trkpt lat="48.10717" lon="-4.21042">
        <ele>100.11450195312</ele>
        <time>2015-10-01T12:24:57Z</time>
      </trkpt>
      <trkpt lat="48.10718" lon="-4.21041">
        <ele>100.59509277344</ele>
        <time>2015-10-01T12:25:08Z</time>
      </trkpt>
      <trkpt lat="48.10717" lon="-4.21042">
        <ele>101.07568359375</ele>
        <time>2015-10-01T12:25:13Z</time>
      </trkpt>
      <trkpt lat="48.10716" lon="-4.21037">
        <ele>101.55639648438</ele>
        <time>2015-10-01T12:25:19Z</time>
      </trkpt>
      <trkpt lat="48.10714" lon="-4.21031">
        <ele>100.59509277344</ele>
        <time>2015-10-01T12:25:24Z</time>
      </trkpt>
      <trkpt lat="48.10714" lon="-4.21027">
        <ele>99.6337890625</ele>
        <time>2015-10-01T12:25:32Z</time>
      </trkpt>
      <trkpt lat="48.10713" lon="-4.21027">
        <ele>96.749877929688</ele>
        <time>2015-10-01T12:25:57Z</time>
      </trkpt>
      <trkpt lat="48.10713" lon="-4.21033">
        <ele>95.788452148438</ele>
        <time>2015-10-01T12:26:08Z</time>
      </trkpt>
      <trkpt lat="48.10718" lon="-4.21033">
        <ele>95.788452148438</ele>
        <time>2015-10-01T12:26:14Z</time>
      </trkpt>
      <trkpt lat="48.10719" lon="-4.21023">
        <ele>95.788452148438</ele>
        <time>2015-10-01T12:26:20Z</time>
      </trkpt>
      <trkpt lat="48.10719" lon="-4.2101">
        <ele>95.307739257812</ele>
        <time>2015-10-01T12:26:28Z</time>
      </trkpt>
      <trkpt lat="48.10719" lon="-4.21">
        <ele>95.788452148438</ele>
        <time>2015-10-01T12:26:34Z</time>
      </trkpt>
      <trkpt lat="48.10719" lon="-4.2099">
        <ele>96.269287109375</ele>
        <time>2015-10-01T12:26:40Z</time>
      </trkpt>
      <trkpt lat="48.10719" lon="-4.20981">
        <ele>96.749877929688</ele>
        <time>2015-10-01T12:26:45Z</time>
      </trkpt>
      <trkpt lat="48.10719" lon="-4.20971">
        <ele>97.23046875</ele>
        <time>2015-10-01T12:26:50Z</time>
      </trkpt>
      <trkpt lat="48.10719" lon="-4.20967">
        <ele>97.23046875</ele>
        <time>2015-10-01T12:26:52Z</time>
      </trkpt>
      <trkpt lat="48.10719" lon="-4.20947">
        <ele>97.23046875</ele>
        <time>2015-10-01T12:27:03Z</time>
      </trkpt>
      <trkpt lat="48.10719" lon="-4.20932">
        <ele>96.749877929688</ele>
        <time>2015-10-01T12:27:12Z</time>
      </trkpt>
      <trkpt lat="48.10718" lon="-4.20918">
        <ele>95.307739257812</ele>
        <time>2015-10-01T12:27:20Z</time>
      </trkpt>
      <trkpt lat="48.10719" lon="-4.20905">
        <ele>95.788452148438</ele>
        <time>2015-10-01T12:27:27Z</time>
      </trkpt>
      <trkpt lat="48.10719" lon="-4.20893">
        <ele>95.307739257812</ele>
        <time>2015-10-01T12:27:34Z</time>
      </trkpt>
      <trkpt lat="48.10719" lon="-4.2088">
        <ele>96.749877929688</ele>
        <time>2015-10-01T12:27:41Z</time>
      </trkpt>
      <trkpt lat="48.10719" lon="-4.20874">
        <ele>97.23046875</ele>
        <time>2015-10-01T12:27:44Z</time>
      </trkpt>
      <trkpt lat="48.1072" lon="-4.20866">
        <ele>97.711181640625</ele>
        <time>2015-10-01T12:27:48Z</time>
      </trkpt>
      <trkpt lat="48.10719" lon="-4.20859">
        <ele>97.711181640625</ele>
        <time>2015-10-01T12:27:52Z</time>
      </trkpt>
      <trkpt lat="48.1072" lon="-4.20845">
        <ele>98.672485351562</ele>
        <time>2015-10-01T12:27:59Z</time>
      </trkpt>
      <trkpt lat="48.1072" lon="-4.20842">
        <ele>99.153076171875</ele>
        <time>2015-10-01T12:28:01Z</time>
      </trkpt>
      <trkpt lat="48.1072" lon="-4.20834">
        <ele>101.07568359375</ele>
        <time>2015-10-01T12:28:05Z</time>
      </trkpt>
      <trkpt lat="48.10719" lon="-4.20827">
        <ele>101.55639648438</ele>
        <time>2015-10-01T12:28:09Z</time>
      </trkpt>
      <trkpt lat="48.10719" lon="-4.20815">
        <ele>102.99829101562</ele>
        <time>2015-10-01T12:28:16Z</time>
      </trkpt>
      <trkpt lat="48.10717" lon="-4.208">
        <ele>103.95971679688</ele>
        <time>2015-10-01T12:28:24Z</time>
      </trkpt>
      <trkpt lat="48.10717" lon="-4.20794">
        <ele>104.4404296875</ele>
        <time>2015-10-01T12:28:27Z</time>
      </trkpt>
      <trkpt lat="48.10717" lon="-4.20784">
        <ele>104.4404296875</ele>
        <time>2015-10-01T12:28:33Z</time>
      </trkpt>
      <trkpt lat="48.10718" lon="-4.20773">
        <ele>102.99829101562</ele>
        <time>2015-10-01T12:28:39Z</time>
      </trkpt>
      <trkpt lat="48.10716" lon="-4.20767">
        <ele>103.47900390625</ele>
        <time>2015-10-01T12:28:43Z</time>
      </trkpt>
      <trkpt lat="48.10715" lon="-4.20755">
        <ele>103.95971679688</ele>
        <time>2015-10-01T12:28:50Z</time>
      </trkpt>
      <trkpt lat="48.10714" lon="-4.20743">
        <ele>103.95971679688</ele>
        <time>2015-10-01T12:28:57Z</time>
      </trkpt>
      <trkpt lat="48.10714" lon="-4.20732">
        <ele>105.40173339844</ele>
        <time>2015-10-01T12:29:04Z</time>
      </trkpt>
      <trkpt lat="48.10713" lon="-4.2072">
        <ele>104.92102050781</ele>
        <time>2015-10-01T12:29:11Z</time>
      </trkpt>
      <trkpt lat="48.10712" lon="-4.2071">
        <ele>105.40173339844</ele>
        <time>2015-10-01T12:29:17Z</time>
      </trkpt>
      <trkpt lat="48.1071" lon="-4.20696">
        <ele>106.36303710938</ele>
        <time>2015-10-01T12:29:25Z</time>
      </trkpt>
      <trkpt lat="48.10709" lon="-4.20683">
        <ele>107.32434082031</ele>
        <time>2015-10-01T12:29:32Z</time>
      </trkpt>
      <trkpt lat="48.10709" lon="-4.2067">
        <ele>108.76623535156</ele>
        <time>2015-10-01T12:29:39Z</time>
      </trkpt>
      <trkpt lat="48.10708" lon="-4.20657">
        <ele>111.16955566406</ele>
        <time>2015-10-01T12:29:46Z</time>
      </trkpt>
      <trkpt lat="48.10706" lon="-4.20641">
        <ele>112.13098144531</ele>
        <time>2015-10-01T12:29:54Z</time>
      </trkpt>
      <trkpt lat="48.10705" lon="-4.20626">
        <ele>113.57299804688</ele>
        <time>2015-10-01T12:30:02Z</time>
      </trkpt>
      <trkpt lat="48.10704" lon="-4.20612">
        <ele>114.05358886719</ele>
        <time>2015-10-01T12:30:10Z</time>
      </trkpt>
      <trkpt lat="48.10703" lon="-4.20598">
        <ele>114.5341796875</ele>
        <time>2015-10-01T12:30:18Z</time>
      </trkpt>
      <trkpt lat="48.10702" lon="-4.20585">
        <ele>113.57299804688</ele>
        <time>2015-10-01T12:30:25Z</time>
      </trkpt>
      <trkpt lat="48.10701" lon="-4.20574">
        <ele>113.57299804688</ele>
        <time>2015-10-01T12:30:31Z</time>
      </trkpt>
      <trkpt lat="48.10701" lon="-4.20562">
        <ele>113.57299804688</ele>
        <time>2015-10-01T12:30:38Z</time>
      </trkpt>
      <trkpt lat="48.107" lon="-4.20548">
        <ele>114.05358886719</ele>
        <time>2015-10-01T12:30:46Z</time>
      </trkpt>
      <trkpt lat="48.107" lon="-4.20534">
        <ele>114.05358886719</ele>
        <time>2015-10-01T12:30:54Z</time>
      </trkpt>
      <trkpt lat="48.10701" lon="-4.20522">
        <ele>114.5341796875</ele>
        <time>2015-10-01T12:31:02Z</time>
      </trkpt>
      <trkpt lat="48.10699" lon="-4.20507">
        <ele>115.49560546875</ele>
        <time>2015-10-01T12:31:11Z</time>
      </trkpt>
      <trkpt lat="48.10697" lon="-4.20494">
        <ele>115.01489257812</ele>
        <time>2015-10-01T12:31:18Z</time>
      </trkpt>
      <trkpt lat="48.10696" lon="-4.2048">
        <ele>115.97619628906</ele>
        <time>2015-10-01T12:31:25Z</time>
      </trkpt>
      <trkpt lat="48.10694" lon="-4.20464">
        <ele>115.97619628906</ele>
        <time>2015-10-01T12:31:33Z</time>
      </trkpt>
      <trkpt lat="48.10692" lon="-4.20454">
        <ele>115.49560546875</ele>
        <time>2015-10-01T12:31:39Z</time>
      </trkpt>
      <trkpt lat="48.1069" lon="-4.20442">
        <ele>113.57299804688</ele>
        <time>2015-10-01T12:31:46Z</time>
      </trkpt>
      <trkpt lat="48.1069" lon="-4.20429">
        <ele>114.5341796875</ele>
        <time>2015-10-01T12:31:53Z</time>
      </trkpt>
      <trkpt lat="48.10688" lon="-4.20415">
        <ele>115.49560546875</ele>
        <time>2015-10-01T12:32:01Z</time>
      </trkpt>
      <trkpt lat="48.10687" lon="-4.20401">
        <ele>115.97619628906</ele>
        <time>2015-10-01T12:32:09Z</time>
      </trkpt>
      <trkpt lat="48.10686" lon="-4.20389">
        <ele>115.97619628906</ele>
        <time>2015-10-01T12:32:16Z</time>
      </trkpt>
      <trkpt lat="48.10686" lon="-4.2038">
        <ele>115.49560546875</ele>
        <time>2015-10-01T12:32:21Z</time>
      </trkpt>
      <trkpt lat="48.10685" lon="-4.2037">
        <ele>115.49560546875</ele>
        <time>2015-10-01T12:32:27Z</time>
      </trkpt>
      <trkpt lat="48.10685" lon="-4.20363">
        <ele>116.45678710938</ele>
        <time>2015-10-01T12:32:32Z</time>
      </trkpt>
      <trkpt lat="48.10685" lon="-4.20359">
        <ele>116.45678710938</ele>
        <time>2015-10-01T12:32:34Z</time>
      </trkpt>
      <trkpt lat="48.10683" lon="-4.20351">
        <ele>118.37939453125</ele>
        <time>2015-10-01T12:32:42Z</time>
      </trkpt>
      <trkpt lat="48.10682" lon="-4.20347">
        <ele>120.78283691406</ele>
        <time>2015-10-01T12:32:54Z</time>
      </trkpt>
      <trkpt lat="48.1068" lon="-4.20345">
        <ele>120.30212402344</ele>
        <time>2015-10-01T12:32:59Z</time>
      </trkpt>
      <trkpt lat="48.10678" lon="-4.20334">
        <ele>121.744140625</ele>
        <time>2015-10-01T12:33:05Z</time>
      </trkpt>
      <trkpt lat="48.10676" lon="-4.20323">
        <ele>120.78283691406</ele>
        <time>2015-10-01T12:33:12Z</time>
      </trkpt>
      <trkpt lat="48.10674" lon="-4.20313">
        <ele>119.82141113281</ele>
        <time>2015-10-01T12:33:19Z</time>
      </trkpt>
      <trkpt lat="48.10672" lon="-4.20301">
        <ele>118.37939453125</ele>
        <time>2015-10-01T12:33:27Z</time>
      </trkpt>
      <trkpt lat="48.10671" lon="-4.20288">
        <ele>116.45678710938</ele>
        <time>2015-10-01T12:33:35Z</time>
      </trkpt>
      <trkpt lat="48.1067" lon="-4.20274">
        <ele>116.9375</ele>
        <time>2015-10-01T12:33:44Z</time>
      </trkpt>
      <trkpt lat="48.10667" lon="-4.20262">
        <ele>117.41821289062</ele>
        <time>2015-10-01T12:33:51Z</time>
      </trkpt>
      <trkpt lat="48.10666" lon="-4.20246">
        <ele>118.37939453125</ele>
        <time>2015-10-01T12:34:00Z</time>
      </trkpt>
      <trkpt lat="48.10666" lon="-4.20235">
        <ele>119.3408203125</ele>
        <time>2015-10-01T12:34:06Z</time>
      </trkpt>
      <trkpt lat="48.10666" lon="-4.20226">
        <ele>118.86010742188</ele>
        <time>2015-10-01T12:34:11Z</time>
      </trkpt>
      <trkpt lat="48.10665" lon="-4.20219">
        <ele>118.86010742188</ele>
        <time>2015-10-01T12:34:15Z</time>
      </trkpt>
      <trkpt lat="48.10666" lon="-4.20209">
        <ele>118.37939453125</ele>
        <time>2015-10-01T12:34:21Z</time>
      </trkpt>
      <trkpt lat="48.10665" lon="-4.20193">
        <ele>119.3408203125</ele>
        <time>2015-10-01T12:34:29Z</time>
      </trkpt>
      <trkpt lat="48.10663" lon="-4.2018">
        <ele>120.78283691406</ele>
        <time>2015-10-01T12:34:36Z</time>
      </trkpt>
      <trkpt lat="48.10663" lon="-4.20178">
        <ele>120.78283691406</ele>
        <time>2015-10-01T12:34:37Z</time>
      </trkpt>
      <trkpt lat="48.10662" lon="-4.20168">
        <ele>122.22473144531</ele>
        <time>2015-10-01T12:34:43Z</time>
      </trkpt>
      <trkpt lat="48.10662" lon="-4.20158">
        <ele>123.18615722656</ele>
        <time>2015-10-01T12:34:48Z</time>
      </trkpt>
      <trkpt lat="48.10661" lon="-4.20153">
        <ele>123.66674804688</ele>
        <time>2015-10-01T12:34:51Z</time>
      </trkpt>
      <trkpt lat="48.10661" lon="-4.20138">
        <ele>123.66674804688</ele>
        <time>2015-10-01T12:34:59Z</time>
      </trkpt>
      <trkpt lat="48.10661" lon="-4.20137">
        <ele>123.18615722656</ele>
        <time>2015-10-01T12:35:00Z</time>
      </trkpt>
      <trkpt lat="48.10661" lon="-4.20128">
        <ele>123.18615722656</ele>
        <time>2015-10-01T12:35:05Z</time>
      </trkpt>
      <trkpt lat="48.1066" lon="-4.2012">
        <ele>122.70544433594</ele>
        <time>2015-10-01T12:35:10Z</time>
      </trkpt>
      <trkpt lat="48.10659" lon="-4.20106">
        <ele>124.14733886719</ele>
        <time>2015-10-01T12:35:18Z</time>
      </trkpt>
      <trkpt lat="48.10659" lon="-4.20104">
        <ele>124.14733886719</ele>
        <time>2015-10-01T12:35:19Z</time>
      </trkpt>
      <trkpt lat="48.10656" lon="-4.20096">
        <ele>124.62805175781</ele>
        <time>2015-10-01T12:35:23Z</time>
      </trkpt>
      <trkpt lat="48.10659" lon="-4.20081">
        <ele>125.58935546875</ele>
        <time>2015-10-01T12:35:31Z</time>
      </trkpt>
      <trkpt lat="48.1066" lon="-4.20078">
        <ele>124.62805175781</ele>
        <time>2015-10-01T12:35:33Z</time>
      </trkpt>
      <trkpt lat="48.1066" lon="-4.20067">
        <ele>125.58935546875</ele>
        <time>2015-10-01T12:35:39Z</time>
      </trkpt>
      <trkpt lat="48.10659" lon="-4.20055">
        <ele>125.10876464844</ele>
        <time>2015-10-01T12:35:46Z</time>
      </trkpt>
      <trkpt lat="48.10658" lon="-4.20042">
        <ele>126.55065917969</ele>
        <time>2015-10-01T12:35:53Z</time>
      </trkpt>
      <trkpt lat="48.10657" lon="-4.20036">
        <ele>126.06994628906</ele>
        <time>2015-10-01T12:35:57Z</time>
      </trkpt>
      <trkpt lat="48.10657" lon="-4.20024">
        <ele>126.06994628906</ele>
        <time>2015-10-01T12:36:04Z</time>
      </trkpt>
      <trkpt lat="48.10656" lon="-4.20012">
        <ele>125.58935546875</ele>
        <time>2015-10-01T12:36:11Z</time>
      </trkpt>
      <trkpt lat="48.10656" lon="-4.20009">
        <ele>126.06994628906</ele>
        <time>2015-10-01T12:36:13Z</time>
      </trkpt>
      <trkpt lat="48.10654" lon="-4.19993">
        <ele>126.06994628906</ele>
        <time>2015-10-01T12:36:21Z</time>
      </trkpt>
      <trkpt lat="48.10653" lon="-4.19982">
        <ele>125.58935546875</ele>
        <time>2015-10-01T12:36:28Z</time>
      </trkpt>
      <trkpt lat="48.10653" lon="-4.1998">
        <ele>125.10876464844</ele>
        <time>2015-10-01T12:36:29Z</time>
      </trkpt>
      <trkpt lat="48.1065" lon="-4.19966">
        <ele>127.99255371094</ele>
        <time>2015-10-01T12:36:36Z</time>
      </trkpt>
      <trkpt lat="48.10648" lon="-4.19957">
        <ele>127.99255371094</ele>
        <time>2015-10-01T12:36:41Z</time>
      </trkpt>
      <trkpt lat="48.10648" lon="-4.19956">
        <ele>128.47338867188</ele>
        <time>2015-10-01T12:36:42Z</time>
      </trkpt>
      <trkpt lat="48.10647" lon="-4.19953">
        <ele>126.55065917969</ele>
        <time>2015-10-01T12:36:49Z</time>
      </trkpt>
      <trkpt lat="48.10648" lon="-4.19948">
        <ele>124.62805175781</ele>
        <time>2015-10-01T12:36:57Z</time>
      </trkpt>
      <trkpt lat="48.10646" lon="-4.1994">
        <ele>123.66674804688</ele>
        <time>2015-10-01T12:37:01Z</time>
      </trkpt>
      <trkpt lat="48.10646" lon="-4.19934">
        <ele>123.18615722656</ele>
        <time>2015-10-01T12:37:05Z</time>
      </trkpt>
      <trkpt lat="48.10643" lon="-4.19922">
        <ele>125.10876464844</ele>
        <time>2015-10-01T12:37:11Z</time>
      </trkpt>
      <trkpt lat="48.10642" lon="-4.19919">
        <ele>125.10876464844</ele>
        <time>2015-10-01T12:37:13Z</time>
      </trkpt>
      <trkpt lat="48.10642" lon="-4.19912">
        <ele>124.62805175781</ele>
        <time>2015-10-01T12:37:18Z</time>
      </trkpt>
      <trkpt lat="48.10638" lon="-4.19901">
        <ele>128.47338867188</ele>
        <time>2015-10-01T12:37:24Z</time>
      </trkpt>
      <trkpt lat="48.10636" lon="-4.19891">
        <ele>129.91528320312</ele>
        <time>2015-10-01T12:37:30Z</time>
      </trkpt>
      <trkpt lat="48.10633" lon="-4.1988">
        <ele>131.837890625</ele>
        <time>2015-10-01T12:37:37Z</time>
      </trkpt>
      <trkpt lat="48.1063" lon="-4.19866">
        <ele>131.837890625</ele>
        <time>2015-10-01T12:37:44Z</time>
      </trkpt>
      <trkpt lat="48.10628" lon="-4.19855">
        <ele>131.837890625</ele>
        <time>2015-10-01T12:37:50Z</time>
      </trkpt>
      <trkpt lat="48.10626" lon="-4.19845">
        <ele>131.837890625</ele>
        <time>2015-10-01T12:37:54Z</time>
      </trkpt>
      <trkpt lat="48.10625" lon="-4.1984">
        <ele>131.837890625</ele>
        <time>2015-10-01T12:37:57Z</time>
      </trkpt>
      <trkpt lat="48.10623" lon="-4.19829">
        <ele>131.837890625</ele>
        <time>2015-10-01T12:38:03Z</time>
      </trkpt>
      <trkpt lat="48.10617" lon="-4.19822">
        <ele>132.79931640625</ele>
        <time>2015-10-01T12:38:09Z</time>
      </trkpt>
      <trkpt lat="48.10612" lon="-4.19815">
        <ele>134.2412109375</ele>
        <time>2015-10-01T12:38:14Z</time>
      </trkpt>
      <trkpt lat="48.10604" lon="-4.19812">
        <ele>134.72192382812</ele>
        <time>2015-10-01T12:38:20Z</time>
      </trkpt>
      <trkpt lat="48.10601" lon="-4.19811">
        <ele>134.72192382812</ele>
        <time>2015-10-01T12:38:23Z</time>
      </trkpt>
      <trkpt lat="48.10591" lon="-4.19808">
        <ele>134.72192382812</ele>
        <time>2015-10-01T12:38:31Z</time>
      </trkpt>
      <trkpt lat="48.10583" lon="-4.19806">
        <ele>133.27990722656</ele>
        <time>2015-10-01T12:38:38Z</time>
      </trkpt>
      <trkpt lat="48.10582" lon="-4.19806">
        <ele>133.27990722656</ele>
        <time>2015-10-01T12:38:39Z</time>
      </trkpt>
      <trkpt lat="48.10576" lon="-4.19803">
        <ele>133.27990722656</ele>
        <time>2015-10-01T12:38:44Z</time>
      </trkpt>
      <trkpt lat="48.10571" lon="-4.19802">
        <ele>133.76049804688</ele>
        <time>2015-10-01T12:38:48Z</time>
      </trkpt>
      <trkpt lat="48.10565" lon="-4.19799">
        <ele>132.79931640625</ele>
        <time>2015-10-01T12:38:53Z</time>
      </trkpt>
      <trkpt lat="48.10556" lon="-4.19796">
        <ele>130.39599609375</ele>
        <time>2015-10-01T12:39:00Z</time>
      </trkpt>
      <trkpt lat="48.10551" lon="-4.19796">
        <ele>130.39599609375</ele>
        <time>2015-10-01T12:39:04Z</time>
      </trkpt>
      <trkpt lat="48.10543" lon="-4.19793">
        <ele>130.39599609375</ele>
        <time>2015-10-01T12:39:11Z</time>
      </trkpt>
      <trkpt lat="48.10541" lon="-4.19792">
        <ele>131.35729980469</ele>
        <time>2015-10-01T12:39:13Z</time>
      </trkpt>
      <trkpt lat="48.10535" lon="-4.19791">
        <ele>132.31860351562</ele>
        <time>2015-10-01T12:39:18Z</time>
      </trkpt>
      <trkpt lat="48.10529" lon="-4.19788">
        <ele>131.35729980469</ele>
        <time>2015-10-01T12:39:24Z</time>
      </trkpt>
      <trkpt lat="48.10521" lon="-4.19784">
        <ele>132.31860351562</ele>
        <time>2015-10-01T12:39:30Z</time>
      </trkpt>
      <trkpt lat="48.10518" lon="-4.1978">
        <ele>133.27990722656</ele>
        <time>2015-10-01T12:39:33Z</time>
      </trkpt>
      <trkpt lat="48.10514" lon="-4.19771">
        <ele>134.72192382812</ele>
        <time>2015-10-01T12:39:38Z</time>
      </trkpt>
      <trkpt lat="48.10514" lon="-4.19756">
        <ele>133.27990722656</ele>
        <time>2015-10-01T12:39:46Z</time>
      </trkpt>
      <trkpt lat="48.10514" lon="-4.19748">
        <ele>131.837890625</ele>
        <time>2015-10-01T12:39:50Z</time>
      </trkpt>
      <trkpt lat="48.10517" lon="-4.19738">
        <ele>130.39599609375</ele>
        <time>2015-10-01T12:39:57Z</time>
      </trkpt>
      <trkpt lat="48.1052" lon="-4.19728">
        <ele>130.87670898438</ele>
        <time>2015-10-01T12:40:03Z</time>
      </trkpt>
      <trkpt lat="48.10521" lon="-4.19716">
        <ele>130.87670898438</ele>
        <time>2015-10-01T12:40:09Z</time>
      </trkpt>
      <trkpt lat="48.10522" lon="-4.19712">
        <ele>131.837890625</ele>
        <time>2015-10-01T12:40:11Z</time>
      </trkpt>
      <trkpt lat="48.10525" lon="-4.197">
        <ele>133.27990722656</ele>
        <time>2015-10-01T12:40:17Z</time>
      </trkpt>
      <trkpt lat="48.10527" lon="-4.19695">
        <ele>132.31860351562</ele>
        <time>2015-10-01T12:40:20Z</time>
      </trkpt>
      <trkpt lat="48.1053" lon="-4.19685">
        <ele>132.79931640625</ele>
        <time>2015-10-01T12:40:26Z</time>
      </trkpt>
      <trkpt lat="48.10531" lon="-4.19683">
        <ele>132.79931640625</ele>
        <time>2015-10-01T12:40:27Z</time>
      </trkpt>
      <trkpt lat="48.10532" lon="-4.19673">
        <ele>133.27990722656</ele>
        <time>2015-10-01T12:40:33Z</time>
      </trkpt>
      <trkpt lat="48.10534" lon="-4.19662">
        <ele>132.79931640625</ele>
        <time>2015-10-01T12:40:39Z</time>
      </trkpt>
      <trkpt lat="48.10535" lon="-4.1966">
        <ele>132.79931640625</ele>
        <time>2015-10-01T12:40:40Z</time>
      </trkpt>
      <trkpt lat="48.10535" lon="-4.19658">
        <ele>131.837890625</ele>
        <time>2015-10-01T12:40:42Z</time>
      </trkpt>
      <trkpt lat="48.10537" lon="-4.19645">
        <ele>131.35729980469</ele>
        <time>2015-10-01T12:40:49Z</time>
      </trkpt>
      <trkpt lat="48.10538" lon="-4.19641">
        <ele>130.87670898438</ele>
        <time>2015-10-01T12:40:51Z</time>
      </trkpt>
      <trkpt lat="48.10537" lon="-4.19633">
        <ele>129.91528320312</ele>
        <time>2015-10-01T12:40:55Z</time>
      </trkpt>
      <trkpt lat="48.10539" lon="-4.19622">
        <ele>128.9541015625</ele>
        <time>2015-10-01T12:41:02Z</time>
      </trkpt>
      <trkpt lat="48.10541" lon="-4.19613">
        <ele>130.87670898438</ele>
        <time>2015-10-01T12:41:08Z</time>
      </trkpt>
      <trkpt lat="48.10543" lon="-4.19599">
        <ele>127.99255371094</ele>
        <time>2015-10-01T12:41:15Z</time>
      </trkpt>
      <trkpt lat="48.10546" lon="-4.19587">
        <ele>127.03137207031</ele>
        <time>2015-10-01T12:41:21Z</time>
      </trkpt>
      <trkpt lat="48.10547" lon="-4.19584">
        <ele>126.55065917969</ele>
        <time>2015-10-01T12:41:23Z</time>
      </trkpt>
      <trkpt lat="48.10549" lon="-4.19571">
        <ele>125.58935546875</ele>
        <time>2015-10-01T12:41:30Z</time>
      </trkpt>
      <trkpt lat="48.10552" lon="-4.19563">
        <ele>124.62805175781</ele>
        <time>2015-10-01T12:41:35Z</time>
      </trkpt>
      <trkpt lat="48.10554" lon="-4.19557">
        <ele>124.62805175781</ele>
        <time>2015-10-01T12:41:38Z</time>
      </trkpt>
      <trkpt lat="48.10556" lon="-4.19544">
        <ele>123.66674804688</ele>
        <time>2015-10-01T12:41:45Z</time>
      </trkpt>
      <trkpt lat="48.10556" lon="-4.19534">
        <ele>123.66674804688</ele>
        <time>2015-10-01T12:41:51Z</time>
      </trkpt>
      <trkpt lat="48.1056" lon="-4.1952">
        <ele>122.70544433594</ele>
        <time>2015-10-01T12:41:59Z</time>
      </trkpt>
      <trkpt lat="48.10561" lon="-4.19507">
        <ele>123.18615722656</ele>
        <time>2015-10-01T12:42:06Z</time>
      </trkpt>
      <trkpt lat="48.10561" lon="-4.19503">
        <ele>123.66674804688</ele>
        <time>2015-10-01T12:42:08Z</time>
      </trkpt>
      <trkpt lat="48.10564" lon="-4.19497">
        <ele>126.55065917969</ele>
        <time>2015-10-01T12:42:11Z</time>
      </trkpt>
      <trkpt lat="48.10567" lon="-4.19487">
        <ele>127.51196289062</ele>
        <time>2015-10-01T12:42:16Z</time>
      </trkpt>
      <trkpt lat="48.10568" lon="-4.19481">
        <ele>127.51196289062</ele>
        <time>2015-10-01T12:42:20Z</time>
      </trkpt>
      <trkpt lat="48.1057" lon="-4.19469">
        <ele>128.47338867188</ele>
        <time>2015-10-01T12:42:27Z</time>
      </trkpt>
      <trkpt lat="48.10572" lon="-4.1946">
        <ele>128.9541015625</ele>
        <time>2015-10-01T12:42:32Z</time>
      </trkpt>
      <trkpt lat="48.10574" lon="-4.19451">
        <ele>129.43469238281</ele>
        <time>2015-10-01T12:42:36Z</time>
      </trkpt>
      <trkpt lat="48.10576" lon="-4.19444">
        <ele>129.43469238281</ele>
        <time>2015-10-01T12:42:41Z</time>
      </trkpt>
      <trkpt lat="48.10577" lon="-4.19439">
        <ele>130.39599609375</ele>
        <time>2015-10-01T12:42:44Z</time>
      </trkpt>
      <trkpt lat="48.10579" lon="-4.19436">
        <ele>130.39599609375</ele>
        <time>2015-10-01T12:42:47Z</time>
      </trkpt>
      <trkpt lat="48.10586" lon="-4.1943">
        <ele>130.39599609375</ele>
        <time>2015-10-01T12:42:54Z</time>
      </trkpt>
      <trkpt lat="48.10595" lon="-4.19428">
        <ele>129.91528320312</ele>
        <time>2015-10-01T12:43:02Z</time>
      </trkpt>
      <trkpt lat="48.10603" lon="-4.19425">
        <ele>128.47338867188</ele>
        <time>2015-10-01T12:43:10Z</time>
      </trkpt>
      <trkpt lat="48.1061" lon="-4.19423">
        <ele>127.51196289062</ele>
        <time>2015-10-01T12:43:16Z</time>
      </trkpt>
      <trkpt lat="48.1061" lon="-4.19422">
        <ele>127.51196289062</ele>
        <time>2015-10-01T12:43:17Z</time>
      </trkpt>
      <trkpt lat="48.10611" lon="-4.19418">
        <ele>127.03137207031</ele>
        <time>2015-10-01T12:43:19Z</time>
      </trkpt>
      <trkpt lat="48.10614" lon="-4.19408">
        <ele>127.51196289062</ele>
        <time>2015-10-01T12:43:25Z</time>
      </trkpt>
      <trkpt lat="48.10617" lon="-4.19398">
        <ele>127.99255371094</ele>
        <time>2015-10-01T12:43:31Z</time>
      </trkpt>
      <trkpt lat="48.10623" lon="-4.19389">
        <ele>128.9541015625</ele>
        <time>2015-10-01T12:43:37Z</time>
      </trkpt>
      <trkpt lat="48.10627" lon="-4.19382">
        <ele>130.39599609375</ele>
        <time>2015-10-01T12:43:43Z</time>
      </trkpt>
      <trkpt lat="48.10629" lon="-4.19381">
        <ele>130.87670898438</ele>
        <time>2015-10-01T12:43:44Z</time>
      </trkpt>
      <trkpt lat="48.10629" lon="-4.19378">
        <ele>132.31860351562</ele>
        <time>2015-10-01T12:43:49Z</time>
      </trkpt>
      <trkpt lat="48.10629" lon="-4.19376">
        <ele>134.2412109375</ele>
        <time>2015-10-01T12:43:59Z</time>
      </trkpt>
      <trkpt lat="48.10631" lon="-4.19367">
        <ele>132.31860351562</ele>
        <time>2015-10-01T12:44:06Z</time>
      </trkpt>
      <trkpt lat="48.10634" lon="-4.19358">
        <ele>128.9541015625</ele>
        <time>2015-10-01T12:44:12Z</time>
      </trkpt>
      <trkpt lat="48.10634" lon="-4.19356">
        <ele>128.47338867188</ele>
        <time>2015-10-01T12:44:13Z</time>
      </trkpt>
      <trkpt lat="48.10636" lon="-4.19354">
        <ele>127.51196289062</ele>
        <time>2015-10-01T12:44:16Z</time>
      </trkpt>
      <trkpt lat="48.10641" lon="-4.19343">
        <ele>124.62805175781</ele>
        <time>2015-10-01T12:44:25Z</time>
      </trkpt>
      <trkpt lat="48.10644" lon="-4.19336">
        <ele>122.22473144531</ele>
        <time>2015-10-01T12:44:30Z</time>
      </trkpt>
      <trkpt lat="48.10645" lon="-4.19329">
        <ele>120.30212402344</ele>
        <time>2015-10-01T12:44:36Z</time>
      </trkpt>
      <trkpt lat="48.10649" lon="-4.19321">
        <ele>121.26354980469</ele>
        <time>2015-10-01T12:44:42Z</time>
      </trkpt>
      <trkpt lat="48.10655" lon="-4.1931">
        <ele>122.70544433594</ele>
        <time>2015-10-01T12:44:48Z</time>
      </trkpt>
      <trkpt lat="48.10655" lon="-4.19306">
        <ele>123.18615722656</ele>
        <time>2015-10-01T12:44:51Z</time>
      </trkpt>
      <trkpt lat="48.10658" lon="-4.19295">
        <ele>121.26354980469</ele>
        <time>2015-10-01T12:44:58Z</time>
      </trkpt>
      <trkpt lat="48.10659" lon="-4.19291">
        <ele>121.26354980469</ele>
        <time>2015-10-01T12:45:01Z</time>
      </trkpt>
      <trkpt lat="48.10661" lon="-4.19287">
        <ele>120.78283691406</ele>
        <time>2015-10-01T12:45:04Z</time>
      </trkpt>
      <trkpt lat="48.10665" lon="-4.19277">
        <ele>117.41821289062</ele>
        <time>2015-10-01T12:45:12Z</time>
      </trkpt>
      <trkpt lat="48.10669" lon="-4.19269">
        <ele>118.37939453125</ele>
        <time>2015-10-01T12:45:18Z</time>
      </trkpt>
      <trkpt lat="48.1067" lon="-4.19268">
        <ele>117.89880371094</ele>
        <time>2015-10-01T12:45:19Z</time>
      </trkpt>
      <trkpt lat="48.10672" lon="-4.19262">
        <ele>117.41821289062</ele>
        <time>2015-10-01T12:45:24Z</time>
      </trkpt>
      <trkpt lat="48.10678" lon="-4.19256">
        <ele>118.86010742188</ele>
        <time>2015-10-01T12:45:29Z</time>
      </trkpt>
      <trkpt lat="48.10682" lon="-4.19252">
        <ele>117.89880371094</ele>
        <time>2015-10-01T12:45:34Z</time>
      </trkpt>
      <trkpt lat="48.10688" lon="-4.19248">
        <ele>116.9375</ele>
        <time>2015-10-01T12:45:40Z</time>
      </trkpt>
      <trkpt lat="48.10688" lon="-4.19247">
        <ele>116.45678710938</ele>
        <time>2015-10-01T12:45:41Z</time>
      </trkpt>
      <trkpt lat="48.10692" lon="-4.19242">
        <ele>115.97619628906</ele>
        <time>2015-10-01T12:45:46Z</time>
      </trkpt>
      <trkpt lat="48.10697" lon="-4.1924">
        <ele>117.41821289062</ele>
        <time>2015-10-01T12:45:51Z</time>
      </trkpt>
      <trkpt lat="48.10699" lon="-4.1924">
        <ele>117.89880371094</ele>
        <time>2015-10-01T12:45:53Z</time>
      </trkpt>
      <trkpt lat="48.10702" lon="-4.19238">
        <ele>117.89880371094</ele>
        <time>2015-10-01T12:45:59Z</time>
      </trkpt>
      <trkpt lat="48.10704" lon="-4.19234">
        <ele>115.01489257812</ele>
        <time>2015-10-01T12:46:04Z</time>
      </trkpt>
      <trkpt lat="48.10706" lon="-4.19231">
        <ele>112.13098144531</ele>
        <time>2015-10-01T12:46:06Z</time>
      </trkpt>
      <trkpt lat="48.10714" lon="-4.19222">
        <ele>107.80505371094</ele>
        <time>2015-10-01T12:46:13Z</time>
      </trkpt>
      <trkpt lat="48.10717" lon="-4.19219">
        <ele>103.95971679688</ele>
        <time>2015-10-01T12:46:17Z</time>
      </trkpt>
      <trkpt lat="48.10719" lon="-4.19219">
        <ele>102.51770019531</ele>
        <time>2015-10-01T12:46:19Z</time>
      </trkpt>
      <trkpt lat="48.10724" lon="-4.19219">
        <ele>99.6337890625</ele>
        <time>2015-10-01T12:46:24Z</time>
      </trkpt>
      <trkpt lat="48.1073" lon="-4.19218">
        <ele>95.307739257812</ele>
        <time>2015-10-01T12:46:32Z</time>
      </trkpt>
      <trkpt lat="48.10737" lon="-4.19218">
        <ele>95.307739257812</ele>
        <time>2015-10-01T12:46:39Z</time>
      </trkpt>
      <trkpt lat="48.10742" lon="-4.19219">
        <ele>97.23046875</ele>
        <time>2015-10-01T12:46:43Z</time>
      </trkpt>
      <trkpt lat="48.1075" lon="-4.19215">
        <ele>98.19189453125</ele>
        <time>2015-10-01T12:46:49Z</time>
      </trkpt>
      <trkpt lat="48.10753" lon="-4.19211">
        <ele>98.19189453125</ele>
        <time>2015-10-01T12:46:53Z</time>
      </trkpt>
      <trkpt lat="48.1076" lon="-4.19204">
        <ele>100.11450195312</ele>
        <time>2015-10-01T12:46:59Z</time>
      </trkpt>
      <trkpt lat="48.10764" lon="-4.19199">
        <ele>99.6337890625</ele>
        <time>2015-10-01T12:47:05Z</time>
      </trkpt>
      <trkpt lat="48.10769" lon="-4.19195">
        <ele>98.19189453125</ele>
        <time>2015-10-01T12:47:11Z</time>
      </trkpt>
      <trkpt lat="48.10776" lon="-4.19193">
        <ele>101.55639648438</ele>
        <time>2015-10-01T12:47:16Z</time>
      </trkpt>
      <trkpt lat="48.1078" lon="-4.19193">
        <ele>101.55639648438</ele>
        <time>2015-10-01T12:47:20Z</time>
      </trkpt>
      <trkpt lat="48.1079" lon="-4.19196">
        <ele>103.95971679688</ele>
        <time>2015-10-01T12:47:27Z</time>
      </trkpt>
      <trkpt lat="48.10797" lon="-4.192">
        <ele>103.95971679688</ele>
        <time>2015-10-01T12:47:33Z</time>
      </trkpt>
      <trkpt lat="48.10805" lon="-4.19196">
        <ele>103.47900390625</ele>
        <time>2015-10-01T12:47:40Z</time>
      </trkpt>
      <trkpt lat="48.10807" lon="-4.19191">
        <ele>103.47900390625</ele>
        <time>2015-10-01T12:47:43Z</time>
      </trkpt>
      <trkpt lat="48.10807" lon="-4.19188">
        <ele>103.47900390625</ele>
        <time>2015-10-01T12:47:45Z</time>
      </trkpt>
      <trkpt lat="48.10807" lon="-4.19181">
        <ele>103.95971679688</ele>
        <time>2015-10-01T12:47:49Z</time>
      </trkpt>
      <trkpt lat="48.10808" lon="-4.19167">
        <ele>103.47900390625</ele>
        <time>2015-10-01T12:47:57Z</time>
      </trkpt>
      <trkpt lat="48.10809" lon="-4.19158">
        <ele>102.037109375</ele>
        <time>2015-10-01T12:48:02Z</time>
      </trkpt>
      <trkpt lat="48.10812" lon="-4.19154">
        <ele>100.11450195312</ele>
        <time>2015-10-01T12:48:05Z</time>
      </trkpt>
      <trkpt lat="48.10816" lon="-4.19147">
        <ele>99.153076171875</ele>
        <time>2015-10-01T12:48:10Z</time>
      </trkpt>
      <trkpt lat="48.1082" lon="-4.19141">
        <ele>98.19189453125</ele>
        <time>2015-10-01T12:48:15Z</time>
      </trkpt>
      <trkpt lat="48.1083" lon="-4.19134">
        <ele>98.19189453125</ele>
        <time>2015-10-01T12:48:24Z</time>
      </trkpt>
      <trkpt lat="48.10843" lon="-4.19131">
        <ele>100.59509277344</ele>
        <time>2015-10-01T12:48:33Z</time>
      </trkpt>
      <trkpt lat="48.10853" lon="-4.1913">
        <ele>99.6337890625</ele>
        <time>2015-10-01T12:48:42Z</time>
      </trkpt>
      <trkpt lat="48.10864" lon="-4.19129">
        <ele>100.11450195312</ele>
        <time>2015-10-01T12:48:51Z</time>
      </trkpt>
      <trkpt lat="48.10873" lon="-4.1913">
        <ele>98.672485351562</ele>
        <time>2015-10-01T12:48:59Z</time>
      </trkpt>
      <trkpt lat="48.10878" lon="-4.1913">
        <ele>96.269287109375</ele>
        <time>2015-10-01T12:49:05Z</time>
      </trkpt>
      <trkpt lat="48.10885" lon="-4.19131">
        <ele>95.307739257812</ele>
        <time>2015-10-01T12:49:12Z</time>
      </trkpt>
      <trkpt lat="48.10897" lon="-4.19129">
        <ele>95.788452148438</ele>
        <time>2015-10-01T12:49:21Z</time>
      </trkpt>
      <trkpt lat="48.10905" lon="-4.19118">
        <ele>99.6337890625</ele>
        <time>2015-10-01T12:49:29Z</time>
      </trkpt>
      <trkpt lat="48.10908" lon="-4.19108">
        <ele>104.4404296875</ele>
        <time>2015-10-01T12:49:35Z</time>
      </trkpt>
      <trkpt lat="48.1091" lon="-4.19095">
        <ele>106.84362792969</ele>
        <time>2015-10-01T12:49:42Z</time>
      </trkpt>
      <trkpt lat="48.10911" lon="-4.1908">
        <ele>108.76623535156</ele>
        <time>2015-10-01T12:49:50Z</time>
      </trkpt>
      <trkpt lat="48.1091" lon="-4.19069">
        <ele>108.76623535156</ele>
        <time>2015-10-01T12:49:56Z</time>
      </trkpt>
      <trkpt lat="48.1091" lon="-4.19058">
        <ele>109.24694824219</ele>
        <time>2015-10-01T12:50:02Z</time>
      </trkpt>
      <trkpt lat="48.10911" lon="-4.19047">
        <ele>110.20825195312</ele>
        <time>2015-10-01T12:50:08Z</time>
      </trkpt>
      <trkpt lat="48.10912" lon="-4.19033">
        <ele>111.16955566406</ele>
        <time>2015-10-01T12:50:15Z</time>
      </trkpt>
      <trkpt lat="48.10913" lon="-4.19022">
        <ele>112.61157226562</ele>
        <time>2015-10-01T12:50:21Z</time>
      </trkpt>
      <trkpt lat="48.10913" lon="-4.19006">
        <ele>113.57299804688</ele>
        <time>2015-10-01T12:50:30Z</time>
      </trkpt>
      <trkpt lat="48.10914" lon="-4.19">
        <ele>114.05358886719</ele>
        <time>2015-10-01T12:50:33Z</time>
      </trkpt>
      <trkpt lat="48.10915" lon="-4.18991">
        <ele>114.5341796875</ele>
        <time>2015-10-01T12:50:39Z</time>
      </trkpt>
      <trkpt lat="48.10915" lon="-4.1899">
        <ele>114.5341796875</ele>
        <time>2015-10-01T12:50:40Z</time>
      </trkpt>
      <trkpt lat="48.10915" lon="-4.18975">
        <ele>115.97619628906</ele>
        <time>2015-10-01T12:50:48Z</time>
      </trkpt>
      <trkpt lat="48.10916" lon="-4.18961">
        <ele>116.9375</ele>
        <time>2015-10-01T12:50:55Z</time>
      </trkpt>
      <trkpt lat="48.10917" lon="-4.18945">
        <ele>117.41821289062</ele>
        <time>2015-10-01T12:51:03Z</time>
      </trkpt>
      <trkpt lat="48.10918" lon="-4.1893">
        <ele>117.89880371094</ele>
        <time>2015-10-01T12:51:11Z</time>
      </trkpt>
      <trkpt lat="48.10919" lon="-4.18916">
        <ele>118.37939453125</ele>
        <time>2015-10-01T12:51:18Z</time>
      </trkpt>
      <trkpt lat="48.10919" lon="-4.189">
        <ele>118.86010742188</ele>
        <time>2015-10-01T12:51:26Z</time>
      </trkpt>
      <trkpt lat="48.1092" lon="-4.18885">
        <ele>119.3408203125</ele>
        <time>2015-10-01T12:51:34Z</time>
      </trkpt>
      <trkpt lat="48.10922" lon="-4.1887">
        <ele>119.82141113281</ele>
        <time>2015-10-01T12:51:42Z</time>
      </trkpt>
      <trkpt lat="48.10926" lon="-4.18861">
        <ele>119.82141113281</ele>
        <time>2015-10-01T12:51:49Z</time>
      </trkpt>
      <trkpt lat="48.10932" lon="-4.18858">
        <ele>119.3408203125</ele>
        <time>2015-10-01T12:51:54Z</time>
      </trkpt>
      <trkpt lat="48.10936" lon="-4.18857">
        <ele>119.3408203125</ele>
        <time>2015-10-01T12:51:58Z</time>
      </trkpt>
      <trkpt lat="48.10944" lon="-4.18856">
        <ele>118.86010742188</ele>
        <time>2015-10-01T12:52:05Z</time>
      </trkpt>
      <trkpt lat="48.10952" lon="-4.18854">
        <ele>119.3408203125</ele>
        <time>2015-10-01T12:52:12Z</time>
      </trkpt>
      <trkpt lat="48.1096" lon="-4.18852">
        <ele>118.86010742188</ele>
        <time>2015-10-01T12:52:19Z</time>
      </trkpt>
      <trkpt lat="48.10968" lon="-4.1885">
        <ele>119.82141113281</ele>
        <time>2015-10-01T12:52:26Z</time>
      </trkpt>
      <trkpt lat="48.10976" lon="-4.18848">
        <ele>119.3408203125</ele>
        <time>2015-10-01T12:52:33Z</time>
      </trkpt>
      <trkpt lat="48.10984" lon="-4.18845">
        <ele>119.3408203125</ele>
        <time>2015-10-01T12:52:40Z</time>
      </trkpt>
      <trkpt lat="48.10993" lon="-4.18842">
        <ele>118.86010742188</ele>
        <time>2015-10-01T12:52:47Z</time>
      </trkpt>
      <trkpt lat="48.11001" lon="-4.1884">
        <ele>118.86010742188</ele>
        <time>2015-10-01T12:52:54Z</time>
      </trkpt>
      <trkpt lat="48.11009" lon="-4.18838">
        <ele>118.86010742188</ele>
        <time>2015-10-01T12:53:02Z</time>
      </trkpt>
      <trkpt lat="48.11017" lon="-4.18835">
        <ele>118.37939453125</ele>
        <time>2015-10-01T12:53:09Z</time>
      </trkpt>
      <trkpt lat="48.11021" lon="-4.18834">
        <ele>120.30212402344</ele>
        <time>2015-10-01T12:53:18Z</time>
      </trkpt>
      <trkpt lat="48.11022" lon="-4.18834">
        <ele>120.30212402344</ele>
        <time>2015-10-01T12:53:20Z</time>
      </trkpt>
      <trkpt lat="48.11031" lon="-4.18835">
        <ele>120.30212402344</ele>
        <time>2015-10-01T12:53:28Z</time>
      </trkpt>
      <trkpt lat="48.11037" lon="-4.18834">
        <ele>121.26354980469</ele>
        <time>2015-10-01T12:53:33Z</time>
      </trkpt>
      <trkpt lat="48.11047" lon="-4.18831">
        <ele>121.744140625</ele>
        <time>2015-10-01T12:53:42Z</time>
      </trkpt>
      <trkpt lat="48.11055" lon="-4.18829">
        <ele>122.22473144531</ele>
        <time>2015-10-01T12:53:49Z</time>
      </trkpt>
      <trkpt lat="48.11064" lon="-4.18827">
        <ele>122.22473144531</ele>
        <time>2015-10-01T12:53:56Z</time>
      </trkpt>
      <trkpt lat="48.11072" lon="-4.18825">
        <ele>122.70544433594</ele>
        <time>2015-10-01T12:54:03Z</time>
      </trkpt>
      <trkpt lat="48.11081" lon="-4.18823">
        <ele>122.70544433594</ele>
        <time>2015-10-01T12:54:10Z</time>
      </trkpt>
      <trkpt lat="48.11087" lon="-4.18822">
        <ele>123.18615722656</ele>
        <time>2015-10-01T12:54:15Z</time>
      </trkpt>
      <trkpt lat="48.11095" lon="-4.18821">
        <ele>124.14733886719</ele>
        <time>2015-10-01T12:54:21Z</time>
      </trkpt>
      <trkpt lat="48.11104" lon="-4.18818">
        <ele>124.62805175781</ele>
        <time>2015-10-01T12:54:28Z</time>
      </trkpt>
      <trkpt lat="48.11115" lon="-4.18816">
        <ele>125.58935546875</ele>
        <time>2015-10-01T12:54:36Z</time>
      </trkpt>
      <trkpt lat="48.11127" lon="-4.18813">
        <ele>127.99255371094</ele>
        <time>2015-10-01T12:54:44Z</time>
      </trkpt>
      <trkpt lat="48.11142" lon="-4.18809">
        <ele>128.9541015625</ele>
        <time>2015-10-01T12:54:55Z</time>
      </trkpt>
      <trkpt lat="48.11155" lon="-4.18806">
        <ele>128.9541015625</ele>
        <time>2015-10-01T12:55:05Z</time>
      </trkpt>
      <trkpt lat="48.11169" lon="-4.18803">
        <ele>129.43469238281</ele>
        <time>2015-10-01T12:55:15Z</time>
      </trkpt>
      <trkpt lat="48.11187" lon="-4.18799">
        <ele>129.91528320312</ele>
        <time>2015-10-01T12:55:28Z</time>
      </trkpt>
      <trkpt lat="48.11204" lon="-4.18795">
        <ele>129.91528320312</ele>
        <time>2015-10-01T12:55:41Z</time>
      </trkpt>
      <trkpt lat="48.11221" lon="-4.18791">
        <ele>129.91528320312</ele>
        <time>2015-10-01T12:55:54Z</time>
      </trkpt>
      <trkpt lat="48.11236" lon="-4.18787">
        <ele>130.39599609375</ele>
        <time>2015-10-01T12:56:05Z</time>
      </trkpt>
      <trkpt lat="48.11248" lon="-4.18785">
        <ele>129.91528320312</ele>
        <time>2015-10-01T12:56:14Z</time>
      </trkpt>
      <trkpt lat="48.1126" lon="-4.18782">
        <ele>129.91528320312</ele>
        <time>2015-10-01T12:56:24Z</time>
      </trkpt>
      <trkpt lat="48.11275" lon="-4.18779">
        <ele>129.91528320312</ele>
        <time>2015-10-01T12:56:36Z</time>
      </trkpt>
      <trkpt lat="48.11284" lon="-4.18777">
        <ele>129.43469238281</ele>
        <time>2015-10-01T12:56:43Z</time>
      </trkpt>
      <trkpt lat="48.11286" lon="-4.18776">
        <ele>128.9541015625</ele>
        <time>2015-10-01T12:56:45Z</time>
      </trkpt>
      <trkpt lat="48.11297" lon="-4.18774">
        <ele>128.47338867188</ele>
        <time>2015-10-01T12:56:54Z</time>
      </trkpt>
      <trkpt lat="48.11307" lon="-4.18772">
        <ele>129.43469238281</ele>
        <time>2015-10-01T12:57:01Z</time>
      </trkpt>
      <trkpt lat="48.11316" lon="-4.18769">
        <ele>131.35729980469</ele>
        <time>2015-10-01T12:57:07Z</time>
      </trkpt>
      <trkpt lat="48.11324" lon="-4.18769">
        <ele>132.31860351562</ele>
        <time>2015-10-01T12:57:13Z</time>
      </trkpt>
      <trkpt lat="48.11334" lon="-4.18766">
        <ele>131.35729980469</ele>
        <time>2015-10-01T12:57:21Z</time>
      </trkpt>
      <trkpt lat="48.11341" lon="-4.18764">
        <ele>131.837890625</ele>
        <time>2015-10-01T12:57:27Z</time>
      </trkpt>
      <trkpt lat="48.11348" lon="-4.18762">
        <ele>131.35729980469</ele>
        <time>2015-10-01T12:57:33Z</time>
      </trkpt>
      <trkpt lat="48.11357" lon="-4.1876">
        <ele>132.31860351562</ele>
        <time>2015-10-01T12:57:39Z</time>
      </trkpt>
      <trkpt lat="48.1137" lon="-4.18756">
        <ele>132.79931640625</ele>
        <time>2015-10-01T12:57:48Z</time>
      </trkpt>
      <trkpt lat="48.11381" lon="-4.18753">
        <ele>132.31860351562</ele>
        <time>2015-10-01T12:57:57Z</time>
      </trkpt>
      <trkpt lat="48.11395" lon="-4.1875">
        <ele>129.91528320312</ele>
        <time>2015-10-01T12:58:08Z</time>
      </trkpt>
      <trkpt lat="48.11406" lon="-4.18747">
        <ele>129.91528320312</ele>
        <time>2015-10-01T12:58:16Z</time>
      </trkpt>
      <trkpt lat="48.11415" lon="-4.18746">
        <ele>129.91528320312</ele>
        <time>2015-10-01T12:58:23Z</time>
      </trkpt>
      <trkpt lat="48.11424" lon="-4.18744">
        <ele>130.87670898438</ele>
        <time>2015-10-01T12:58:30Z</time>
      </trkpt>
      <trkpt lat="48.11432" lon="-4.18744">
        <ele>131.35729980469</ele>
        <time>2015-10-01T12:58:36Z</time>
      </trkpt>
      <trkpt lat="48.11433" lon="-4.18744">
        <ele>131.35729980469</ele>
        <time>2015-10-01T12:58:37Z</time>
      </trkpt>
      <trkpt lat="48.11443" lon="-4.18743">
        <ele>131.837890625</ele>
        <time>2015-10-01T12:58:44Z</time>
      </trkpt>
      <trkpt lat="48.1145" lon="-4.18739">
        <ele>132.31860351562</ele>
        <time>2015-10-01T12:58:49Z</time>
      </trkpt>
      <trkpt lat="48.1146" lon="-4.18737">
        <ele>132.31860351562</ele>
        <time>2015-10-01T12:58:56Z</time>
      </trkpt>
      <trkpt lat="48.11473" lon="-4.18735">
        <ele>131.35729980469</ele>
        <time>2015-10-01T12:59:06Z</time>
      </trkpt>
      <trkpt lat="48.11481" lon="-4.18732">
        <ele>130.87670898438</ele>
        <time>2015-10-01T12:59:13Z</time>
      </trkpt>
      <trkpt lat="48.11491" lon="-4.18729">
        <ele>130.39599609375</ele>
        <time>2015-10-01T12:59:21Z</time>
      </trkpt>
      <trkpt lat="48.11496" lon="-4.1873">
        <ele>130.39599609375</ele>
        <time>2015-10-01T12:59:25Z</time>
      </trkpt>
      <trkpt lat="48.11506" lon="-4.18728">
        <ele>130.39599609375</ele>
        <time>2015-10-01T12:59:33Z</time>
      </trkpt>
      <trkpt lat="48.11515" lon="-4.18726">
        <ele>130.39599609375</ele>
        <time>2015-10-01T12:59:40Z</time>
      </trkpt>
      <trkpt lat="48.11525" lon="-4.18724">
        <ele>130.87670898438</ele>
        <time>2015-10-01T12:59:47Z</time>
      </trkpt>
      <trkpt lat="48.11537" lon="-4.18721">
        <ele>131.35729980469</ele>
        <time>2015-10-01T12:59:56Z</time>
      </trkpt>
      <trkpt lat="48.11552" lon="-4.18716">
        <ele>129.91528320312</ele>
        <time>2015-10-01T13:00:07Z</time>
      </trkpt>
      <trkpt lat="48.11568" lon="-4.18711">
        <ele>127.99255371094</ele>
        <time>2015-10-01T13:00:20Z</time>
      </trkpt>
      <trkpt lat="48.11584" lon="-4.18707">
        <ele>127.03137207031</ele>
        <time>2015-10-01T13:00:32Z</time>
      </trkpt>
      <trkpt lat="48.116" lon="-4.18703">
        <ele>126.06994628906</ele>
        <time>2015-10-01T13:00:44Z</time>
      </trkpt>
      <trkpt lat="48.11616" lon="-4.18699">
        <ele>125.58935546875</ele>
        <time>2015-10-01T13:00:56Z</time>
      </trkpt>
      <trkpt lat="48.11634" lon="-4.18695">
        <ele>124.62805175781</ele>
        <time>2015-10-01T13:01:10Z</time>
      </trkpt>
      <trkpt lat="48.11651" lon="-4.18691">
        <ele>124.14733886719</ele>
        <time>2015-10-01T13:01:23Z</time>
      </trkpt>
      <trkpt lat="48.11664" lon="-4.18688">
        <ele>123.66674804688</ele>
        <time>2015-10-01T13:01:33Z</time>
      </trkpt>
      <trkpt lat="48.1168" lon="-4.18685">
        <ele>122.70544433594</ele>
        <time>2015-10-01T13:01:46Z</time>
      </trkpt>
      <trkpt lat="48.11687" lon="-4.18683">
        <ele>122.22473144531</ele>
        <time>2015-10-01T13:01:52Z</time>
      </trkpt>
      <trkpt lat="48.11692" lon="-4.18686">
        <ele>121.744140625</ele>
        <time>2015-10-01T13:01:56Z</time>
      </trkpt>
      <trkpt lat="48.11697" lon="-4.18693">
        <ele>120.30212402344</ele>
        <time>2015-10-01T13:02:02Z</time>
      </trkpt>
      <trkpt lat="48.11702" lon="-4.187">
        <ele>118.86010742188</ele>
        <time>2015-10-01T13:02:08Z</time>
      </trkpt>
      <trkpt lat="48.11707" lon="-4.18706">
        <ele>116.9375</ele>
        <time>2015-10-01T13:02:14Z</time>
      </trkpt>
      <trkpt lat="48.11711" lon="-4.18712">
        <ele>114.05358886719</ele>
        <time>2015-10-01T13:02:19Z</time>
      </trkpt>
      <trkpt lat="48.11715" lon="-4.1872">
        <ele>113.57299804688</ele>
        <time>2015-10-01T13:02:25Z</time>
      </trkpt>
      <trkpt lat="48.11719" lon="-4.18728">
        <ele>114.05358886719</ele>
        <time>2015-10-01T13:02:30Z</time>
      </trkpt>
      <trkpt lat="48.11725" lon="-4.18735">
        <ele>113.57299804688</ele>
        <time>2015-10-01T13:02:36Z</time>
      </trkpt>
      <trkpt lat="48.11728" lon="-4.18739">
        <ele>113.09228515625</ele>
        <time>2015-10-01T13:02:39Z</time>
      </trkpt>
      <trkpt lat="48.11732" lon="-4.18747">
        <ele>112.61157226562</ele>
        <time>2015-10-01T13:02:45Z</time>
      </trkpt>
      <trkpt lat="48.11737" lon="-4.18758">
        <ele>114.05358886719</ele>
        <time>2015-10-01T13:02:53Z</time>
      </trkpt>
      <trkpt lat="48.1174" lon="-4.18764">
        <ele>115.49560546875</ele>
        <time>2015-10-01T13:02:57Z</time>
      </trkpt>
      <trkpt lat="48.1174" lon="-4.18765">
        <ele>115.97619628906</ele>
        <time>2015-10-01T13:02:59Z</time>
      </trkpt>
      <trkpt lat="48.1174" lon="-4.18767">
        <ele>118.37939453125</ele>
        <time>2015-10-01T13:03:09Z</time>
      </trkpt>
      <trkpt lat="48.11738" lon="-4.18769">
        <ele>119.3408203125</ele>
        <time>2015-10-01T13:03:23Z</time>
      </trkpt>
      <trkpt lat="48.11739" lon="-4.18767">
        <ele>119.82141113281</ele>
        <time>2015-10-01T13:03:34Z</time>
      </trkpt>
      <trkpt lat="48.11741" lon="-4.18764">
        <ele>119.3408203125</ele>
        <time>2015-10-01T13:03:40Z</time>
      </trkpt>
      <trkpt lat="48.11742" lon="-4.18763">
        <ele>118.86010742188</ele>
        <time>2015-10-01T13:03:46Z</time>
      </trkpt>
      <trkpt lat="48.11744" lon="-4.18759">
        <ele>118.86010742188</ele>
        <time>2015-10-01T13:03:51Z</time>
      </trkpt>
      <trkpt lat="48.11746" lon="-4.18757">
        <ele>118.86010742188</ele>
        <time>2015-10-01T13:03:59Z</time>
      </trkpt>
      <trkpt lat="48.11751" lon="-4.1875">
        <ele>119.3408203125</ele>
        <time>2015-10-01T13:04:06Z</time>
      </trkpt>
      <trkpt lat="48.11754" lon="-4.18748">
        <ele>119.82141113281</ele>
        <time>2015-10-01T13:04:08Z</time>
      </trkpt>
      <trkpt lat="48.11765" lon="-4.18739">
        <ele>122.22473144531</ele>
        <time>2015-10-01T13:04:18Z</time>
      </trkpt>
      <trkpt lat="48.11773" lon="-4.18732">
        <ele>123.66674804688</ele>
        <time>2015-10-01T13:04:25Z</time>
      </trkpt>
      <trkpt lat="48.11779" lon="-4.18725">
        <ele>124.62805175781</ele>
        <time>2015-10-01T13:04:32Z</time>
      </trkpt>
      <trkpt lat="48.11785" lon="-4.18719">
        <ele>126.55065917969</ele>
        <time>2015-10-01T13:04:39Z</time>
      </trkpt>
      <trkpt lat="48.11792" lon="-4.18714">
        <ele>127.99255371094</ele>
        <time>2015-10-01T13:04:45Z</time>
      </trkpt>
      <trkpt lat="48.11797" lon="-4.1871">
        <ele>128.47338867188</ele>
        <time>2015-10-01T13:04:50Z</time>
      </trkpt>
      <trkpt lat="48.11805" lon="-4.18702">
        <ele>130.87670898438</ele>
        <time>2015-10-01T13:04:58Z</time>
      </trkpt>
      <trkpt lat="48.11813" lon="-4.18694">
        <ele>131.837890625</ele>
        <time>2015-10-01T13:05:05Z</time>
      </trkpt>
      <trkpt lat="48.11816" lon="-4.18691">
        <ele>131.35729980469</ele>
        <time>2015-10-01T13:05:10Z</time>
      </trkpt>
      <trkpt lat="48.11822" lon="-4.18684">
        <ele>131.837890625</ele>
        <time>2015-10-01T13:05:17Z</time>
      </trkpt>
      <trkpt lat="48.11829" lon="-4.18677">
        <ele>128.47338867188</ele>
        <time>2015-10-01T13:05:25Z</time>
      </trkpt>
      <trkpt lat="48.11835" lon="-4.1867">
        <ele>125.10876464844</ele>
        <time>2015-10-01T13:05:33Z</time>
      </trkpt>
      <trkpt lat="48.11842" lon="-4.18661">
        <ele>121.744140625</ele>
        <time>2015-10-01T13:05:42Z</time>
      </trkpt>
      <trkpt lat="48.1185" lon="-4.18654">
        <ele>119.82141113281</ele>
        <time>2015-10-01T13:05:50Z</time>
      </trkpt>
      <trkpt lat="48.11858" lon="-4.18644">
        <ele>117.89880371094</ele>
        <time>2015-10-01T13:06:00Z</time>
      </trkpt>
      <trkpt lat="48.11863" lon="-4.18639">
        <ele>115.97619628906</ele>
        <time>2015-10-01T13:06:07Z</time>
      </trkpt>
      <trkpt lat="48.11868" lon="-4.18632">
        <ele>114.5341796875</ele>
        <time>2015-10-01T13:06:14Z</time>
      </trkpt>
      <trkpt lat="48.11878" lon="-4.18623">
        <ele>113.09228515625</ele>
        <time>2015-10-01T13:06:24Z</time>
      </trkpt>
      <trkpt lat="48.11887" lon="-4.18616">
        <ele>115.01489257812</ele>
        <time>2015-10-01T13:06:31Z</time>
      </trkpt>
      <trkpt lat="48.11901" lon="-4.1861">
        <ele>121.744140625</ele>
        <time>2015-10-01T13:06:38Z</time>
      </trkpt>
      <trkpt lat="48.11909" lon="-4.18604">
        <ele>121.26354980469</ele>
        <time>2015-10-01T13:06:45Z</time>
      </trkpt>
      <trkpt lat="48.11918" lon="-4.18594">
        <ele>120.78283691406</ele>
        <time>2015-10-01T13:06:55Z</time>
      </trkpt>
      <trkpt lat="48.11928" lon="-4.18585">
        <ele>121.744140625</ele>
        <time>2015-10-01T13:07:04Z</time>
      </trkpt>
      <trkpt lat="48.11934" lon="-4.18578">
        <ele>121.744140625</ele>
        <time>2015-10-01T13:07:11Z</time>
      </trkpt>
      <trkpt lat="48.11942" lon="-4.1857">
        <ele>122.70544433594</ele>
        <time>2015-10-01T13:07:19Z</time>
      </trkpt>
      <trkpt lat="48.1195" lon="-4.1856">
        <ele>121.744140625</ele>
        <time>2015-10-01T13:07:27Z</time>
      </trkpt>
      <trkpt lat="48.11956" lon="-4.18553">
        <ele>120.30212402344</ele>
        <time>2015-10-01T13:07:34Z</time>
      </trkpt>
      <trkpt lat="48.11963" lon="-4.18543">
        <ele>119.3408203125</ele>
        <time>2015-10-01T13:07:42Z</time>
      </trkpt>
      <trkpt lat="48.11965" lon="-4.18541">
        <ele>118.37939453125</ele>
        <time>2015-10-01T13:07:45Z</time>
      </trkpt>
      <trkpt lat="48.11972" lon="-4.18535">
        <ele>119.3408203125</ele>
        <time>2015-10-01T13:07:52Z</time>
      </trkpt>
      <trkpt lat="48.11974" lon="-4.18533">
        <ele>119.3408203125</ele>
        <time>2015-10-01T13:07:54Z</time>
      </trkpt>
      <trkpt lat="48.11981" lon="-4.18528">
        <ele>119.3408203125</ele>
        <time>2015-10-01T13:08:01Z</time>
      </trkpt>
      <trkpt lat="48.11988" lon="-4.18521">
        <ele>120.30212402344</ele>
        <time>2015-10-01T13:08:06Z</time>
      </trkpt>
      <trkpt lat="48.11995" lon="-4.18515">
        <ele>121.26354980469</ele>
        <time>2015-10-01T13:08:12Z</time>
      </trkpt>
      <trkpt lat="48.12002" lon="-4.18508">
        <ele>123.18615722656</ele>
        <time>2015-10-01T13:08:18Z</time>
      </trkpt>
      <trkpt lat="48.12011" lon="-4.18499">
        <ele>125.58935546875</ele>
        <time>2015-10-01T13:08:25Z</time>
      </trkpt>
      <trkpt lat="48.12018" lon="-4.18493">
        <ele>127.51196289062</ele>
        <time>2015-10-01T13:08:31Z</time>
      </trkpt>
      <trkpt lat="48.12027" lon="-4.18485">
        <ele>127.03137207031</ele>
        <time>2015-10-01T13:08:39Z</time>
      </trkpt>
      <trkpt lat="48.12033" lon="-4.18479">
        <ele>126.55065917969</ele>
        <time>2015-10-01T13:08:45Z</time>
      </trkpt>
      <trkpt lat="48.12038" lon="-4.18474">
        <ele>125.58935546875</ele>
        <time>2015-10-01T13:08:50Z</time>
      </trkpt>
      <trkpt lat="48.12044" lon="-4.18468">
        <ele>125.58935546875</ele>
        <time>2015-10-01T13:08:56Z</time>
      </trkpt>
      <trkpt lat="48.1205" lon="-4.18461">
        <ele>127.03137207031</ele>
        <time>2015-10-01T13:09:02Z</time>
      </trkpt>
      <trkpt lat="48.12052" lon="-4.18453">
        <ele>127.51196289062</ele>
        <time>2015-10-01T13:09:07Z</time>
      </trkpt>
      <trkpt lat="48.12055" lon="-4.18437">
        <ele>133.27990722656</ele>
        <time>2015-10-01T13:09:15Z</time>
      </trkpt>
      <trkpt lat="48.12053" lon="-4.18422">
        <ele>132.79931640625</ele>
        <time>2015-10-01T13:09:23Z</time>
      </trkpt>
      <trkpt lat="48.12051" lon="-4.18417">
        <ele>131.837890625</ele>
        <time>2015-10-01T13:09:26Z</time>
      </trkpt>
      <trkpt lat="48.12049" lon="-4.18406">
        <ele>129.43469238281</ele>
        <time>2015-10-01T13:09:32Z</time>
      </trkpt>
      <trkpt lat="48.1205" lon="-4.18395">
        <ele>128.9541015625</ele>
        <time>2015-10-01T13:09:38Z</time>
      </trkpt>
      <trkpt lat="48.12048" lon="-4.18386">
        <ele>127.51196289062</ele>
        <time>2015-10-01T13:09:43Z</time>
      </trkpt>
      <trkpt lat="48.12047" lon="-4.18377">
        <ele>126.55065917969</ele>
        <time>2015-10-01T13:09:48Z</time>
      </trkpt>
      <trkpt lat="48.12047" lon="-4.18373">
        <ele>126.06994628906</ele>
        <time>2015-10-01T13:09:50Z</time>
      </trkpt>
      <trkpt lat="48.12047" lon="-4.18358">
        <ele>125.58935546875</ele>
        <time>2015-10-01T13:09:58Z</time>
      </trkpt>
      <trkpt lat="48.12046" lon="-4.18354">
        <ele>125.10876464844</ele>
        <time>2015-10-01T13:10:01Z</time>
      </trkpt>
      <trkpt lat="48.12043" lon="-4.18346">
        <ele>123.18615722656</ele>
        <time>2015-10-01T13:10:06Z</time>
      </trkpt>
      <trkpt lat="48.12042" lon="-4.18338">
        <ele>122.22473144531</ele>
        <time>2015-10-01T13:10:10Z</time>
      </trkpt>
      <trkpt lat="48.12042" lon="-4.18334">
        <ele>122.70544433594</ele>
        <time>2015-10-01T13:10:12Z</time>
      </trkpt>
      <trkpt lat="48.12041" lon="-4.18326">
        <ele>122.22473144531</ele>
        <time>2015-10-01T13:10:17Z</time>
      </trkpt>
      <trkpt lat="48.12039" lon="-4.18322">
        <ele>122.22473144531</ele>
        <time>2015-10-01T13:10:19Z</time>
      </trkpt>
      <trkpt lat="48.12038" lon="-4.18311">
        <ele>122.22473144531</ele>
        <time>2015-10-01T13:10:25Z</time>
      </trkpt>
      <trkpt lat="48.12036" lon="-4.18307">
        <ele>121.744140625</ele>
        <time>2015-10-01T13:10:27Z</time>
      </trkpt>
      <trkpt lat="48.12037" lon="-4.18301">
        <ele>122.22473144531</ele>
        <time>2015-10-01T13:10:30Z</time>
      </trkpt>
      <trkpt lat="48.12037" lon="-4.18291">
        <ele>124.62805175781</ele>
        <time>2015-10-01T13:10:37Z</time>
      </trkpt>
      <trkpt lat="48.12037" lon="-4.18289">
        <ele>125.10876464844</ele>
        <time>2015-10-01T13:10:38Z</time>
      </trkpt>
      <trkpt lat="48.12038" lon="-4.18279">
        <ele>126.55065917969</ele>
        <time>2015-10-01T13:10:43Z</time>
      </trkpt>
      <trkpt lat="48.12039" lon="-4.18273">
        <ele>127.51196289062</ele>
        <time>2015-10-01T13:10:47Z</time>
      </trkpt>
      <trkpt lat="48.12039" lon="-4.18265">
        <ele>127.51196289062</ele>
        <time>2015-10-01T13:10:51Z</time>
      </trkpt>
      <trkpt lat="48.12036" lon="-4.1825">
        <ele>127.51196289062</ele>
        <time>2015-10-01T13:10:59Z</time>
      </trkpt>
      <trkpt lat="48.12036" lon="-4.18243">
        <ele>127.51196289062</ele>
        <time>2015-10-01T13:11:03Z</time>
      </trkpt>
      <trkpt lat="48.12035" lon="-4.18235">
        <ele>127.51196289062</ele>
        <time>2015-10-01T13:11:07Z</time>
      </trkpt>
      <trkpt lat="48.12034" lon="-4.18226">
        <ele>128.47338867188</ele>
        <time>2015-10-01T13:11:12Z</time>
      </trkpt>
      <trkpt lat="48.12034" lon="-4.18216">
        <ele>129.43469238281</ele>
        <time>2015-10-01T13:11:17Z</time>
      </trkpt>
      <trkpt lat="48.12034" lon="-4.18204">
        <ele>131.35729980469</ele>
        <time>2015-10-01T13:11:23Z</time>
      </trkpt>
      <trkpt lat="48.12034" lon="-4.18202">
        <ele>131.837890625</ele>
        <time>2015-10-01T13:11:24Z</time>
      </trkpt>
      <trkpt lat="48.12031" lon="-4.1819">
        <ele>131.837890625</ele>
        <time>2015-10-01T13:11:31Z</time>
      </trkpt>
      <trkpt lat="48.12026" lon="-4.18183">
        <ele>132.31860351562</ele>
        <time>2015-10-01T13:11:37Z</time>
      </trkpt>
      <trkpt lat="48.12021" lon="-4.18179">
        <ele>132.31860351562</ele>
        <time>2015-10-01T13:11:43Z</time>
      </trkpt>
      <trkpt lat="48.12013" lon="-4.18177">
        <ele>132.31860351562</ele>
        <time>2015-10-01T13:11:50Z</time>
      </trkpt>
      <trkpt lat="48.12002" lon="-4.18175">
        <ele>130.39599609375</ele>
        <time>2015-10-01T13:11:58Z</time>
      </trkpt>
      <trkpt lat="48.12" lon="-4.18175">
        <ele>130.39599609375</ele>
        <time>2015-10-01T13:11:59Z</time>
      </trkpt>
      <trkpt lat="48.11994" lon="-4.18167">
        <ele>131.35729980469</ele>
        <time>2015-10-01T13:12:06Z</time>
      </trkpt>
      <trkpt lat="48.11991" lon="-4.18159">
        <ele>132.31860351562</ele>
        <time>2015-10-01T13:12:11Z</time>
      </trkpt>
      <trkpt lat="48.11991" lon="-4.18149">
        <ele>131.837890625</ele>
        <time>2015-10-01T13:12:17Z</time>
      </trkpt>
      <trkpt lat="48.11991" lon="-4.18146">
        <ele>131.837890625</ele>
        <time>2015-10-01T13:12:19Z</time>
      </trkpt>
      <trkpt lat="48.11992" lon="-4.18133">
        <ele>130.39599609375</ele>
        <time>2015-10-01T13:12:26Z</time>
      </trkpt>
      <trkpt lat="48.11992" lon="-4.18128">
        <ele>128.9541015625</ele>
        <time>2015-10-01T13:12:29Z</time>
      </trkpt>
      <trkpt lat="48.11994" lon="-4.18115">
        <ele>128.9541015625</ele>
        <time>2015-10-01T13:12:36Z</time>
      </trkpt>
      <trkpt lat="48.11996" lon="-4.18101">
        <ele>128.9541015625</ele>
        <time>2015-10-01T13:12:44Z</time>
      </trkpt>
      <trkpt lat="48.11997" lon="-4.18089">
        <ele>127.51196289062</ele>
        <time>2015-10-01T13:12:51Z</time>
      </trkpt>
      <trkpt lat="48.11999" lon="-4.18077">
        <ele>126.06994628906</ele>
        <time>2015-10-01T13:12:58Z</time>
      </trkpt>
      <trkpt lat="48.12" lon="-4.18064">
        <ele>125.10876464844</ele>
        <time>2015-10-01T13:13:05Z</time>
      </trkpt>
      <trkpt lat="48.12" lon="-4.18052">
        <ele>123.18615722656</ele>
        <time>2015-10-01T13:13:12Z</time>
      </trkpt>
      <trkpt lat="48.12001" lon="-4.18048">
        <ele>123.18615722656</ele>
        <time>2015-10-01T13:13:14Z</time>
      </trkpt>
      <trkpt lat="48.12002" lon="-4.18042">
        <ele>123.18615722656</ele>
        <time>2015-10-01T13:13:19Z</time>
      </trkpt>
      <trkpt lat="48.12003" lon="-4.18036">
        <ele>123.66674804688</ele>
        <time>2015-10-01T13:13:24Z</time>
      </trkpt>
      <trkpt lat="48.12003" lon="-4.18033">
        <ele>124.14733886719</ele>
        <time>2015-10-01T13:13:26Z</time>
      </trkpt>
      <trkpt lat="48.12005" lon="-4.18017">
        <ele>123.66674804688</ele>
        <time>2015-10-01T13:13:35Z</time>
      </trkpt>
      <trkpt lat="48.12005" lon="-4.18015">
        <ele>123.18615722656</ele>
        <time>2015-10-01T13:13:36Z</time>
      </trkpt>
      <trkpt lat="48.12007" lon="-4.18005">
        <ele>121.744140625</ele>
        <time>2015-10-01T13:13:42Z</time>
      </trkpt>
      <trkpt lat="48.12008" lon="-4.18002">
        <ele>121.744140625</ele>
        <time>2015-10-01T13:13:44Z</time>
      </trkpt>
      <trkpt lat="48.12009" lon="-4.17992">
        <ele>122.70544433594</ele>
        <time>2015-10-01T13:13:49Z</time>
      </trkpt>
      <trkpt lat="48.1201" lon="-4.17987">
        <ele>122.22473144531</ele>
        <time>2015-10-01T13:13:52Z</time>
      </trkpt>
      <trkpt lat="48.12011" lon="-4.17974">
        <ele>122.22473144531</ele>
        <time>2015-10-01T13:13:59Z</time>
      </trkpt>
      <trkpt lat="48.12012" lon="-4.17964">
        <ele>122.22473144531</ele>
        <time>2015-10-01T13:14:05Z</time>
      </trkpt>
      <trkpt lat="48.12012" lon="-4.1796">
        <ele>121.744140625</ele>
        <time>2015-10-01T13:14:07Z</time>
      </trkpt>
      <trkpt lat="48.12012" lon="-4.17955">
        <ele>121.26354980469</ele>
        <time>2015-10-01T13:14:10Z</time>
      </trkpt>
      <trkpt lat="48.12016" lon="-4.17941">
        <ele>121.26354980469</ele>
        <time>2015-10-01T13:14:18Z</time>
      </trkpt>
      <trkpt lat="48.12018" lon="-4.17929">
        <ele>120.78283691406</ele>
        <time>2015-10-01T13:14:25Z</time>
      </trkpt>
      <trkpt lat="48.12018" lon="-4.17923">
        <ele>120.30212402344</ele>
        <time>2015-10-01T13:14:29Z</time>
      </trkpt>
      <trkpt lat="48.1202" lon="-4.17908">
        <ele>120.30212402344</ele>
        <time>2015-10-01T13:14:37Z</time>
      </trkpt>
      <trkpt lat="48.12023" lon="-4.17893">
        <ele>122.22473144531</ele>
        <time>2015-10-01T13:14:45Z</time>
      </trkpt>
      <trkpt lat="48.12024" lon="-4.17883">
        <ele>122.22473144531</ele>
        <time>2015-10-01T13:14:50Z</time>
      </trkpt>
      <trkpt lat="48.12025" lon="-4.17875">
        <ele>123.18615722656</ele>
        <time>2015-10-01T13:14:54Z</time>
      </trkpt>
      <trkpt lat="48.12026" lon="-4.17866">
        <ele>124.62805175781</ele>
        <time>2015-10-01T13:14:59Z</time>
      </trkpt>
      <trkpt lat="48.12029" lon="-4.1785">
        <ele>124.14733886719</ele>
        <time>2015-10-01T13:15:08Z</time>
      </trkpt>
      <trkpt lat="48.1203" lon="-4.17843">
        <ele>124.14733886719</ele>
        <time>2015-10-01T13:15:12Z</time>
      </trkpt>
      <trkpt lat="48.12031" lon="-4.17831">
        <ele>124.14733886719</ele>
        <time>2015-10-01T13:15:18Z</time>
      </trkpt>
      <trkpt lat="48.12032" lon="-4.17825">
        <ele>124.62805175781</ele>
        <time>2015-10-01T13:15:22Z</time>
      </trkpt>
      <trkpt lat="48.12034" lon="-4.1781">
        <ele>125.10876464844</ele>
        <time>2015-10-01T13:15:30Z</time>
      </trkpt>
      <trkpt lat="48.12035" lon="-4.17803">
        <ele>125.58935546875</ele>
        <time>2015-10-01T13:15:34Z</time>
      </trkpt>
      <trkpt lat="48.12036" lon="-4.17794">
        <ele>125.58935546875</ele>
        <time>2015-10-01T13:15:39Z</time>
      </trkpt>
      <trkpt lat="48.12036" lon="-4.17789">
        <ele>125.10876464844</ele>
        <time>2015-10-01T13:15:42Z</time>
      </trkpt>
      <trkpt lat="48.12037" lon="-4.17779">
        <ele>124.14733886719</ele>
        <time>2015-10-01T13:15:48Z</time>
      </trkpt>
      <trkpt lat="48.12038" lon="-4.17771">
        <ele>122.22473144531</ele>
        <time>2015-10-01T13:15:53Z</time>
      </trkpt>
      <trkpt lat="48.12039" lon="-4.17767">
        <ele>121.26354980469</ele>
        <time>2015-10-01T13:15:55Z</time>
      </trkpt>
      <trkpt lat="48.1204" lon="-4.17762">
        <ele>118.86010742188</ele>
        <time>2015-10-01T13:15:59Z</time>
      </trkpt>
      <trkpt lat="48.12042" lon="-4.17755">
        <ele>117.89880371094</ele>
        <time>2015-10-01T13:16:04Z</time>
      </trkpt>
      <trkpt lat="48.12043" lon="-4.1775">
        <ele>119.82141113281</ele>
        <time>2015-10-01T13:16:06Z</time>
      </trkpt>
      <trkpt lat="48.12042" lon="-4.17743">
        <ele>120.30212402344</ele>
        <time>2015-10-01T13:16:11Z</time>
      </trkpt>
      <trkpt lat="48.12041" lon="-4.17734">
        <ele>119.82141113281</ele>
        <time>2015-10-01T13:16:16Z</time>
      </trkpt>
      <trkpt lat="48.12041" lon="-4.17728">
        <ele>119.82141113281</ele>
        <time>2015-10-01T13:16:19Z</time>
      </trkpt>
      <trkpt lat="48.12042" lon="-4.1772">
        <ele>118.86010742188</ele>
        <time>2015-10-01T13:16:25Z</time>
      </trkpt>
      <trkpt lat="48.12042" lon="-4.17715">
        <ele>117.89880371094</ele>
        <time>2015-10-01T13:16:28Z</time>
      </trkpt>
      <trkpt lat="48.12041" lon="-4.17711">
        <ele>117.41821289062</ele>
        <time>2015-10-01T13:16:30Z</time>
      </trkpt>
      <trkpt lat="48.12039" lon="-4.17702">
        <ele>115.49560546875</ele>
        <time>2015-10-01T13:16:36Z</time>
      </trkpt>
      <trkpt lat="48.12039" lon="-4.177">
        <ele>115.01489257812</ele>
        <time>2015-10-01T13:16:37Z</time>
      </trkpt>
      <trkpt lat="48.12038" lon="-4.17691">
        <ele>112.61157226562</ele>
        <time>2015-10-01T13:16:42Z</time>
      </trkpt>
      <trkpt lat="48.12035" lon="-4.17676">
        <ele>110.20825195312</ele>
        <time>2015-10-01T13:16:50Z</time>
      </trkpt>
      <trkpt lat="48.12034" lon="-4.17671">
        <ele>110.20825195312</ele>
        <time>2015-10-01T13:16:52Z</time>
      </trkpt>
      <trkpt lat="48.12032" lon="-4.1766">
        <ele>111.16955566406</ele>
        <time>2015-10-01T13:16:58Z</time>
      </trkpt>
      <trkpt lat="48.12029" lon="-4.17652">
        <ele>112.61157226562</ele>
        <time>2015-10-01T13:17:02Z</time>
      </trkpt>
      <trkpt lat="48.12028" lon="-4.17646">
        <ele>113.57299804688</ele>
        <time>2015-10-01T13:17:05Z</time>
      </trkpt>
      <trkpt lat="48.12027" lon="-4.17632">
        <ele>116.45678710938</ele>
        <time>2015-10-01T13:17:12Z</time>
      </trkpt>
      <trkpt lat="48.12026" lon="-4.17629">
        <ele>116.9375</ele>
        <time>2015-10-01T13:17:14Z</time>
      </trkpt>
      <trkpt lat="48.12026" lon="-4.17622">
        <ele>118.37939453125</ele>
        <time>2015-10-01T13:17:18Z</time>
      </trkpt>
      <trkpt lat="48.12027" lon="-4.17614">
        <ele>118.37939453125</ele>
        <time>2015-10-01T13:17:22Z</time>
      </trkpt>
      <trkpt lat="48.12026" lon="-4.17601">
        <ele>120.30212402344</ele>
        <time>2015-10-01T13:17:28Z</time>
      </trkpt>
      <trkpt lat="48.12025" lon="-4.1759">
        <ele>121.26354980469</ele>
        <time>2015-10-01T13:17:33Z</time>
      </trkpt>
      <trkpt lat="48.12025" lon="-4.17585">
        <ele>122.22473144531</ele>
        <time>2015-10-01T13:17:36Z</time>
      </trkpt>
      <trkpt lat="48.12026" lon="-4.17577">
        <ele>123.18615722656</ele>
        <time>2015-10-01T13:17:40Z</time>
      </trkpt>
      <trkpt lat="48.12026" lon="-4.17568">
        <ele>122.70544433594</ele>
        <time>2015-10-01T13:17:45Z</time>
      </trkpt>
      <trkpt lat="48.12027" lon="-4.17555">
        <ele>122.70544433594</ele>
        <time>2015-10-01T13:17:52Z</time>
      </trkpt>
      <trkpt lat="48.12027" lon="-4.17548">
        <ele>123.18615722656</ele>
        <time>2015-10-01T13:17:56Z</time>
      </trkpt>
      <trkpt lat="48.12026" lon="-4.17539">
        <ele>120.30212402344</ele>
        <time>2015-10-01T13:18:01Z</time>
      </trkpt>
      <trkpt lat="48.12026" lon="-4.17538">
        <ele>120.30212402344</ele>
        <time>2015-10-01T13:18:02Z</time>
      </trkpt>
      <trkpt lat="48.12025" lon="-4.17527">
        <ele>118.37939453125</ele>
        <time>2015-10-01T13:18:08Z</time>
      </trkpt>
      <trkpt lat="48.12025" lon="-4.17519">
        <ele>118.37939453125</ele>
        <time>2015-10-01T13:18:13Z</time>
      </trkpt>
      <trkpt lat="48.12026" lon="-4.17514">
        <ele>117.41821289062</ele>
        <time>2015-10-01T13:18:16Z</time>
      </trkpt>
      <trkpt lat="48.12025" lon="-4.17508">
        <ele>117.41821289062</ele>
        <time>2015-10-01T13:18:21Z</time>
      </trkpt>
      <trkpt lat="48.12024" lon="-4.17507">
        <ele>116.9375</ele>
        <time>2015-10-01T13:18:22Z</time>
      </trkpt>
      <trkpt lat="48.12023" lon="-4.17504">
        <ele>119.82141113281</ele>
        <time>2015-10-01T13:18:28Z</time>
      </trkpt>
      <trkpt lat="48.12023" lon="-4.17503">
        <ele>120.78283691406</ele>
        <time>2015-10-01T13:18:36Z</time>
      </trkpt>
      <trkpt lat="48.12022" lon="-4.17503">
        <ele>120.78283691406</ele>
        <time>2015-10-01T13:18:40Z</time>
      </trkpt>
      <trkpt lat="48.12022" lon="-4.17503">
        <ele>120.78283691406</ele>
        <time>2015-10-01T13:18:46Z</time>
      </trkpt>
      <trkpt lat="48.12023" lon="-4.17503">
        <ele>121.26354980469</ele>
        <time>2015-10-01T13:18:52Z</time>
      </trkpt>
      <trkpt lat="48.12023" lon="-4.17502">
        <ele>121.744140625</ele>
        <time>2015-10-01T13:18:57Z</time>
      </trkpt>
      <trkpt lat="48.12024" lon="-4.17502">
        <ele>122.22473144531</ele>
        <time>2015-10-01T13:19:04Z</time>
      </trkpt>
      <trkpt lat="48.12025" lon="-4.17501">
        <ele>121.744140625</ele>
        <time>2015-10-01T13:19:11Z</time>
      </trkpt>
      <trkpt lat="48.12024" lon="-4.17502">
        <ele>122.22473144531</ele>
        <time>2015-10-01T13:19:20Z</time>
      </trkpt>
      <trkpt lat="48.12024" lon="-4.17499">
        <ele>122.22473144531</ele>
        <time>2015-10-01T13:19:26Z</time>
      </trkpt>
      <trkpt lat="48.12024" lon="-4.17498">
        <ele>121.744140625</ele>
        <time>2015-10-01T13:19:37Z</time>
      </trkpt>
      <trkpt lat="48.12024" lon="-4.17495">
        <ele>122.22473144531</ele>
        <time>2015-10-01T13:19:43Z</time>
      </trkpt>
      <trkpt lat="48.12025" lon="-4.17491">
        <ele>120.78283691406</ele>
        <time>2015-10-01T13:19:49Z</time>
      </trkpt>
      <trkpt lat="48.12025" lon="-4.17484">
        <ele>119.82141113281</ele>
        <time>2015-10-01T13:19:56Z</time>
      </trkpt>
      <trkpt lat="48.12025" lon="-4.17477">
        <ele>119.3408203125</ele>
        <time>2015-10-01T13:20:04Z</time>
      </trkpt>
      <trkpt lat="48.12026" lon="-4.1747">
        <ele>118.86010742188</ele>
        <time>2015-10-01T13:20:10Z</time>
      </trkpt>
      <trkpt lat="48.12027" lon="-4.17464">
        <ele>118.37939453125</ele>
        <time>2015-10-01T13:20:15Z</time>
      </trkpt>
      <trkpt lat="48.12027" lon="-4.17455">
        <ele>117.41821289062</ele>
        <time>2015-10-01T13:20:22Z</time>
      </trkpt>
      <trkpt lat="48.12026" lon="-4.17449">
        <ele>115.01489257812</ele>
        <time>2015-10-01T13:20:27Z</time>
      </trkpt>
      <trkpt lat="48.12025" lon="-4.17444">
        <ele>114.05358886719</ele>
        <time>2015-10-01T13:20:33Z</time>
      </trkpt>
      <trkpt lat="48.12026" lon="-4.17442">
        <ele>115.97619628906</ele>
        <time>2015-10-01T13:20:43Z</time>
      </trkpt>
      <trkpt lat="48.12028" lon="-4.17441">
        <ele>115.49560546875</ele>
        <time>2015-10-01T13:20:51Z</time>
      </trkpt>
      <trkpt lat="48.12028" lon="-4.17441">
        <ele>117.89880371094</ele>
        <time>2015-10-01T13:21:01Z</time>
      </trkpt>
      <trkpt lat="48.12027" lon="-4.1744">
        <ele>118.37939453125</ele>
        <time>2015-10-01T13:21:11Z</time>
      </trkpt>
      <trkpt lat="48.12026" lon="-4.17433">
        <ele>112.61157226562</ele>
        <time>2015-10-01T13:21:20Z</time>
      </trkpt>
      <trkpt lat="48.12026" lon="-4.17423">
        <ele>109.24694824219</ele>
        <time>2015-10-01T13:21:29Z</time>
      </trkpt>
      <trkpt lat="48.12025" lon="-4.17412">
        <ele>108.28564453125</ele>
        <time>2015-10-01T13:21:37Z</time>
      </trkpt>
      <trkpt lat="48.12026" lon="-4.17401">
        <ele>108.76623535156</ele>
        <time>2015-10-01T13:21:45Z</time>
      </trkpt>
      <trkpt lat="48.12026" lon="-4.17399">
        <ele>109.72766113281</ele>
        <time>2015-10-01T13:21:46Z</time>
      </trkpt>
      <trkpt lat="48.12026" lon="-4.17392">
        <ele>113.09228515625</ele>
        <time>2015-10-01T13:21:53Z</time>
      </trkpt>
      <trkpt lat="48.12026" lon="-4.17391">
        <ele>115.01489257812</ele>
        <time>2015-10-01T13:21:59Z</time>
      </trkpt>
      <trkpt lat="48.12028" lon="-4.17388">
        <ele>117.41821289062</ele>
        <time>2015-10-01T13:22:08Z</time>
      </trkpt>
      <trkpt lat="48.12027" lon="-4.17382">
        <ele>117.89880371094</ele>
        <time>2015-10-01T13:22:13Z</time>
      </trkpt>
      <trkpt lat="48.12025" lon="-4.17377">
        <ele>119.3408203125</ele>
        <time>2015-10-01T13:22:19Z</time>
      </trkpt>
      <trkpt lat="48.12025" lon="-4.17375">
        <ele>119.82141113281</ele>
        <time>2015-10-01T13:22:27Z</time>
      </trkpt>
      <trkpt lat="48.12025" lon="-4.17366">
        <ele>121.26354980469</ele>
        <time>2015-10-01T13:22:34Z</time>
      </trkpt>
      <trkpt lat="48.12023" lon="-4.17356">
        <ele>120.78283691406</ele>
        <time>2015-10-01T13:22:41Z</time>
      </trkpt>
      <trkpt lat="48.12024" lon="-4.17349">
        <ele>120.30212402344</ele>
        <time>2015-10-01T13:22:47Z</time>
      </trkpt>
      <trkpt lat="48.12025" lon="-4.17346">
        <ele>120.78283691406</ele>
        <time>2015-10-01T13:22:53Z</time>
      </trkpt>
      <trkpt lat="48.12024" lon="-4.17339">
        <ele>120.78283691406</ele>
        <time>2015-10-01T13:22:58Z</time>
      </trkpt>
      <trkpt lat="48.12024" lon="-4.17329">
        <ele>117.89880371094</ele>
        <time>2015-10-01T13:23:05Z</time>
      </trkpt>
      <trkpt lat="48.12023" lon="-4.1732">
        <ele>117.89880371094</ele>
        <time>2015-10-01T13:23:10Z</time>
      </trkpt>
      <trkpt lat="48.12021" lon="-4.17311">
        <ele>118.37939453125</ele>
        <time>2015-10-01T13:23:17Z</time>
      </trkpt>
      <trkpt lat="48.12021" lon="-4.173">
        <ele>116.9375</ele>
        <time>2015-10-01T13:23:24Z</time>
      </trkpt>
      <trkpt lat="48.1202" lon="-4.17288">
        <ele>114.5341796875</ele>
        <time>2015-10-01T13:23:32Z</time>
      </trkpt>
      <trkpt lat="48.12021" lon="-4.17277">
        <ele>113.57299804688</ele>
        <time>2015-10-01T13:23:39Z</time>
      </trkpt>
      <trkpt lat="48.1202" lon="-4.17269">
        <ele>111.65026855469</ele>
        <time>2015-10-01T13:23:44Z</time>
      </trkpt>
      <trkpt lat="48.12017" lon="-4.17249">
        <ele>111.65026855469</ele>
        <time>2015-10-01T13:23:54Z</time>
      </trkpt>
      <trkpt lat="48.12017" lon="-4.17245">
        <ele>111.16955566406</ele>
        <time>2015-10-01T13:23:56Z</time>
      </trkpt>
      <trkpt lat="48.12015" lon="-4.17234">
        <ele>111.65026855469</ele>
        <time>2015-10-01T13:24:03Z</time>
      </trkpt>
      <trkpt lat="48.12015" lon="-4.17232">
        <ele>113.57299804688</ele>
        <time>2015-10-01T13:24:10Z</time>
      </trkpt>
      <trkpt lat="48.12015" lon="-4.1723">
        <ele>115.01489257812</ele>
        <time>2015-10-01T13:24:18Z</time>
      </trkpt>
      <trkpt lat="48.12015" lon="-4.17223">
        <ele>115.01489257812</ele>
        <time>2015-10-01T13:24:24Z</time>
      </trkpt>
      <trkpt lat="48.12014" lon="-4.17214">
        <ele>116.9375</ele>
        <time>2015-10-01T13:24:29Z</time>
      </trkpt>
      <trkpt lat="48.12014" lon="-4.17205">
        <ele>116.9375</ele>
        <time>2015-10-01T13:24:34Z</time>
      </trkpt>
      <trkpt lat="48.12014" lon="-4.17194">
        <ele>117.89880371094</ele>
        <time>2015-10-01T13:24:40Z</time>
      </trkpt>
      <trkpt lat="48.12014" lon="-4.17181">
        <ele>119.3408203125</ele>
        <time>2015-10-01T13:24:46Z</time>
      </trkpt>
      <trkpt lat="48.12015" lon="-4.17172">
        <ele>120.78283691406</ele>
        <time>2015-10-01T13:24:51Z</time>
      </trkpt>
      <trkpt lat="48.12015" lon="-4.17157">
        <ele>121.26354980469</ele>
        <time>2015-10-01T13:24:59Z</time>
      </trkpt>
      <trkpt lat="48.12015" lon="-4.17152">
        <ele>121.26354980469</ele>
        <time>2015-10-01T13:25:02Z</time>
      </trkpt>
      <trkpt lat="48.12016" lon="-4.17145">
        <ele>120.78283691406</ele>
        <time>2015-10-01T13:25:06Z</time>
      </trkpt>
      <trkpt lat="48.12016" lon="-4.17129">
        <ele>121.744140625</ele>
        <time>2015-10-01T13:25:15Z</time>
      </trkpt>
      <trkpt lat="48.12016" lon="-4.17125">
        <ele>121.744140625</ele>
        <time>2015-10-01T13:25:17Z</time>
      </trkpt>
      <trkpt lat="48.12017" lon="-4.17116">
        <ele>120.30212402344</ele>
        <time>2015-10-01T13:25:22Z</time>
      </trkpt>
      <trkpt lat="48.12017" lon="-4.17098">
        <ele>119.82141113281</ele>
        <time>2015-10-01T13:25:32Z</time>
      </trkpt>
      <trkpt lat="48.12017" lon="-4.17096">
        <ele>119.82141113281</ele>
        <time>2015-10-01T13:25:33Z</time>
      </trkpt>
      <trkpt lat="48.12018" lon="-4.17081">
        <ele>119.82141113281</ele>
        <time>2015-10-01T13:25:41Z</time>
      </trkpt>
      <trkpt lat="48.12018" lon="-4.17067">
        <ele>119.82141113281</ele>
        <time>2015-10-01T13:25:48Z</time>
      </trkpt>
      <trkpt lat="48.12018" lon="-4.17063">
        <ele>118.86010742188</ele>
        <time>2015-10-01T13:25:50Z</time>
      </trkpt>
      <trkpt lat="48.12019" lon="-4.17057">
        <ele>118.86010742188</ele>
        <time>2015-10-01T13:25:54Z</time>
      </trkpt>
      <trkpt lat="48.12019" lon="-4.17049">
        <ele>118.86010742188</ele>
        <time>2015-10-01T13:25:58Z</time>
      </trkpt>
      <trkpt lat="48.1202" lon="-4.17046">
        <ele>119.3408203125</ele>
        <time>2015-10-01T13:26:00Z</time>
      </trkpt>
      <trkpt lat="48.1202" lon="-4.17031">
        <ele>119.3408203125</ele>
        <time>2015-10-01T13:26:08Z</time>
      </trkpt>
      <trkpt lat="48.1202" lon="-4.17021">
        <ele>119.82141113281</ele>
        <time>2015-10-01T13:26:14Z</time>
      </trkpt>
      <trkpt lat="48.12025" lon="-4.17014">
        <ele>120.78283691406</ele>
        <time>2015-10-01T13:26:19Z</time>
      </trkpt>
      <trkpt lat="48.12024" lon="-4.1701">
        <ele>120.78283691406</ele>
        <time>2015-10-01T13:26:21Z</time>
      </trkpt>
      <trkpt lat="48.12024" lon="-4.17006">
        <ele>121.26354980469</ele>
        <time>2015-10-01T13:26:23Z</time>
      </trkpt>
      <trkpt lat="48.12022" lon="-4.16994">
        <ele>121.26354980469</ele>
        <time>2015-10-01T13:26:29Z</time>
      </trkpt>
      <trkpt lat="48.1202" lon="-4.16988">
        <ele>121.744140625</ele>
        <time>2015-10-01T13:26:32Z</time>
      </trkpt>
      <trkpt lat="48.1202" lon="-4.16982">
        <ele>122.22473144531</ele>
        <time>2015-10-01T13:26:35Z</time>
      </trkpt>
      <trkpt lat="48.12021" lon="-4.16967">
        <ele>120.78283691406</ele>
        <time>2015-10-01T13:26:43Z</time>
      </trkpt>
      <trkpt lat="48.12022" lon="-4.16965">
        <ele>120.78283691406</ele>
        <time>2015-10-01T13:26:44Z</time>
      </trkpt>
      <trkpt lat="48.12022" lon="-4.16957">
        <ele>118.86010742188</ele>
        <time>2015-10-01T13:26:48Z</time>
      </trkpt>
      <trkpt lat="48.12022" lon="-4.16951">
        <ele>118.37939453125</ele>
        <time>2015-10-01T13:26:52Z</time>
      </trkpt>
      <trkpt lat="48.12022" lon="-4.16943">
        <ele>118.37939453125</ele>
        <time>2015-10-01T13:26:56Z</time>
      </trkpt>
      <trkpt lat="48.12022" lon="-4.16935">
        <ele>118.37939453125</ele>
        <time>2015-10-01T13:27:01Z</time>
      </trkpt>
      <trkpt lat="48.12022" lon="-4.16926">
        <ele>117.89880371094</ele>
        <time>2015-10-01T13:27:06Z</time>
      </trkpt>
      <trkpt lat="48.12021" lon="-4.16921">
        <ele>117.41821289062</ele>
        <time>2015-10-01T13:27:09Z</time>
      </trkpt>
      <trkpt lat="48.12021" lon="-4.16919">
        <ele>117.41821289062</ele>
        <time>2015-10-01T13:27:10Z</time>
      </trkpt>
      <trkpt lat="48.1202" lon="-4.1691">
        <ele>117.41821289062</ele>
        <time>2015-10-01T13:27:14Z</time>
      </trkpt>
      <trkpt lat="48.12021" lon="-4.16905">
        <ele>118.86010742188</ele>
        <time>2015-10-01T13:27:20Z</time>
      </trkpt>
      <trkpt lat="48.12022" lon="-4.16904">
        <ele>119.82141113281</ele>
        <time>2015-10-01T13:27:24Z</time>
      </trkpt>
      <trkpt lat="48.12025" lon="-4.16905">
        <ele>119.3408203125</ele>
        <time>2015-10-01T13:27:28Z</time>
      </trkpt>
      <trkpt lat="48.12029" lon="-4.16909">
        <ele>119.3408203125</ele>
        <time>2015-10-01T13:27:32Z</time>
      </trkpt>
      <trkpt lat="48.12031" lon="-4.16912">
        <ele>118.37939453125</ele>
        <time>2015-10-01T13:27:35Z</time>
      </trkpt>
      <trkpt lat="48.12039" lon="-4.1692">
        <ele>117.41821289062</ele>
        <time>2015-10-01T13:27:43Z</time>
      </trkpt>
      <trkpt lat="48.12045" lon="-4.16928">
        <ele>116.45678710938</ele>
        <time>2015-10-01T13:27:51Z</time>
      </trkpt>
      <trkpt lat="48.12046" lon="-4.16929">
        <ele>116.45678710938</ele>
        <time>2015-10-01T13:27:52Z</time>
      </trkpt>
      <trkpt lat="48.1205" lon="-4.16937">
        <ele>116.45678710938</ele>
        <time>2015-10-01T13:27:59Z</time>
      </trkpt>
      <trkpt lat="48.12054" lon="-4.16944">
        <ele>117.41821289062</ele>
        <time>2015-10-01T13:28:06Z</time>
      </trkpt>
      <trkpt lat="48.12053" lon="-4.16942">
        <ele>117.41821289062</ele>
        <time>2015-10-01T13:28:10Z</time>
      </trkpt>
      <trkpt lat="48.12048" lon="-4.16938">
        <ele>116.9375</ele>
        <time>2015-10-01T13:28:16Z</time>
      </trkpt>
      <trkpt lat="48.12046" lon="-4.16935">
        <ele>116.9375</ele>
        <time>2015-10-01T13:28:18Z</time>
      </trkpt>
      <trkpt lat="48.12041" lon="-4.16926">
        <ele>117.41821289062</ele>
        <time>2015-10-01T13:28:24Z</time>
      </trkpt>
      <trkpt lat="48.12039" lon="-4.16916">
        <ele>116.45678710938</ele>
        <time>2015-10-01T13:28:29Z</time>
      </trkpt>
      <trkpt lat="48.12035" lon="-4.16911">
        <ele>118.37939453125</ele>
        <time>2015-10-01T13:28:33Z</time>
      </trkpt>
      <trkpt lat="48.12031" lon="-4.16903">
        <ele>118.86010742188</ele>
        <time>2015-10-01T13:28:39Z</time>
      </trkpt>
      <trkpt lat="48.12025" lon="-4.16897">
        <ele>119.82141113281</ele>
        <time>2015-10-01T13:28:44Z</time>
      </trkpt>
      <trkpt lat="48.12023" lon="-4.16893">
        <ele>120.78283691406</ele>
        <time>2015-10-01T13:28:47Z</time>
      </trkpt>
      <trkpt lat="48.1202" lon="-4.16887">
        <ele>121.744140625</ele>
        <time>2015-10-01T13:28:51Z</time>
      </trkpt>
      <trkpt lat="48.12017" lon="-4.16881">
        <ele>123.18615722656</ele>
        <time>2015-10-01T13:28:54Z</time>
      </trkpt>
      <trkpt lat="48.12015" lon="-4.16878">
        <ele>123.18615722656</ele>
        <time>2015-10-01T13:28:57Z</time>
      </trkpt>
      <trkpt lat="48.12013" lon="-4.16879">
        <ele>118.37939453125</ele>
        <time>2015-10-01T13:29:02Z</time>
      </trkpt>
      <trkpt lat="48.12006" lon="-4.16868">
        <ele>115.97619628906</ele>
        <time>2015-10-01T13:29:12Z</time>
      </trkpt>
      <trkpt lat="48.12005" lon="-4.16865">
        <ele>115.97619628906</ele>
        <time>2015-10-01T13:29:14Z</time>
      </trkpt>
      <trkpt lat="48.12006" lon="-4.16861">
        <ele>115.01489257812</ele>
        <time>2015-10-01T13:29:21Z</time>
      </trkpt>
      <trkpt lat="48.12006" lon="-4.1686">
        <ele>115.97619628906</ele>
        <time>2015-10-01T13:29:28Z</time>
      </trkpt>
      <trkpt lat="48.1201" lon="-4.16857">
        <ele>115.97619628906</ele>
        <time>2015-10-01T13:29:33Z</time>
      </trkpt>
      <trkpt lat="48.12014" lon="-4.16857">
        <ele>116.45678710938</ele>
        <time>2015-10-01T13:29:37Z</time>
      </trkpt>
      <trkpt lat="48.12021" lon="-4.16857">
        <ele>115.97619628906</ele>
        <time>2015-10-01T13:29:43Z</time>
      </trkpt>
      <trkpt lat="48.12026" lon="-4.16858">
        <ele>116.45678710938</ele>
        <time>2015-10-01T13:29:48Z</time>
      </trkpt>
      <trkpt lat="48.12036" lon="-4.16858">
        <ele>117.41821289062</ele>
        <time>2015-10-01T13:29:56Z</time>
      </trkpt>
      <trkpt lat="48.12044" lon="-4.1686">
        <ele>116.9375</ele>
        <time>2015-10-01T13:30:04Z</time>
      </trkpt>
      <trkpt lat="48.12053" lon="-4.16858">
        <ele>118.37939453125</ele>
        <time>2015-10-01T13:30:11Z</time>
      </trkpt>
      <trkpt lat="48.12063" lon="-4.16857">
        <ele>118.86010742188</ele>
        <time>2015-10-01T13:30:19Z</time>
      </trkpt>
      <trkpt lat="48.12074" lon="-4.16854">
        <ele>118.37939453125</ele>
        <time>2015-10-01T13:30:27Z</time>
      </trkpt>
      <trkpt lat="48.12083" lon="-4.16853">
        <ele>117.89880371094</ele>
        <time>2015-10-01T13:30:35Z</time>
      </trkpt>
      <trkpt lat="48.12093" lon="-4.16851">
        <ele>117.41821289062</ele>
        <time>2015-10-01T13:30:43Z</time>
      </trkpt>
      <trkpt lat="48.12102" lon="-4.1685">
        <ele>116.9375</ele>
        <time>2015-10-01T13:30:50Z</time>
      </trkpt>
      <trkpt lat="48.12107" lon="-4.1685">
        <ele>116.45678710938</ele>
        <time>2015-10-01T13:30:56Z</time>
      </trkpt>
      <trkpt lat="48.1211" lon="-4.1685">
        <ele>115.97619628906</ele>
        <time>2015-10-01T13:31:02Z</time>
      </trkpt>
      <trkpt lat="48.12112" lon="-4.16849">
        <ele>115.97619628906</ele>
        <time>2015-10-01T13:31:04Z</time>
      </trkpt>
      <trkpt lat="48.12122" lon="-4.16849">
        <ele>114.5341796875</ele>
        <time>2015-10-01T13:31:11Z</time>
      </trkpt>
      <trkpt lat="48.12127" lon="-4.16849">
        <ele>114.05358886719</ele>
        <time>2015-10-01T13:31:15Z</time>
      </trkpt>
      <trkpt lat="48.12133" lon="-4.1685">
        <ele>114.05358886719</ele>
        <time>2015-10-01T13:31:21Z</time>
      </trkpt>
      <trkpt lat="48.12141" lon="-4.16853">
        <ele>114.5341796875</ele>
        <time>2015-10-01T13:31:28Z</time>
      </trkpt>
      <trkpt lat="48.12144" lon="-4.16855">
        <ele>115.01489257812</ele>
        <time>2015-10-01T13:31:30Z</time>
      </trkpt>
      <trkpt lat="48.12154" lon="-4.16857">
        <ele>114.5341796875</ele>
        <time>2015-10-01T13:31:38Z</time>
      </trkpt>
      <trkpt lat="48.12162" lon="-4.16862">
        <ele>114.5341796875</ele>
        <time>2015-10-01T13:31:45Z</time>
      </trkpt>
      <trkpt lat="48.12169" lon="-4.16867">
        <ele>114.05358886719</ele>
        <time>2015-10-01T13:31:52Z</time>
      </trkpt>
      <trkpt lat="48.12175" lon="-4.16873">
        <ele>113.57299804688</ele>
        <time>2015-10-01T13:31:58Z</time>
      </trkpt>
      <trkpt lat="48.1218" lon="-4.16879">
        <ele>113.57299804688</ele>
        <time>2015-10-01T13:32:04Z</time>
      </trkpt>
      <trkpt lat="48.12181" lon="-4.16879">
        <ele>113.57299804688</ele>
        <time>2015-10-01T13:32:05Z</time>
      </trkpt>
      <trkpt lat="48.12191" lon="-4.16883">
        <ele>112.13098144531</ele>
        <time>2015-10-01T13:32:13Z</time>
      </trkpt>
      <trkpt lat="48.12192" lon="-4.16884">
        <ele>112.13098144531</ele>
        <time>2015-10-01T13:32:14Z</time>
      </trkpt>
      <trkpt lat="48.12192" lon="-4.16885">
        <ele>112.13098144531</ele>
        <time>2015-10-01T13:32:26Z</time>
      </trkpt>
      <trkpt lat="48.12191" lon="-4.16882">
        <ele>113.57299804688</ele>
        <time>2015-10-01T13:32:34Z</time>
      </trkpt>
      <trkpt lat="48.12194" lon="-4.16884">
        <ele>113.57299804688</ele>
        <time>2015-10-01T13:32:58Z</time>
      </trkpt>
      <trkpt lat="48.12199" lon="-4.16888">
        <ele>111.65026855469</ele>
        <time>2015-10-01T13:33:03Z</time>
      </trkpt>
      <trkpt lat="48.12202" lon="-4.16892">
        <ele>109.72766113281</ele>
        <time>2015-10-01T13:33:09Z</time>
      </trkpt>
      <trkpt lat="48.1221" lon="-4.16897">
        <ele>106.84362792969</ele>
        <time>2015-10-01T13:33:15Z</time>
      </trkpt>
      <trkpt lat="48.12212" lon="-4.16898">
        <ele>106.36303710938</ele>
        <time>2015-10-01T13:33:16Z</time>
      </trkpt>
      <trkpt lat="48.12217" lon="-4.169">
        <ele>106.36303710938</ele>
        <time>2015-10-01T13:33:22Z</time>
      </trkpt>
      <trkpt lat="48.12221" lon="-4.16901">
        <ele>106.36303710938</ele>
        <time>2015-10-01T13:33:25Z</time>
      </trkpt>
      <trkpt lat="48.12229" lon="-4.16903">
        <ele>106.84362792969</ele>
        <time>2015-10-01T13:33:31Z</time>
      </trkpt>
      <trkpt lat="48.12236" lon="-4.16906">
        <ele>105.40173339844</ele>
        <time>2015-10-01T13:33:37Z</time>
      </trkpt>
      <trkpt lat="48.12242" lon="-4.16908">
        <ele>103.47900390625</ele>
        <time>2015-10-01T13:33:42Z</time>
      </trkpt>
      <trkpt lat="48.12248" lon="-4.1691">
        <ele>102.037109375</ele>
        <time>2015-10-01T13:33:47Z</time>
      </trkpt>
      <trkpt lat="48.12251" lon="-4.1691">
        <ele>100.59509277344</ele>
        <time>2015-10-01T13:33:50Z</time>
      </trkpt>
      <trkpt lat="48.12269" lon="-4.1691">
        <ele>105.88244628906</ele>
        <time>2015-10-01T13:34:00Z</time>
      </trkpt>
      <trkpt lat="48.1227" lon="-4.1691">
        <ele>105.88244628906</ele>
        <time>2015-10-01T13:34:01Z</time>
      </trkpt>
      <trkpt lat="48.1228" lon="-4.16912">
        <ele>105.40173339844</ele>
        <time>2015-10-01T13:34:09Z</time>
      </trkpt>
      <trkpt lat="48.12282" lon="-4.16913">
        <ele>103.95971679688</ele>
        <time>2015-10-01T13:34:11Z</time>
      </trkpt>
      <trkpt lat="48.12289" lon="-4.16915">
        <ele>102.037109375</ele>
        <time>2015-10-01T13:34:18Z</time>
      </trkpt>
      <trkpt lat="48.12296" lon="-4.16917">
        <ele>101.07568359375</ele>
        <time>2015-10-01T13:34:24Z</time>
      </trkpt>
      <trkpt lat="48.12306" lon="-4.16919">
        <ele>102.037109375</ele>
        <time>2015-10-01T13:34:30Z</time>
      </trkpt>
      <trkpt lat="48.12317" lon="-4.16919">
        <ele>103.47900390625</ele>
        <time>2015-10-01T13:34:37Z</time>
      </trkpt>
      <trkpt lat="48.12324" lon="-4.16919">
        <ele>103.47900390625</ele>
        <time>2015-10-01T13:34:42Z</time>
      </trkpt>
      <trkpt lat="48.12329" lon="-4.1692">
        <ele>103.47900390625</ele>
        <time>2015-10-01T13:34:45Z</time>
      </trkpt>
      <trkpt lat="48.12335" lon="-4.16923">
        <ele>102.037109375</ele>
        <time>2015-10-01T13:34:51Z</time>
      </trkpt>
      <trkpt lat="48.12342" lon="-4.16925">
        <ele>101.07568359375</ele>
        <time>2015-10-01T13:34:57Z</time>
      </trkpt>
      <trkpt lat="48.12349" lon="-4.16924">
        <ele>101.55639648438</ele>
        <time>2015-10-01T13:35:02Z</time>
      </trkpt>
      <trkpt lat="48.12351" lon="-4.16925">
        <ele>101.55639648438</ele>
        <time>2015-10-01T13:35:03Z</time>
      </trkpt>
      <trkpt lat="48.12353" lon="-4.16926">
        <ele>101.07568359375</ele>
        <time>2015-10-01T13:35:05Z</time>
      </trkpt>
      <trkpt lat="48.12358" lon="-4.16927">
        <ele>100.11450195312</ele>
        <time>2015-10-01T13:35:11Z</time>
      </trkpt>
      <trkpt lat="48.12362" lon="-4.16926">
        <ele>100.11450195312</ele>
        <time>2015-10-01T13:35:14Z</time>
      </trkpt>
      <trkpt lat="48.12366" lon="-4.16926">
        <ele>100.59509277344</ele>
        <time>2015-10-01T13:35:16Z</time>
      </trkpt>
      <trkpt lat="48.12373" lon="-4.16925">
        <ele>101.55639648438</ele>
        <time>2015-10-01T13:35:20Z</time>
      </trkpt>
      <trkpt lat="48.12378" lon="-4.16926">
        <ele>101.07568359375</ele>
        <time>2015-10-01T13:35:25Z</time>
      </trkpt>
      <trkpt lat="48.12389" lon="-4.16926">
        <ele>102.037109375</ele>
        <time>2015-10-01T13:35:33Z</time>
      </trkpt>
      <trkpt lat="48.12407" lon="-4.16925">
        <ele>106.84362792969</ele>
        <time>2015-10-01T13:35:43Z</time>
      </trkpt>
      <trkpt lat="48.12421" lon="-4.16925">
        <ele>107.80505371094</ele>
        <time>2015-10-01T13:35:53Z</time>
      </trkpt>
      <trkpt lat="48.12432" lon="-4.16926">
        <ele>108.28564453125</ele>
        <time>2015-10-01T13:36:01Z</time>
      </trkpt>
      <trkpt lat="48.12443" lon="-4.16927">
        <ele>108.76623535156</ele>
        <time>2015-10-01T13:36:09Z</time>
      </trkpt>
      <trkpt lat="48.12456" lon="-4.16928">
        <ele>108.28564453125</ele>
        <time>2015-10-01T13:36:19Z</time>
      </trkpt>
      <trkpt lat="48.12458" lon="-4.16929">
        <ele>108.28564453125</ele>
        <time>2015-10-01T13:36:21Z</time>
      </trkpt>
      <trkpt lat="48.12464" lon="-4.16929">
        <ele>107.80505371094</ele>
        <time>2015-10-01T13:36:26Z</time>
      </trkpt>
      <trkpt lat="48.12468" lon="-4.1693">
        <ele>107.80505371094</ele>
        <time>2015-10-01T13:36:30Z</time>
      </trkpt>
      <trkpt lat="48.12473" lon="-4.16931">
        <ele>108.28564453125</ele>
        <time>2015-10-01T13:36:35Z</time>
      </trkpt>
      <trkpt lat="48.1248" lon="-4.16933">
        <ele>107.32434082031</ele>
        <time>2015-10-01T13:36:42Z</time>
      </trkpt>
      <trkpt lat="48.12488" lon="-4.16931">
        <ele>105.88244628906</ele>
        <time>2015-10-01T13:36:48Z</time>
      </trkpt>
      <trkpt lat="48.12492" lon="-4.16931">
        <ele>105.88244628906</ele>
        <time>2015-10-01T13:36:50Z</time>
      </trkpt>
      <trkpt lat="48.12504" lon="-4.16931">
        <ele>105.40173339844</ele>
        <time>2015-10-01T13:36:58Z</time>
      </trkpt>
      <trkpt lat="48.12515" lon="-4.1693">
        <ele>106.36303710938</ele>
        <time>2015-10-01T13:37:05Z</time>
      </trkpt>
      <trkpt lat="48.12528" lon="-4.16928">
        <ele>107.32434082031</ele>
        <time>2015-10-01T13:37:13Z</time>
      </trkpt>
      <trkpt lat="48.12542" lon="-4.1693">
        <ele>108.76623535156</ele>
        <time>2015-10-01T13:37:23Z</time>
      </trkpt>
      <trkpt lat="48.12555" lon="-4.1693">
        <ele>109.24694824219</ele>
        <time>2015-10-01T13:37:32Z</time>
      </trkpt>
      <trkpt lat="48.12566" lon="-4.1693">
        <ele>109.24694824219</ele>
        <time>2015-10-01T13:37:40Z</time>
      </trkpt>
      <trkpt lat="48.12575" lon="-4.1693">
        <ele>109.24694824219</ele>
        <time>2015-10-01T13:37:47Z</time>
      </trkpt>
      <trkpt lat="48.12585" lon="-4.16929">
        <ele>108.76623535156</ele>
        <time>2015-10-01T13:37:54Z</time>
      </trkpt>
      <trkpt lat="48.12591" lon="-4.16929">
        <ele>106.84362792969</ele>
        <time>2015-10-01T13:37:59Z</time>
      </trkpt>
      <trkpt lat="48.12599" lon="-4.16929">
        <ele>105.40173339844</ele>
        <time>2015-10-01T13:38:06Z</time>
      </trkpt>
      <trkpt lat="48.12604" lon="-4.16929">
        <ele>105.40173339844</ele>
        <time>2015-10-01T13:38:09Z</time>
      </trkpt>
      <trkpt lat="48.12612" lon="-4.16929">
        <ele>104.92102050781</ele>
        <time>2015-10-01T13:38:16Z</time>
      </trkpt>
      <trkpt lat="48.12617" lon="-4.16931">
        <ele>102.99829101562</ele>
        <time>2015-10-01T13:38:21Z</time>
      </trkpt>
      <trkpt lat="48.12622" lon="-4.16931">
        <ele>102.51770019531</ele>
        <time>2015-10-01T13:38:25Z</time>
      </trkpt>
      <trkpt lat="48.12631" lon="-4.16931">
        <ele>102.037109375</ele>
        <time>2015-10-01T13:38:32Z</time>
      </trkpt>
      <trkpt lat="48.12643" lon="-4.16932">
        <ele>101.07568359375</ele>
        <time>2015-10-01T13:38:40Z</time>
      </trkpt>
      <trkpt lat="48.1265" lon="-4.1693">
        <ele>101.55639648438</ele>
        <time>2015-10-01T13:38:44Z</time>
      </trkpt>
      <trkpt lat="48.12661" lon="-4.1693">
        <ele>100.59509277344</ele>
        <time>2015-10-01T13:38:52Z</time>
      </trkpt>
      <trkpt lat="48.1267" lon="-4.16924">
        <ele>100.59509277344</ele>
        <time>2015-10-01T13:38:59Z</time>
      </trkpt>
      <trkpt lat="48.12675" lon="-4.16914">
        <ele>101.55639648438</ele>
        <time>2015-10-01T13:39:05Z</time>
      </trkpt>
      <trkpt lat="48.12679" lon="-4.16904">
        <ele>102.51770019531</ele>
        <time>2015-10-01T13:39:11Z</time>
      </trkpt>
      <trkpt lat="48.12682" lon="-4.16891">
        <ele>102.51770019531</ele>
        <time>2015-10-01T13:39:20Z</time>
      </trkpt>
      <trkpt lat="48.12682" lon="-4.16887">
        <ele>102.51770019531</ele>
        <time>2015-10-01T13:39:22Z</time>
      </trkpt>
      <trkpt lat="48.12684" lon="-4.16878">
        <ele>102.99829101562</ele>
        <time>2015-10-01T13:39:26Z</time>
      </trkpt>
      <trkpt lat="48.1269" lon="-4.16858">
        <ele>104.92102050781</ele>
        <time>2015-10-01T13:39:36Z</time>
      </trkpt>
      <trkpt lat="48.12692" lon="-4.16853">
        <ele>105.40173339844</ele>
        <time>2015-10-01T13:39:39Z</time>
      </trkpt>
      <trkpt lat="48.12693" lon="-4.16844">
        <ele>105.40173339844</ele>
        <time>2015-10-01T13:39:43Z</time>
      </trkpt>
      <trkpt lat="48.12695" lon="-4.16835">
        <ele>104.92102050781</ele>
        <time>2015-10-01T13:39:48Z</time>
      </trkpt>
      <trkpt lat="48.12698" lon="-4.16825">
        <ele>105.40173339844</ele>
        <time>2015-10-01T13:39:53Z</time>
      </trkpt>
      <trkpt lat="48.12699" lon="-4.16821">
        <ele>105.40173339844</ele>
        <time>2015-10-01T13:39:55Z</time>
      </trkpt>
      <trkpt lat="48.12702" lon="-4.16813">
        <ele>105.40173339844</ele>
        <time>2015-10-01T13:40:00Z</time>
      </trkpt>
      <trkpt lat="48.12704" lon="-4.16805">
        <ele>105.88244628906</ele>
        <time>2015-10-01T13:40:04Z</time>
      </trkpt>
      <trkpt lat="48.12706" lon="-4.16802">
        <ele>106.36303710938</ele>
        <time>2015-10-01T13:40:06Z</time>
      </trkpt>
      <trkpt lat="48.12711" lon="-4.16781">
        <ele>106.84362792969</ele>
        <time>2015-10-01T13:40:17Z</time>
      </trkpt>
      <trkpt lat="48.12712" lon="-4.16773">
        <ele>106.36303710938</ele>
        <time>2015-10-01T13:40:21Z</time>
      </trkpt>
      <trkpt lat="48.12717" lon="-4.16752">
        <ele>106.36303710938</ele>
        <time>2015-10-01T13:40:32Z</time>
      </trkpt>
      <trkpt lat="48.1272" lon="-4.16735">
        <ele>104.92102050781</ele>
        <time>2015-10-01T13:40:41Z</time>
      </trkpt>
      <trkpt lat="48.12724" lon="-4.1672">
        <ele>104.4404296875</ele>
        <time>2015-10-01T13:40:49Z</time>
      </trkpt>
      <trkpt lat="48.12727" lon="-4.16706">
        <ele>103.95971679688</ele>
        <time>2015-10-01T13:40:57Z</time>
      </trkpt>
      <trkpt lat="48.12734" lon="-4.16687">
        <ele>105.40173339844</ele>
        <time>2015-10-01T13:41:07Z</time>
      </trkpt>
      <trkpt lat="48.12737" lon="-4.16679">
        <ele>105.88244628906</ele>
        <time>2015-10-01T13:41:11Z</time>
      </trkpt>
      <trkpt lat="48.12744" lon="-4.16664">
        <ele>105.88244628906</ele>
        <time>2015-10-01T13:41:20Z</time>
      </trkpt>
      <trkpt lat="48.12751" lon="-4.16648">
        <ele>106.84362792969</ele>
        <time>2015-10-01T13:41:30Z</time>
      </trkpt>
      <trkpt lat="48.12759" lon="-4.16633">
        <ele>106.84362792969</ele>
        <time>2015-10-01T13:41:39Z</time>
      </trkpt>
      <trkpt lat="48.12765" lon="-4.16621">
        <ele>105.88244628906</ele>
        <time>2015-10-01T13:41:47Z</time>
      </trkpt>
      <trkpt lat="48.1277" lon="-4.16609">
        <ele>105.88244628906</ele>
        <time>2015-10-01T13:41:55Z</time>
      </trkpt>
      <trkpt lat="48.12777" lon="-4.16597">
        <ele>106.36303710938</ele>
        <time>2015-10-01T13:42:03Z</time>
      </trkpt>
      <trkpt lat="48.12783" lon="-4.16583">
        <ele>105.88244628906</ele>
        <time>2015-10-01T13:42:11Z</time>
      </trkpt>
      <trkpt lat="48.12787" lon="-4.16569">
        <ele>104.92102050781</ele>
        <time>2015-10-01T13:42:19Z</time>
      </trkpt>
      <trkpt lat="48.12788" lon="-4.16566">
        <ele>104.92102050781</ele>
        <time>2015-10-01T13:42:21Z</time>
      </trkpt>
      <trkpt lat="48.12789" lon="-4.16558">
        <ele>104.4404296875</ele>
        <time>2015-10-01T13:42:25Z</time>
      </trkpt>
      <trkpt lat="48.12786" lon="-4.16549">
        <ele>103.47900390625</ele>
        <time>2015-10-01T13:42:31Z</time>
      </trkpt>
      <trkpt lat="48.12777" lon="-4.16536">
        <ele>102.51770019531</ele>
        <time>2015-10-01T13:42:40Z</time>
      </trkpt>
      <trkpt lat="48.1277" lon="-4.16529">
        <ele>101.55639648438</ele>
        <time>2015-10-01T13:42:46Z</time>
      </trkpt>
      <trkpt lat="48.12759" lon="-4.16515">
        <ele>101.07568359375</ele>
        <time>2015-10-01T13:42:57Z</time>
      </trkpt>
      <trkpt lat="48.12751" lon="-4.16505">
        <ele>100.59509277344</ele>
        <time>2015-10-01T13:43:06Z</time>
      </trkpt>
      <trkpt lat="48.1274" lon="-4.1649">
        <ele>100.11450195312</ele>
        <time>2015-10-01T13:43:18Z</time>
      </trkpt>
      <trkpt lat="48.12736" lon="-4.16484">
        <ele>100.11450195312</ele>
        <time>2015-10-01T13:43:22Z</time>
      </trkpt>
      <trkpt lat="48.12729" lon="-4.16476">
        <ele>100.59509277344</ele>
        <time>2015-10-01T13:43:28Z</time>
      </trkpt>
      <trkpt lat="48.12724" lon="-4.16467">
        <ele>101.07568359375</ele>
        <time>2015-10-01T13:43:34Z</time>
      </trkpt>
      <trkpt lat="48.12716" lon="-4.16456">
        <ele>101.55639648438</ele>
        <time>2015-10-01T13:43:42Z</time>
      </trkpt>
      <trkpt lat="48.12708" lon="-4.16447">
        <ele>101.55639648438</ele>
        <time>2015-10-01T13:43:50Z</time>
      </trkpt>
      <trkpt lat="48.12698" lon="-4.16435">
        <ele>98.672485351562</ele>
        <time>2015-10-01T13:44:01Z</time>
      </trkpt>
      <trkpt lat="48.12689" lon="-4.16425">
        <ele>97.711181640625</ele>
        <time>2015-10-01T13:44:09Z</time>
      </trkpt>
      <trkpt lat="48.12681" lon="-4.16415">
        <ele>96.749877929688</ele>
        <time>2015-10-01T13:44:18Z</time>
      </trkpt>
      <trkpt lat="48.12673" lon="-4.16407">
        <ele>95.307739257812</ele>
        <time>2015-10-01T13:44:26Z</time>
      </trkpt>
      <trkpt lat="48.12666" lon="-4.16398">
        <ele>97.23046875</ele>
        <time>2015-10-01T13:44:33Z</time>
      </trkpt>
      <trkpt lat="48.12661" lon="-4.16391">
        <ele>98.19189453125</ele>
        <time>2015-10-01T13:44:39Z</time>
      </trkpt>
      <trkpt lat="48.12656" lon="-4.16382">
        <ele>98.19189453125</ele>
        <time>2015-10-01T13:44:44Z</time>
      </trkpt>
      <trkpt lat="48.12649" lon="-4.16375">
        <ele>96.269287109375</ele>
        <time>2015-10-01T13:44:50Z</time>
      </trkpt>
      <trkpt lat="48.12641" lon="-4.16363">
        <ele>97.23046875</ele>
        <time>2015-10-01T13:44:58Z</time>
      </trkpt>
      <trkpt lat="48.12636" lon="-4.16355">
        <ele>98.672485351562</ele>
        <time>2015-10-01T13:45:03Z</time>
      </trkpt>
      <trkpt lat="48.1263" lon="-4.16347">
        <ele>98.672485351562</ele>
        <time>2015-10-01T13:45:09Z</time>
      </trkpt>
      <trkpt lat="48.12625" lon="-4.1634">
        <ele>99.153076171875</ele>
        <time>2015-10-01T13:45:14Z</time>
      </trkpt>
      <trkpt lat="48.12618" lon="-4.16332">
        <ele>100.11450195312</ele>
        <time>2015-10-01T13:45:20Z</time>
      </trkpt>
      <trkpt lat="48.1261" lon="-4.16321">
        <ele>99.153076171875</ele>
        <time>2015-10-01T13:45:29Z</time>
      </trkpt>
      <trkpt lat="48.12603" lon="-4.16314">
        <ele>97.23046875</ele>
        <time>2015-10-01T13:45:37Z</time>
      </trkpt>
      <trkpt lat="48.12594" lon="-4.16303">
        <ele>97.23046875</ele>
        <time>2015-10-01T13:45:46Z</time>
      </trkpt>
      <trkpt lat="48.12586" lon="-4.16292">
        <ele>97.711181640625</ele>
        <time>2015-10-01T13:45:55Z</time>
      </trkpt>
      <trkpt lat="48.12581" lon="-4.16282">
        <ele>99.153076171875</ele>
        <time>2015-10-01T13:46:02Z</time>
      </trkpt>
      <trkpt lat="48.12578" lon="-4.16267">
        <ele>99.6337890625</ele>
        <time>2015-10-01T13:46:10Z</time>
      </trkpt>
      <trkpt lat="48.12577" lon="-4.16258">
        <ele>100.59509277344</ele>
        <time>2015-10-01T13:46:14Z</time>
      </trkpt>
      <trkpt lat="48.12577" lon="-4.16251">
        <ele>99.153076171875</ele>
        <time>2015-10-01T13:46:18Z</time>
      </trkpt>
      <trkpt lat="48.12575" lon="-4.16236">
        <ele>99.6337890625</ele>
        <time>2015-10-01T13:46:26Z</time>
      </trkpt>
      <trkpt lat="48.12574" lon="-4.16222">
        <ele>100.59509277344</ele>
        <time>2015-10-01T13:46:33Z</time>
      </trkpt>
      <trkpt lat="48.12573" lon="-4.16212">
        <ele>101.07568359375</ele>
        <time>2015-10-01T13:46:38Z</time>
      </trkpt>
      <trkpt lat="48.12573" lon="-4.16206">
        <ele>100.59509277344</ele>
        <time>2015-10-01T13:46:41Z</time>
      </trkpt>
      <trkpt lat="48.12572" lon="-4.16193">
        <ele>101.55639648438</ele>
        <time>2015-10-01T13:46:48Z</time>
      </trkpt>
      <trkpt lat="48.1257" lon="-4.16177">
        <ele>102.99829101562</ele>
        <time>2015-10-01T13:46:56Z</time>
      </trkpt>
      <trkpt lat="48.12567" lon="-4.16163">
        <ele>102.99829101562</ele>
        <time>2015-10-01T13:47:03Z</time>
      </trkpt>
      <trkpt lat="48.12567" lon="-4.16158">
        <ele>102.99829101562</ele>
        <time>2015-10-01T13:47:06Z</time>
      </trkpt>
      <trkpt lat="48.12565" lon="-4.16151">
        <ele>103.47900390625</ele>
        <time>2015-10-01T13:47:10Z</time>
      </trkpt>
      <trkpt lat="48.12562" lon="-4.16135">
        <ele>103.95971679688</ele>
        <time>2015-10-01T13:47:18Z</time>
      </trkpt>
      <trkpt lat="48.1256" lon="-4.16116">
        <ele>103.47900390625</ele>
        <time>2015-10-01T13:47:28Z</time>
      </trkpt>
      <trkpt lat="48.12559" lon="-4.16101">
        <ele>102.51770019531</ele>
        <time>2015-10-01T13:47:36Z</time>
      </trkpt>
      <trkpt lat="48.12556" lon="-4.16084">
        <ele>103.47900390625</ele>
        <time>2015-10-01T13:47:45Z</time>
      </trkpt>
      <trkpt lat="48.12553" lon="-4.16065">
        <ele>103.47900390625</ele>
        <time>2015-10-01T13:47:55Z</time>
      </trkpt>
      <trkpt lat="48.12551" lon="-4.1605">
        <ele>102.51770019531</ele>
        <time>2015-10-01T13:48:03Z</time>
      </trkpt>
      <trkpt lat="48.12552" lon="-4.1604">
        <ele>101.55639648438</ele>
        <time>2015-10-01T13:48:10Z</time>
      </trkpt>
      <trkpt lat="48.12552" lon="-4.16038">
        <ele>101.07568359375</ele>
        <time>2015-10-01T13:48:11Z</time>
      </trkpt>
      <trkpt lat="48.12553" lon="-4.16032">
        <ele>100.11450195312</ele>
        <time>2015-10-01T13:48:15Z</time>
      </trkpt>
      <trkpt lat="48.12552" lon="-4.16019">
        <ele>100.11450195312</ele>
        <time>2015-10-01T13:48:23Z</time>
      </trkpt>
      <trkpt lat="48.1255" lon="-4.16012">
        <ele>100.59509277344</ele>
        <time>2015-10-01T13:48:27Z</time>
      </trkpt>
      <trkpt lat="48.1255" lon="-4.16006">
        <ele>101.07568359375</ele>
        <time>2015-10-01T13:48:31Z</time>
      </trkpt>
      <trkpt lat="48.12547" lon="-4.15996">
        <ele>101.07568359375</ele>
        <time>2015-10-01T13:48:37Z</time>
      </trkpt>
      <trkpt lat="48.12543" lon="-4.15985">
        <ele>99.153076171875</ele>
        <time>2015-10-01T13:48:44Z</time>
      </trkpt>
      <trkpt lat="48.1254" lon="-4.15976">
        <ele>97.711181640625</ele>
        <time>2015-10-01T13:48:50Z</time>
      </trkpt>
      <trkpt lat="48.12537" lon="-4.15969">
        <ele>98.19189453125</ele>
        <time>2015-10-01T13:48:55Z</time>
      </trkpt>
      <trkpt lat="48.12535" lon="-4.15962">
        <ele>98.672485351562</ele>
        <time>2015-10-01T13:48:59Z</time>
      </trkpt>
      <trkpt lat="48.12529" lon="-4.15946">
        <ele>99.153076171875</ele>
        <time>2015-10-01T13:49:08Z</time>
      </trkpt>
      <trkpt lat="48.12528" lon="-4.15942">
        <ele>99.153076171875</ele>
        <time>2015-10-01T13:49:11Z</time>
      </trkpt>
      <trkpt lat="48.12525" lon="-4.15931">
        <ele>99.153076171875</ele>
        <time>2015-10-01T13:49:17Z</time>
      </trkpt>
      <trkpt lat="48.1252" lon="-4.1592">
        <ele>98.19189453125</ele>
        <time>2015-10-01T13:49:24Z</time>
      </trkpt>
      <trkpt lat="48.12515" lon="-4.15916">
        <ele>98.19189453125</ele>
        <time>2015-10-01T13:49:29Z</time>
      </trkpt>
      <trkpt lat="48.12506" lon="-4.15921">
        <ele>97.23046875</ele>
        <time>2015-10-01T13:49:37Z</time>
      </trkpt>
      <trkpt lat="48.12496" lon="-4.15926">
        <ele>99.153076171875</ele>
        <time>2015-10-01T13:49:46Z</time>
      </trkpt>
      <trkpt lat="48.12487" lon="-4.15934">
        <ele>100.11450195312</ele>
        <time>2015-10-01T13:49:54Z</time>
      </trkpt>
      <trkpt lat="48.12476" lon="-4.15941">
        <ele>101.07568359375</ele>
        <time>2015-10-01T13:50:03Z</time>
      </trkpt>
      <trkpt lat="48.12465" lon="-4.15949">
        <ele>101.55639648438</ele>
        <time>2015-10-01T13:50:13Z</time>
      </trkpt>
      <trkpt lat="48.12456" lon="-4.15957">
        <ele>101.55639648438</ele>
        <time>2015-10-01T13:50:22Z</time>
      </trkpt>
      <trkpt lat="48.12446" lon="-4.15964">
        <ele>101.07568359375</ele>
        <time>2015-10-01T13:50:31Z</time>
      </trkpt>
      <trkpt lat="48.12437" lon="-4.15972">
        <ele>101.07568359375</ele>
        <time>2015-10-01T13:50:40Z</time>
      </trkpt>
      <trkpt lat="48.12427" lon="-4.15979">
        <ele>101.07568359375</ele>
        <time>2015-10-01T13:50:49Z</time>
      </trkpt>
      <trkpt lat="48.12418" lon="-4.15986">
        <ele>101.55639648438</ele>
        <time>2015-10-01T13:50:57Z</time>
      </trkpt>
      <trkpt lat="48.12408" lon="-4.15994">
        <ele>102.037109375</ele>
        <time>2015-10-01T13:51:06Z</time>
      </trkpt>
      <trkpt lat="48.12399" lon="-4.16001">
        <ele>102.037109375</ele>
        <time>2015-10-01T13:51:14Z</time>
      </trkpt>
      <trkpt lat="48.12393" lon="-4.16006">
        <ele>101.55639648438</ele>
        <time>2015-10-01T13:51:19Z</time>
      </trkpt>
      <trkpt lat="48.12387" lon="-4.16009">
        <ele>101.07568359375</ele>
        <time>2015-10-01T13:51:24Z</time>
      </trkpt>
      <trkpt lat="48.12381" lon="-4.16013">
        <ele>100.11450195312</ele>
        <time>2015-10-01T13:51:30Z</time>
      </trkpt>
      <trkpt lat="48.1238" lon="-4.16014">
        <ele>99.6337890625</ele>
        <time>2015-10-01T13:51:34Z</time>
      </trkpt>
      <trkpt lat="48.12376" lon="-4.16016">
        <ele>97.711181640625</ele>
        <time>2015-10-01T13:51:39Z</time>
      </trkpt>
      <trkpt lat="48.12372" lon="-4.16019">
        <ele>96.749877929688</ele>
        <time>2015-10-01T13:51:43Z</time>
      </trkpt>
      <trkpt lat="48.12367" lon="-4.16021">
        <ele>95.788452148438</ele>
        <time>2015-10-01T13:51:48Z</time>
      </trkpt>
      <trkpt lat="48.12362" lon="-4.16024">
        <ele>94.8271484375</ele>
        <time>2015-10-01T13:51:53Z</time>
      </trkpt>
      <trkpt lat="48.12353" lon="-4.16033">
        <ele>96.749877929688</ele>
        <time>2015-10-01T13:52:00Z</time>
      </trkpt>
      <trkpt lat="48.12347" lon="-4.16038">
        <ele>97.711181640625</ele>
        <time>2015-10-01T13:52:05Z</time>
      </trkpt>
      <trkpt lat="48.12339" lon="-4.16046">
        <ele>99.153076171875</ele>
        <time>2015-10-01T13:52:11Z</time>
      </trkpt>
      <trkpt lat="48.12331" lon="-4.16053">
        <ele>98.19189453125</ele>
        <time>2015-10-01T13:52:17Z</time>
      </trkpt>
      <trkpt lat="48.12325" lon="-4.16058">
        <ele>98.672485351562</ele>
        <time>2015-10-01T13:52:22Z</time>
      </trkpt>
      <trkpt lat="48.12319" lon="-4.16063">
        <ele>99.153076171875</ele>
        <time>2015-10-01T13:52:27Z</time>
      </trkpt>
      <trkpt lat="48.12312" lon="-4.16067">
        <ele>99.153076171875</ele>
        <time>2015-10-01T13:52:33Z</time>
      </trkpt>
      <trkpt lat="48.12304" lon="-4.16073">
        <ele>99.153076171875</ele>
        <time>2015-10-01T13:52:40Z</time>
      </trkpt>
      <trkpt lat="48.12296" lon="-4.16078">
        <ele>98.672485351562</ele>
        <time>2015-10-01T13:52:47Z</time>
      </trkpt>
      <trkpt lat="48.12289" lon="-4.16084">
        <ele>99.6337890625</ele>
        <time>2015-10-01T13:52:54Z</time>
      </trkpt>
      <trkpt lat="48.12286" lon="-4.16087">
        <ele>99.153076171875</ele>
        <time>2015-10-01T13:52:56Z</time>
      </trkpt>
      <trkpt lat="48.12281" lon="-4.1609">
        <ele>99.6337890625</ele>
        <time>2015-10-01T13:53:01Z</time>
      </trkpt>
      <trkpt lat="48.12278" lon="-4.16092">
        <ele>100.11450195312</ele>
        <time>2015-10-01T13:53:04Z</time>
      </trkpt>
      <trkpt lat="48.12271" lon="-4.16096">
        <ele>100.59509277344</ele>
        <time>2015-10-01T13:53:10Z</time>
      </trkpt>
      <trkpt lat="48.12265" lon="-4.161">
        <ele>102.037109375</ele>
        <time>2015-10-01T13:53:15Z</time>
      </trkpt>
      <trkpt lat="48.12262" lon="-4.16102">
        <ele>102.51770019531</ele>
        <time>2015-10-01T13:53:18Z</time>
      </trkpt>
      <trkpt lat="48.12253" lon="-4.16109">
        <ele>101.55639648438</ele>
        <time>2015-10-01T13:53:26Z</time>
      </trkpt>
      <trkpt lat="48.12246" lon="-4.16114">
        <ele>102.51770019531</ele>
        <time>2015-10-01T13:53:32Z</time>
      </trkpt>
      <trkpt lat="48.1224" lon="-4.16117">
        <ele>102.99829101562</ele>
        <time>2015-10-01T13:53:37Z</time>
      </trkpt>
      <trkpt lat="48.12232" lon="-4.16116">
        <ele>102.99829101562</ele>
        <time>2015-10-01T13:53:44Z</time>
      </trkpt>
      <trkpt lat="48.12231" lon="-4.16115">
        <ele>102.99829101562</ele>
        <time>2015-10-01T13:53:45Z</time>
      </trkpt>
      <trkpt lat="48.12229" lon="-4.16106">
        <ele>103.47900390625</ele>
        <time>2015-10-01T13:53:51Z</time>
      </trkpt>
      <trkpt lat="48.12225" lon="-4.16089">
        <ele>101.55639648438</ele>
        <time>2015-10-01T13:54:00Z</time>
      </trkpt>
      <trkpt lat="48.12222" lon="-4.16071">
        <ele>100.11450195312</ele>
        <time>2015-10-01T13:54:10Z</time>
      </trkpt>
      <trkpt lat="48.12217" lon="-4.16048">
        <ele>99.153076171875</ele>
        <time>2015-10-01T13:54:22Z</time>
      </trkpt>
      <trkpt lat="48.12213" lon="-4.16031">
        <ele>98.672485351562</ele>
        <time>2015-10-01T13:54:31Z</time>
      </trkpt>
      <trkpt lat="48.1221" lon="-4.16014">
        <ele>98.19189453125</ele>
        <time>2015-10-01T13:54:40Z</time>
      </trkpt>
      <trkpt lat="48.12207" lon="-4.16">
        <ele>97.711181640625</ele>
        <time>2015-10-01T13:54:48Z</time>
      </trkpt>
      <trkpt lat="48.12204" lon="-4.15982">
        <ele>97.711181640625</ele>
        <time>2015-10-01T13:54:58Z</time>
      </trkpt>
      <trkpt lat="48.12203" lon="-4.15974">
        <ele>97.711181640625</ele>
        <time>2015-10-01T13:55:02Z</time>
      </trkpt>
      <trkpt lat="48.12201" lon="-4.15959">
        <ele>97.711181640625</ele>
        <time>2015-10-01T13:55:10Z</time>
      </trkpt>
      <trkpt lat="48.12201" lon="-4.15956">
        <ele>97.23046875</ele>
        <time>2015-10-01T13:55:12Z</time>
      </trkpt>
      <trkpt lat="48.12199" lon="-4.15943">
        <ele>97.23046875</ele>
        <time>2015-10-01T13:55:19Z</time>
      </trkpt>
      <trkpt lat="48.12197" lon="-4.15933">
        <ele>97.23046875</ele>
        <time>2015-10-01T13:55:25Z</time>
      </trkpt>
      <trkpt lat="48.12194" lon="-4.1592">
        <ele>96.749877929688</ele>
        <time>2015-10-01T13:55:32Z</time>
      </trkpt>
      <trkpt lat="48.12191" lon="-4.15905">
        <ele>98.19189453125</ele>
        <time>2015-10-01T13:55:39Z</time>
      </trkpt>
      <trkpt lat="48.1219" lon="-4.15903">
        <ele>98.672485351562</ele>
        <time>2015-10-01T13:55:40Z</time>
      </trkpt>
      <trkpt lat="48.12188" lon="-4.15883">
        <ele>101.07568359375</ele>
        <time>2015-10-01T13:55:50Z</time>
      </trkpt>
      <trkpt lat="48.12186" lon="-4.15873">
        <ele>101.07568359375</ele>
        <time>2015-10-01T13:55:56Z</time>
      </trkpt>
      <trkpt lat="48.12186" lon="-4.15869">
        <ele>100.59509277344</ele>
        <time>2015-10-01T13:55:59Z</time>
      </trkpt>
      <trkpt lat="48.12184" lon="-4.15855">
        <ele>99.6337890625</ele>
        <time>2015-10-01T13:56:06Z</time>
      </trkpt>
      <trkpt lat="48.1218" lon="-4.1584">
        <ele>98.672485351562</ele>
        <time>2015-10-01T13:56:14Z</time>
      </trkpt>
      <trkpt lat="48.1218" lon="-4.15839">
        <ele>98.672485351562</ele>
        <time>2015-10-01T13:56:15Z</time>
      </trkpt>
      <trkpt lat="48.12178" lon="-4.15831">
        <ele>98.672485351562</ele>
        <time>2015-10-01T13:56:21Z</time>
      </trkpt>
      <trkpt lat="48.12176" lon="-4.15825">
        <ele>99.153076171875</ele>
        <time>2015-10-01T13:56:25Z</time>
      </trkpt>
      <trkpt lat="48.12169" lon="-4.15808">
        <ele>97.711181640625</ele>
        <time>2015-10-01T13:56:35Z</time>
      </trkpt>
      <trkpt lat="48.12162" lon="-4.15789">
        <ele>96.749877929688</ele>
        <time>2015-10-01T13:56:46Z</time>
      </trkpt>
      <trkpt lat="48.12155" lon="-4.15773">
        <ele>96.269287109375</ele>
        <time>2015-10-01T13:56:56Z</time>
      </trkpt>
      <trkpt lat="48.12148" lon="-4.15759">
        <ele>94.8271484375</ele>
        <time>2015-10-01T13:57:05Z</time>
      </trkpt>
      <trkpt lat="48.12141" lon="-4.15744">
        <ele>93.865844726562</ele>
        <time>2015-10-01T13:57:15Z</time>
      </trkpt>
      <trkpt lat="48.12133" lon="-4.1573">
        <ele>91.462524414062</ele>
        <time>2015-10-01T13:57:25Z</time>
      </trkpt>
      <trkpt lat="48.12126" lon="-4.15715">
        <ele>90.98193359375</ele>
        <time>2015-10-01T13:57:34Z</time>
      </trkpt>
      <trkpt lat="48.12121" lon="-4.15704">
        <ele>92.423950195312</ele>
        <time>2015-10-01T13:57:40Z</time>
      </trkpt>
      <trkpt lat="48.12116" lon="-4.15694">
        <ele>90.98193359375</ele>
        <time>2015-10-01T13:57:46Z</time>
      </trkpt>
      <trkpt lat="48.12111" lon="-4.15683">
        <ele>88.098022460938</ele>
        <time>2015-10-01T13:57:54Z</time>
      </trkpt>
      <trkpt lat="48.12102" lon="-4.15671">
        <ele>89.059326171875</ele>
        <time>2015-10-01T13:58:03Z</time>
      </trkpt>
      <trkpt lat="48.12091" lon="-4.15658">
        <ele>90.020629882812</ele>
        <time>2015-10-01T13:58:13Z</time>
      </trkpt>
      <trkpt lat="48.1208" lon="-4.15652">
        <ele>90.020629882812</ele>
        <time>2015-10-01T13:58:21Z</time>
      </trkpt>
      <trkpt lat="48.1207" lon="-4.15654">
        <ele>89.539916992188</ele>
        <time>2015-10-01T13:58:29Z</time>
      </trkpt>
      <trkpt lat="48.12064" lon="-4.15655">
        <ele>89.059326171875</ele>
        <time>2015-10-01T13:58:35Z</time>
      </trkpt>
      <trkpt lat="48.12055" lon="-4.1566">
        <ele>88.098022460938</ele>
        <time>2015-10-01T13:58:44Z</time>
      </trkpt>
      <trkpt lat="48.12042" lon="-4.15668">
        <ele>88.578735351562</ele>
        <time>2015-10-01T13:58:54Z</time>
      </trkpt>
      <trkpt lat="48.12038" lon="-4.1567">
        <ele>89.059326171875</ele>
        <time>2015-10-01T13:58:57Z</time>
      </trkpt>
      <trkpt lat="48.12026" lon="-4.15676">
        <ele>90.98193359375</ele>
        <time>2015-10-01T13:59:06Z</time>
      </trkpt>
      <trkpt lat="48.12018" lon="-4.15679">
        <ele>93.865844726562</ele>
        <time>2015-10-01T13:59:12Z</time>
      </trkpt>
      <trkpt lat="48.12008" lon="-4.15682">
        <ele>97.23046875</ele>
        <time>2015-10-01T13:59:20Z</time>
      </trkpt>
      <trkpt lat="48.12001" lon="-4.15686">
        <ele>98.672485351562</ele>
        <time>2015-10-01T13:59:25Z</time>
      </trkpt>
      <trkpt lat="48.11996" lon="-4.15687">
        <ele>99.6337890625</ele>
        <time>2015-10-01T13:59:30Z</time>
      </trkpt>
      <trkpt lat="48.11991" lon="-4.15689">
        <ele>99.153076171875</ele>
        <time>2015-10-01T13:59:34Z</time>
      </trkpt>
      <trkpt lat="48.11989" lon="-4.15691">
        <ele>98.672485351562</ele>
        <time>2015-10-01T13:59:36Z</time>
      </trkpt>
      <trkpt lat="48.11981" lon="-4.15693">
        <ele>99.153076171875</ele>
        <time>2015-10-01T13:59:43Z</time>
      </trkpt>
      <trkpt lat="48.1197" lon="-4.15695">
        <ele>101.07568359375</ele>
        <time>2015-10-01T13:59:51Z</time>
      </trkpt>
      <trkpt lat="48.11963" lon="-4.15692">
        <ele>101.55639648438</ele>
        <time>2015-10-01T13:59:57Z</time>
      </trkpt>
      <trkpt lat="48.11957" lon="-4.15684">
        <ele>101.55639648438</ele>
        <time>2015-10-01T14:00:05Z</time>
      </trkpt>
      <trkpt lat="48.11953" lon="-4.15676">
        <ele>102.51770019531</ele>
        <time>2015-10-01T14:00:11Z</time>
      </trkpt>
      <trkpt lat="48.11948" lon="-4.15669">
        <ele>102.99829101562</ele>
        <time>2015-10-01T14:00:17Z</time>
      </trkpt>
      <trkpt lat="48.11943" lon="-4.15665">
        <ele>102.51770019531</ele>
        <time>2015-10-01T14:00:21Z</time>
      </trkpt>
      <trkpt lat="48.11936" lon="-4.15653">
        <ele>101.07568359375</ele>
        <time>2015-10-01T14:00:30Z</time>
      </trkpt>
      <trkpt lat="48.1193" lon="-4.15644">
        <ele>100.11450195312</ele>
        <time>2015-10-01T14:00:37Z</time>
      </trkpt>
      <trkpt lat="48.11924" lon="-4.15636">
        <ele>99.6337890625</ele>
        <time>2015-10-01T14:00:43Z</time>
      </trkpt>
      <trkpt lat="48.11918" lon="-4.15625">
        <ele>100.11450195312</ele>
        <time>2015-10-01T14:00:50Z</time>
      </trkpt>
      <trkpt lat="48.11909" lon="-4.15612">
        <ele>101.07568359375</ele>
        <time>2015-10-01T14:00:59Z</time>
      </trkpt>
      <trkpt lat="48.11904" lon="-4.15604">
        <ele>100.59509277344</ele>
        <time>2015-10-01T14:01:05Z</time>
      </trkpt>
      <trkpt lat="48.11899" lon="-4.15596">
        <ele>101.55639648438</ele>
        <time>2015-10-01T14:01:11Z</time>
      </trkpt>
      <trkpt lat="48.11893" lon="-4.15586">
        <ele>102.037109375</ele>
        <time>2015-10-01T14:01:18Z</time>
      </trkpt>
      <trkpt lat="48.11884" lon="-4.15574">
        <ele>102.037109375</ele>
        <time>2015-10-01T14:01:27Z</time>
      </trkpt>
      <trkpt lat="48.11877" lon="-4.15563">
        <ele>102.51770019531</ele>
        <time>2015-10-01T14:01:35Z</time>
      </trkpt>
      <trkpt lat="48.1187" lon="-4.15553">
        <ele>102.51770019531</ele>
        <time>2015-10-01T14:01:43Z</time>
      </trkpt>
      <trkpt lat="48.11862" lon="-4.15542">
        <ele>102.037109375</ele>
        <time>2015-10-01T14:01:52Z</time>
      </trkpt>
      <trkpt lat="48.11854" lon="-4.15532">
        <ele>101.55639648438</ele>
        <time>2015-10-01T14:02:00Z</time>
      </trkpt>
      <trkpt lat="48.11851" lon="-4.15525">
        <ele>101.55639648438</ele>
        <time>2015-10-01T14:02:05Z</time>
      </trkpt>
      <trkpt lat="48.11846" lon="-4.15513">
        <ele>102.99829101562</ele>
        <time>2015-10-01T14:02:13Z</time>
      </trkpt>
      <trkpt lat="48.11844" lon="-4.15505">
        <ele>102.51770019531</ele>
        <time>2015-10-01T14:02:18Z</time>
      </trkpt>
      <trkpt lat="48.11841" lon="-4.15489">
        <ele>101.07568359375</ele>
        <time>2015-10-01T14:02:27Z</time>
      </trkpt>
      <trkpt lat="48.1184" lon="-4.15473">
        <ele>97.711181640625</ele>
        <time>2015-10-01T14:02:36Z</time>
      </trkpt>
      <trkpt lat="48.11838" lon="-4.15465">
        <ele>97.711181640625</ele>
        <time>2015-10-01T14:02:40Z</time>
      </trkpt>
      <trkpt lat="48.11837" lon="-4.15462">
        <ele>97.23046875</ele>
        <time>2015-10-01T14:02:42Z</time>
      </trkpt>
      <trkpt lat="48.11832" lon="-4.15456">
        <ele>96.269287109375</ele>
        <time>2015-10-01T14:02:48Z</time>
      </trkpt>
      <trkpt lat="48.11829" lon="-4.15456">
        <ele>95.788452148438</ele>
        <time>2015-10-01T14:02:53Z</time>
      </trkpt>
      <trkpt lat="48.11828" lon="-4.15454">
        <ele>97.711181640625</ele>
        <time>2015-10-01T14:03:02Z</time>
      </trkpt>
      <trkpt lat="48.11824" lon="-4.15454">
        <ele>97.23046875</ele>
        <time>2015-10-01T14:03:09Z</time>
      </trkpt>
      <trkpt lat="48.11819" lon="-4.15455">
        <ele>96.269287109375</ele>
        <time>2015-10-01T14:03:16Z</time>
      </trkpt>
      <trkpt lat="48.11814" lon="-4.15455">
        <ele>94.8271484375</ele>
        <time>2015-10-01T14:03:21Z</time>
      </trkpt>
      <trkpt lat="48.11811" lon="-4.15456">
        <ele>94.8271484375</ele>
        <time>2015-10-01T14:03:26Z</time>
      </trkpt>
      <trkpt lat="48.11809" lon="-4.15456">
        <ele>100.59509277344</ele>
        <time>2015-10-01T14:03:34Z</time>
      </trkpt>
      <trkpt lat="48.11808" lon="-4.15459">
        <ele>105.40173339844</ele>
        <time>2015-10-01T14:04:03Z</time>
      </trkpt>
      <trkpt lat="48.11808" lon="-4.15456">
        <ele>108.28564453125</ele>
        <time>2015-10-01T14:04:16Z</time>
      </trkpt>
      <trkpt lat="48.11805" lon="-4.15454">
        <ele>106.84362792969</ele>
        <time>2015-10-01T14:04:24Z</time>
      </trkpt>
      <trkpt lat="48.118" lon="-4.15455">
        <ele>104.4404296875</ele>
        <time>2015-10-01T14:04:30Z</time>
      </trkpt>
      <trkpt lat="48.11795" lon="-4.15456">
        <ele>101.07568359375</ele>
        <time>2015-10-01T14:04:36Z</time>
      </trkpt>
      <trkpt lat="48.11791" lon="-4.15457">
        <ele>100.59509277344</ele>
        <time>2015-10-01T14:04:40Z</time>
      </trkpt>
      <trkpt lat="48.11784" lon="-4.1546">
        <ele>102.99829101562</ele>
        <time>2015-10-01T14:04:47Z</time>
      </trkpt>
      <trkpt lat="48.11782" lon="-4.15459">
        <ele>103.95971679688</ele>
        <time>2015-10-01T14:04:52Z</time>
      </trkpt>
      <trkpt lat="48.11779" lon="-4.15457">
        <ele>106.84362792969</ele>
        <time>2015-10-01T14:04:58Z</time>
      </trkpt>
      <trkpt lat="48.11778" lon="-4.15457">
        <ele>107.32434082031</ele>
        <time>2015-10-01T14:05:00Z</time>
      </trkpt>
      <trkpt lat="48.11769" lon="-4.15456">
        <ele>105.40173339844</ele>
        <time>2015-10-01T14:05:07Z</time>
      </trkpt>
      <trkpt lat="48.11763" lon="-4.15454">
        <ele>103.95971679688</ele>
        <time>2015-10-01T14:05:13Z</time>
      </trkpt>
      <trkpt lat="48.11758" lon="-4.15451">
        <ele>101.55639648438</ele>
        <time>2015-10-01T14:05:20Z</time>
      </trkpt>
      <trkpt lat="48.11752" lon="-4.15446">
        <ele>100.59509277344</ele>
        <time>2015-10-01T14:05:26Z</time>
      </trkpt>
      <trkpt lat="48.11747" lon="-4.15442">
        <ele>99.6337890625</ele>
        <time>2015-10-01T14:05:31Z</time>
      </trkpt>
      <trkpt lat="48.1174" lon="-4.15436">
        <ele>99.6337890625</ele>
        <time>2015-10-01T14:05:38Z</time>
      </trkpt>
      <trkpt lat="48.11736" lon="-4.15433">
        <ele>99.153076171875</ele>
        <time>2015-10-01T14:05:41Z</time>
      </trkpt>
      <trkpt lat="48.11726" lon="-4.15427">
        <ele>98.19189453125</ele>
        <time>2015-10-01T14:05:50Z</time>
      </trkpt>
      <trkpt lat="48.11719" lon="-4.15421">
        <ele>98.19189453125</ele>
        <time>2015-10-01T14:05:56Z</time>
      </trkpt>
      <trkpt lat="48.11716" lon="-4.1542">
        <ele>98.19189453125</ele>
        <time>2015-10-01T14:05:58Z</time>
      </trkpt>
      <trkpt lat="48.11705" lon="-4.15416">
        <ele>101.55639648438</ele>
        <time>2015-10-01T14:06:07Z</time>
      </trkpt>
      <trkpt lat="48.11695" lon="-4.1541">
        <ele>103.95971679688</ele>
        <time>2015-10-01T14:06:15Z</time>
      </trkpt>
      <trkpt lat="48.11689" lon="-4.15406">
        <ele>106.36303710938</ele>
        <time>2015-10-01T14:06:20Z</time>
      </trkpt>
      <trkpt lat="48.11682" lon="-4.15402">
        <ele>106.36303710938</ele>
        <time>2015-10-01T14:06:26Z</time>
      </trkpt>
      <trkpt lat="48.11674" lon="-4.15399">
        <ele>107.32434082031</ele>
        <time>2015-10-01T14:06:33Z</time>
      </trkpt>
      <trkpt lat="48.11665" lon="-4.15395">
        <ele>108.28564453125</ele>
        <time>2015-10-01T14:06:41Z</time>
      </trkpt>
      <trkpt lat="48.11656" lon="-4.15391">
        <ele>109.24694824219</ele>
        <time>2015-10-01T14:06:48Z</time>
      </trkpt>
      <trkpt lat="48.11651" lon="-4.1539">
        <ele>109.24694824219</ele>
        <time>2015-10-01T14:06:54Z</time>
      </trkpt>
      <trkpt lat="48.1165" lon="-4.15388">
        <ele>108.76623535156</ele>
        <time>2015-10-01T14:07:00Z</time>
      </trkpt>
      <trkpt lat="48.11641" lon="-4.15385">
        <ele>109.72766113281</ele>
        <time>2015-10-01T14:07:07Z</time>
      </trkpt>
      <trkpt lat="48.11635" lon="-4.15385">
        <ele>109.24694824219</ele>
        <time>2015-10-01T14:07:13Z</time>
      </trkpt>
      <trkpt lat="48.1163" lon="-4.15385">
        <ele>109.72766113281</ele>
        <time>2015-10-01T14:07:19Z</time>
      </trkpt>
      <trkpt lat="48.11621" lon="-4.15382">
        <ele>109.72766113281</ele>
        <time>2015-10-01T14:07:27Z</time>
      </trkpt>
      <trkpt lat="48.11614" lon="-4.15381">
        <ele>110.20825195312</ele>
        <time>2015-10-01T14:07:33Z</time>
      </trkpt>
      <trkpt lat="48.11605" lon="-4.15381">
        <ele>110.20825195312</ele>
        <time>2015-10-01T14:07:41Z</time>
      </trkpt>
      <trkpt lat="48.11601" lon="-4.15381">
        <ele>110.20825195312</ele>
        <time>2015-10-01T14:07:45Z</time>
      </trkpt>
      <trkpt lat="48.11595" lon="-4.1538">
        <ele>110.68884277344</ele>
        <time>2015-10-01T14:07:50Z</time>
      </trkpt>
      <trkpt lat="48.11587" lon="-4.15379">
        <ele>111.16955566406</ele>
        <time>2015-10-01T14:07:56Z</time>
      </trkpt>
      <trkpt lat="48.11578" lon="-4.1538">
        <ele>111.16955566406</ele>
        <time>2015-10-01T14:08:04Z</time>
      </trkpt>
      <trkpt lat="48.11568" lon="-4.15379">
        <ele>111.65026855469</ele>
        <time>2015-10-01T14:08:13Z</time>
      </trkpt>
      <trkpt lat="48.1156" lon="-4.15379">
        <ele>111.65026855469</ele>
        <time>2015-10-01T14:08:20Z</time>
      </trkpt>
      <trkpt lat="48.11552" lon="-4.15379">
        <ele>111.16955566406</ele>
        <time>2015-10-01T14:08:26Z</time>
      </trkpt>
      <trkpt lat="48.11547" lon="-4.15379">
        <ele>111.65026855469</ele>
        <time>2015-10-01T14:08:30Z</time>
      </trkpt>
      <trkpt lat="48.11542" lon="-4.15377">
        <ele>112.13098144531</ele>
        <time>2015-10-01T14:08:35Z</time>
      </trkpt>
      <trkpt lat="48.1154" lon="-4.15378">
        <ele>112.13098144531</ele>
        <time>2015-10-01T14:08:37Z</time>
      </trkpt>
      <trkpt lat="48.11528" lon="-4.15378">
        <ele>114.05358886719</ele>
        <time>2015-10-01T14:08:47Z</time>
      </trkpt>
      <trkpt lat="48.11521" lon="-4.15379">
        <ele>115.01489257812</ele>
        <time>2015-10-01T14:08:53Z</time>
      </trkpt>
      <trkpt lat="48.11511" lon="-4.15381">
        <ele>115.97619628906</ele>
        <time>2015-10-01T14:09:01Z</time>
      </trkpt>
      <trkpt lat="48.11504" lon="-4.15383">
        <ele>115.49560546875</ele>
        <time>2015-10-01T14:09:08Z</time>
      </trkpt>
      <trkpt lat="48.11498" lon="-4.15384">
        <ele>115.49560546875</ele>
        <time>2015-10-01T14:09:13Z</time>
      </trkpt>
      <trkpt lat="48.11486" lon="-4.15388">
        <ele>114.05358886719</ele>
        <time>2015-10-01T14:09:24Z</time>
      </trkpt>
      <trkpt lat="48.11473" lon="-4.15392">
        <ele>113.57299804688</ele>
        <time>2015-10-01T14:09:35Z</time>
      </trkpt>
      <trkpt lat="48.1147" lon="-4.15393">
        <ele>113.57299804688</ele>
        <time>2015-10-01T14:09:38Z</time>
      </trkpt>
      <trkpt lat="48.11466" lon="-4.15395">
        <ele>112.61157226562</ele>
        <time>2015-10-01T14:09:44Z</time>
      </trkpt>
      <trkpt lat="48.11452" lon="-4.154">
        <ele>113.09228515625</ele>
        <time>2015-10-01T14:09:56Z</time>
      </trkpt>
      <trkpt lat="48.11437" lon="-4.15404">
        <ele>113.09228515625</ele>
        <time>2015-10-01T14:10:08Z</time>
      </trkpt>
      <trkpt lat="48.11423" lon="-4.15411">
        <ele>113.57299804688</ele>
        <time>2015-10-01T14:10:20Z</time>
      </trkpt>
      <trkpt lat="48.11408" lon="-4.15416">
        <ele>114.05358886719</ele>
        <time>2015-10-01T14:10:33Z</time>
      </trkpt>
      <trkpt lat="48.11395" lon="-4.15421">
        <ele>114.5341796875</ele>
        <time>2015-10-01T14:10:44Z</time>
      </trkpt>
      <trkpt lat="48.11381" lon="-4.15426">
        <ele>115.01489257812</ele>
        <time>2015-10-01T14:10:56Z</time>
      </trkpt>
      <trkpt lat="48.11365" lon="-4.15432">
        <ele>115.97619628906</ele>
        <time>2015-10-01T14:11:09Z</time>
      </trkpt>
      <trkpt lat="48.11351" lon="-4.15437">
        <ele>116.45678710938</ele>
        <time>2015-10-01T14:11:21Z</time>
      </trkpt>
      <trkpt lat="48.11336" lon="-4.15441">
        <ele>117.89880371094</ele>
        <time>2015-10-01T14:11:33Z</time>
      </trkpt>
      <trkpt lat="48.11324" lon="-4.15445">
        <ele>118.37939453125</ele>
        <time>2015-10-01T14:11:44Z</time>
      </trkpt>
      <trkpt lat="48.1131" lon="-4.15448">
        <ele>119.3408203125</ele>
        <time>2015-10-01T14:11:56Z</time>
      </trkpt>
      <trkpt lat="48.11295" lon="-4.15452">
        <ele>120.78283691406</ele>
        <time>2015-10-01T14:12:09Z</time>
      </trkpt>
      <trkpt lat="48.11282" lon="-4.15455">
        <ele>122.22473144531</ele>
        <time>2015-10-01T14:12:21Z</time>
      </trkpt>
      <trkpt lat="48.1127" lon="-4.15458">
        <ele>123.18615722656</ele>
        <time>2015-10-01T14:12:31Z</time>
      </trkpt>
      <trkpt lat="48.11256" lon="-4.15462">
        <ele>123.66674804688</ele>
        <time>2015-10-01T14:12:43Z</time>
      </trkpt>
      <trkpt lat="48.1124" lon="-4.15466">
        <ele>124.62805175781</ele>
        <time>2015-10-01T14:12:56Z</time>
      </trkpt>
      <trkpt lat="48.11232" lon="-4.15468">
        <ele>124.62805175781</ele>
        <time>2015-10-01T14:13:02Z</time>
      </trkpt>
      <trkpt lat="48.11226" lon="-4.1547">
        <ele>125.10876464844</ele>
        <time>2015-10-01T14:13:08Z</time>
      </trkpt>
      <trkpt lat="48.1122" lon="-4.15473">
        <ele>126.06994628906</ele>
        <time>2015-10-01T14:13:12Z</time>
      </trkpt>
      <trkpt lat="48.11215" lon="-4.15475">
        <ele>126.55065917969</ele>
        <time>2015-10-01T14:13:16Z</time>
      </trkpt>
      <trkpt lat="48.11205" lon="-4.15478">
        <ele>128.47338867188</ele>
        <time>2015-10-01T14:13:24Z</time>
      </trkpt>
      <trkpt lat="48.11193" lon="-4.1548">
        <ele>129.43469238281</ele>
        <time>2015-10-01T14:13:33Z</time>
      </trkpt>
      <trkpt lat="48.11183" lon="-4.15483">
        <ele>129.43469238281</ele>
        <time>2015-10-01T14:13:41Z</time>
      </trkpt>
      <trkpt lat="48.11178" lon="-4.15483">
        <ele>129.91528320312</ele>
        <time>2015-10-01T14:13:45Z</time>
      </trkpt>
      <trkpt lat="48.1117" lon="-4.1548">
        <ele>132.31860351562</ele>
        <time>2015-10-01T14:13:51Z</time>
      </trkpt>
      <trkpt lat="48.11164" lon="-4.15481">
        <ele>133.76049804688</ele>
        <time>2015-10-01T14:13:55Z</time>
      </trkpt>
      <trkpt lat="48.11152" lon="-4.15481">
        <ele>134.2412109375</ele>
        <time>2015-10-01T14:14:04Z</time>
      </trkpt>
      <trkpt lat="48.11144" lon="-4.1548">
        <ele>134.2412109375</ele>
        <time>2015-10-01T14:14:11Z</time>
      </trkpt>
      <trkpt lat="48.11133" lon="-4.15479">
        <ele>134.2412109375</ele>
        <time>2015-10-01T14:14:19Z</time>
      </trkpt>
      <trkpt lat="48.11123" lon="-4.1548">
        <ele>134.72192382812</ele>
        <time>2015-10-01T14:14:27Z</time>
      </trkpt>
      <trkpt lat="48.11113" lon="-4.1548">
        <ele>134.72192382812</ele>
        <time>2015-10-01T14:14:35Z</time>
      </trkpt>
      <trkpt lat="48.11103" lon="-4.15481">
        <ele>134.72192382812</ele>
        <time>2015-10-01T14:14:43Z</time>
      </trkpt>
      <trkpt lat="48.11095" lon="-4.15483">
        <ele>134.72192382812</ele>
        <time>2015-10-01T14:14:49Z</time>
      </trkpt>
      <trkpt lat="48.11087" lon="-4.15485">
        <ele>133.27990722656</ele>
        <time>2015-10-01T14:14:55Z</time>
      </trkpt>
      <trkpt lat="48.11081" lon="-4.15486">
        <ele>133.76049804688</ele>
        <time>2015-10-01T14:15:00Z</time>
      </trkpt>
      <trkpt lat="48.11074" lon="-4.15487">
        <ele>133.27990722656</ele>
        <time>2015-10-01T14:15:05Z</time>
      </trkpt>
      <trkpt lat="48.11064" lon="-4.15488">
        <ele>131.837890625</ele>
        <time>2015-10-01T14:15:12Z</time>
      </trkpt>
      <trkpt lat="48.11058" lon="-4.15486">
        <ele>132.31860351562</ele>
        <time>2015-10-01T14:15:17Z</time>
      </trkpt>
      <trkpt lat="48.1105" lon="-4.15485">
        <ele>131.837890625</ele>
        <time>2015-10-01T14:15:23Z</time>
      </trkpt>
      <trkpt lat="48.11049" lon="-4.15485">
        <ele>131.837890625</ele>
        <time>2015-10-01T14:15:24Z</time>
      </trkpt>
      <trkpt lat="48.1104" lon="-4.15487">
        <ele>130.87670898438</ele>
        <time>2015-10-01T14:15:31Z</time>
      </trkpt>
      <trkpt lat="48.11031" lon="-4.15487">
        <ele>129.91528320312</ele>
        <time>2015-10-01T14:15:38Z</time>
      </trkpt>
      <trkpt lat="48.11029" lon="-4.15487">
        <ele>129.91528320312</ele>
        <time>2015-10-01T14:15:40Z</time>
      </trkpt>
      <trkpt lat="48.11023" lon="-4.15496">
        <ele>130.39599609375</ele>
        <time>2015-10-01T14:15:47Z</time>
      </trkpt>
      <trkpt lat="48.11021" lon="-4.15506">
        <ele>129.91528320312</ele>
        <time>2015-10-01T14:15:52Z</time>
      </trkpt>
      <trkpt lat="48.1102" lon="-4.1551">
        <ele>129.43469238281</ele>
        <time>2015-10-01T14:15:54Z</time>
      </trkpt>
      <trkpt lat="48.11021" lon="-4.15521">
        <ele>127.99255371094</ele>
        <time>2015-10-01T14:16:01Z</time>
      </trkpt>
      <trkpt lat="48.11021" lon="-4.1553">
        <ele>126.55065917969</ele>
        <time>2015-10-01T14:16:06Z</time>
      </trkpt>
      <trkpt lat="48.11021" lon="-4.1554">
        <ele>124.62805175781</ele>
        <time>2015-10-01T14:16:13Z</time>
      </trkpt>
      <trkpt lat="48.11021" lon="-4.15554">
        <ele>124.62805175781</ele>
        <time>2015-10-01T14:16:20Z</time>
      </trkpt>
      <trkpt lat="48.1102" lon="-4.15567">
        <ele>127.03137207031</ele>
        <time>2015-10-01T14:16:26Z</time>
      </trkpt>
      <trkpt lat="48.1102" lon="-4.15571">
        <ele>127.03137207031</ele>
        <time>2015-10-01T14:16:28Z</time>
      </trkpt>
      <trkpt lat="48.1102" lon="-4.15575">
        <ele>127.03137207031</ele>
        <time>2015-10-01T14:16:30Z</time>
      </trkpt>
      <trkpt lat="48.11018" lon="-4.1559">
        <ele>128.9541015625</ele>
        <time>2015-10-01T14:16:37Z</time>
      </trkpt>
      <trkpt lat="48.11017" lon="-4.156">
        <ele>127.99255371094</ele>
        <time>2015-10-01T14:16:43Z</time>
      </trkpt>
      <trkpt lat="48.11017" lon="-4.15611">
        <ele>127.03137207031</ele>
        <time>2015-10-01T14:16:50Z</time>
      </trkpt>
      <trkpt lat="48.11016" lon="-4.15622">
        <ele>127.51196289062</ele>
        <time>2015-10-01T14:16:56Z</time>
      </trkpt>
      <trkpt lat="48.11015" lon="-4.15637">
        <ele>128.47338867188</ele>
        <time>2015-10-01T14:17:04Z</time>
      </trkpt>
      <trkpt lat="48.11013" lon="-4.15647">
        <ele>127.99255371094</ele>
        <time>2015-10-01T14:17:09Z</time>
      </trkpt>
      <trkpt lat="48.11011" lon="-4.1566">
        <ele>127.99255371094</ele>
        <time>2015-10-01T14:17:16Z</time>
      </trkpt>
      <trkpt lat="48.1101" lon="-4.15673">
        <ele>129.43469238281</ele>
        <time>2015-10-01T14:17:22Z</time>
      </trkpt>
      <trkpt lat="48.11008" lon="-4.15683">
        <ele>129.91528320312</ele>
        <time>2015-10-01T14:17:27Z</time>
      </trkpt>
      <trkpt lat="48.11007" lon="-4.15698">
        <ele>130.87670898438</ele>
        <time>2015-10-01T14:17:35Z</time>
      </trkpt>
      <trkpt lat="48.11008" lon="-4.15709">
        <ele>132.31860351562</ele>
        <time>2015-10-01T14:17:41Z</time>
      </trkpt>
      <trkpt lat="48.11006" lon="-4.15723">
        <ele>133.27990722656</ele>
        <time>2015-10-01T14:17:48Z</time>
      </trkpt>
      <trkpt lat="48.11004" lon="-4.15736">
        <ele>134.2412109375</ele>
        <time>2015-10-01T14:17:55Z</time>
      </trkpt>
      <trkpt lat="48.11004" lon="-4.1574">
        <ele>134.72192382812</ele>
        <time>2015-10-01T14:17:57Z</time>
      </trkpt>
      <trkpt lat="48.11004" lon="-4.15749">
        <ele>135.20251464844</ele>
        <time>2015-10-01T14:18:03Z</time>
      </trkpt>
      <trkpt lat="48.11004" lon="-4.15758">
        <ele>134.72192382812</ele>
        <time>2015-10-01T14:18:10Z</time>
      </trkpt>
      <trkpt lat="48.11003" lon="-4.15771">
        <ele>135.20251464844</ele>
        <time>2015-10-01T14:18:17Z</time>
      </trkpt>
      <trkpt lat="48.11003" lon="-4.1578">
        <ele>135.20251464844</ele>
        <time>2015-10-01T14:18:22Z</time>
      </trkpt>
      <trkpt lat="48.11003" lon="-4.15793">
        <ele>134.2412109375</ele>
        <time>2015-10-01T14:18:29Z</time>
      </trkpt>
      <trkpt lat="48.11003" lon="-4.15802">
        <ele>134.72192382812</ele>
        <time>2015-10-01T14:18:34Z</time>
      </trkpt>
      <trkpt lat="48.11004" lon="-4.15805">
        <ele>135.20251464844</ele>
        <time>2015-10-01T14:18:36Z</time>
      </trkpt>
      <trkpt lat="48.11003" lon="-4.15814">
        <ele>135.68310546875</ele>
        <time>2015-10-01T14:18:41Z</time>
      </trkpt>
      <trkpt lat="48.11002" lon="-4.15826">
        <ele>135.68310546875</ele>
        <time>2015-10-01T14:18:47Z</time>
      </trkpt>
      <trkpt lat="48.11001" lon="-4.15843">
        <ele>137.60583496094</ele>
        <time>2015-10-01T14:18:55Z</time>
      </trkpt>
      <trkpt lat="48.11002" lon="-4.15855">
        <ele>137.60583496094</ele>
        <time>2015-10-01T14:19:01Z</time>
      </trkpt>
      <trkpt lat="48.11002" lon="-4.15866">
        <ele>136.16394042969</ele>
        <time>2015-10-01T14:19:06Z</time>
      </trkpt>
      <trkpt lat="48.11001" lon="-4.15879">
        <ele>135.68310546875</ele>
        <time>2015-10-01T14:19:13Z</time>
      </trkpt>
      <trkpt lat="48.11002" lon="-4.15888">
        <ele>134.72192382812</ele>
        <time>2015-10-01T14:19:18Z</time>
      </trkpt>
      <trkpt lat="48.11001" lon="-4.15898">
        <ele>134.72192382812</ele>
        <time>2015-10-01T14:19:23Z</time>
      </trkpt>
      <trkpt lat="48.11001" lon="-4.15901">
        <ele>134.2412109375</ele>
        <time>2015-10-01T14:19:25Z</time>
      </trkpt>
      <trkpt lat="48.11" lon="-4.15918">
        <ele>134.2412109375</ele>
        <time>2015-10-01T14:19:34Z</time>
      </trkpt>
      <trkpt lat="48.11001" lon="-4.1593">
        <ele>132.79931640625</ele>
        <time>2015-10-01T14:19:41Z</time>
      </trkpt>
      <trkpt lat="48.10999" lon="-4.15938">
        <ele>132.31860351562</ele>
        <time>2015-10-01T14:19:45Z</time>
      </trkpt>
      <trkpt lat="48.10998" lon="-4.15945">
        <ele>132.31860351562</ele>
        <time>2015-10-01T14:19:48Z</time>
      </trkpt>
      <trkpt lat="48.10997" lon="-4.15953">
        <ele>132.31860351562</ele>
        <time>2015-10-01T14:19:53Z</time>
      </trkpt>
      <trkpt lat="48.10997" lon="-4.15954">
        <ele>132.31860351562</ele>
        <time>2015-10-01T14:19:54Z</time>
      </trkpt>
      <trkpt lat="48.10998" lon="-4.15957">
        <ele>131.837890625</ele>
        <time>2015-10-01T14:19:56Z</time>
      </trkpt>
      <trkpt lat="48.10997" lon="-4.15964">
        <ele>131.837890625</ele>
        <time>2015-10-01T14:20:00Z</time>
      </trkpt>
      <trkpt lat="48.10995" lon="-4.15976">
        <ele>130.87670898438</ele>
        <time>2015-10-01T14:20:06Z</time>
      </trkpt>
      <trkpt lat="48.10993" lon="-4.15982">
        <ele>131.837890625</ele>
        <time>2015-10-01T14:20:10Z</time>
      </trkpt>
      <trkpt lat="48.10993" lon="-4.15983">
        <ele>132.31860351562</ele>
        <time>2015-10-01T14:20:11Z</time>
      </trkpt>
      <trkpt lat="48.10991" lon="-4.15997">
        <ele>132.79931640625</ele>
        <time>2015-10-01T14:20:18Z</time>
      </trkpt>
      <trkpt lat="48.10991" lon="-4.15998">
        <ele>132.79931640625</ele>
        <time>2015-10-01T14:20:19Z</time>
      </trkpt>
      <trkpt lat="48.10989" lon="-4.16011">
        <ele>132.79931640625</ele>
        <time>2015-10-01T14:20:26Z</time>
      </trkpt>
      <trkpt lat="48.10983" lon="-4.16028">
        <ele>129.91528320312</ele>
        <time>2015-10-01T14:20:34Z</time>
      </trkpt>
      <trkpt lat="48.10982" lon="-4.16032">
        <ele>129.91528320312</ele>
        <time>2015-10-01T14:20:36Z</time>
      </trkpt>
      <trkpt lat="48.10981" lon="-4.16035">
        <ele>129.91528320312</ele>
        <time>2015-10-01T14:20:38Z</time>
      </trkpt>
      <trkpt lat="48.10978" lon="-4.1605">
        <ele>131.837890625</ele>
        <time>2015-10-01T14:20:45Z</time>
      </trkpt>
      <trkpt lat="48.10976" lon="-4.16053">
        <ele>132.31860351562</ele>
        <time>2015-10-01T14:20:47Z</time>
      </trkpt>
      <trkpt lat="48.10973" lon="-4.16068">
        <ele>131.837890625</ele>
        <time>2015-10-01T14:20:56Z</time>
      </trkpt>
      <trkpt lat="48.10971" lon="-4.16079">
        <ele>130.39599609375</ele>
        <time>2015-10-01T14:21:02Z</time>
      </trkpt>
      <trkpt lat="48.10969" lon="-4.16089">
        <ele>129.91528320312</ele>
        <time>2015-10-01T14:21:08Z</time>
      </trkpt>
      <trkpt lat="48.10968" lon="-4.16091">
        <ele>129.91528320312</ele>
        <time>2015-10-01T14:21:09Z</time>
      </trkpt>
      <trkpt lat="48.10966" lon="-4.161">
        <ele>129.43469238281</ele>
        <time>2015-10-01T14:21:15Z</time>
      </trkpt>
      <trkpt lat="48.10965" lon="-4.16106">
        <ele>131.837890625</ele>
        <time>2015-10-01T14:21:18Z</time>
      </trkpt>
      <trkpt lat="48.10964" lon="-4.16116">
        <ele>132.31860351562</ele>
        <time>2015-10-01T14:21:23Z</time>
      </trkpt>
      <trkpt lat="48.10961" lon="-4.16131">
        <ele>132.31860351562</ele>
        <time>2015-10-01T14:21:31Z</time>
      </trkpt>
      <trkpt lat="48.1096" lon="-4.1614">
        <ele>131.35729980469</ele>
        <time>2015-10-01T14:21:36Z</time>
      </trkpt>
      <trkpt lat="48.1096" lon="-4.16156">
        <ele>132.31860351562</ele>
        <time>2015-10-01T14:21:44Z</time>
      </trkpt>
      <trkpt lat="48.10958" lon="-4.16165">
        <ele>131.35729980469</ele>
        <time>2015-10-01T14:21:49Z</time>
      </trkpt>
      <trkpt lat="48.10959" lon="-4.16176">
        <ele>132.31860351562</ele>
        <time>2015-10-01T14:21:55Z</time>
      </trkpt>
      <trkpt lat="48.10957" lon="-4.16184">
        <ele>132.79931640625</ele>
        <time>2015-10-01T14:22:00Z</time>
      </trkpt>
      <trkpt lat="48.10956" lon="-4.16193">
        <ele>134.72192382812</ele>
        <time>2015-10-01T14:22:04Z</time>
      </trkpt>
      <trkpt lat="48.10954" lon="-4.16201">
        <ele>133.27990722656</ele>
        <time>2015-10-01T14:22:09Z</time>
      </trkpt>
      <trkpt lat="48.10953" lon="-4.16211">
        <ele>133.76049804688</ele>
        <time>2015-10-01T14:22:15Z</time>
      </trkpt>
      <trkpt lat="48.10952" lon="-4.16215">
        <ele>134.2412109375</ele>
        <time>2015-10-01T14:22:17Z</time>
      </trkpt>
      <trkpt lat="48.10951" lon="-4.16222">
        <ele>134.72192382812</ele>
        <time>2015-10-01T14:22:21Z</time>
      </trkpt>
      <trkpt lat="48.1095" lon="-4.1623">
        <ele>134.72192382812</ele>
        <time>2015-10-01T14:22:26Z</time>
      </trkpt>
      <trkpt lat="48.10947" lon="-4.16244">
        <ele>134.2412109375</ele>
        <time>2015-10-01T14:22:33Z</time>
      </trkpt>
      <trkpt lat="48.10946" lon="-4.16249">
        <ele>134.2412109375</ele>
        <time>2015-10-01T14:22:36Z</time>
      </trkpt>
      <trkpt lat="48.10941" lon="-4.16265">
        <ele>134.2412109375</ele>
        <time>2015-10-01T14:22:45Z</time>
      </trkpt>
      <trkpt lat="48.10937" lon="-4.16274">
        <ele>131.837890625</ele>
        <time>2015-10-01T14:22:51Z</time>
      </trkpt>
      <trkpt lat="48.10935" lon="-4.16281">
        <ele>131.35729980469</ele>
        <time>2015-10-01T14:22:56Z</time>
      </trkpt>
      <trkpt lat="48.10931" lon="-4.16292">
        <ele>129.91528320312</ele>
        <time>2015-10-01T14:23:02Z</time>
      </trkpt>
      <trkpt lat="48.10927" lon="-4.16305">
        <ele>128.47338867188</ele>
        <time>2015-10-01T14:23:09Z</time>
      </trkpt>
      <trkpt lat="48.10927" lon="-4.16306">
        <ele>128.47338867188</ele>
        <time>2015-10-01T14:23:10Z</time>
      </trkpt>
      <trkpt lat="48.10923" lon="-4.1632">
        <ele>130.87670898438</ele>
        <time>2015-10-01T14:23:17Z</time>
      </trkpt>
      <trkpt lat="48.10923" lon="-4.16324">
        <ele>130.39599609375</ele>
        <time>2015-10-01T14:23:21Z</time>
      </trkpt>
      <trkpt lat="48.1092" lon="-4.16335">
        <ele>129.91528320312</ele>
        <time>2015-10-01T14:23:27Z</time>
      </trkpt>
      <trkpt lat="48.10917" lon="-4.16347">
        <ele>131.35729980469</ele>
        <time>2015-10-01T14:23:33Z</time>
      </trkpt>
      <trkpt lat="48.10915" lon="-4.1635">
        <ele>131.35729980469</ele>
        <time>2015-10-01T14:23:35Z</time>
      </trkpt>
      <trkpt lat="48.1091" lon="-4.16365">
        <ele>133.76049804688</ele>
        <time>2015-10-01T14:23:43Z</time>
      </trkpt>
      <trkpt lat="48.10909" lon="-4.16373">
        <ele>135.20251464844</ele>
        <time>2015-10-01T14:23:48Z</time>
      </trkpt>
      <trkpt lat="48.10906" lon="-4.16381">
        <ele>132.79931640625</ele>
        <time>2015-10-01T14:23:53Z</time>
      </trkpt>
      <trkpt lat="48.10903" lon="-4.16392">
        <ele>130.87670898438</ele>
        <time>2015-10-01T14:23:59Z</time>
      </trkpt>
      <trkpt lat="48.10901" lon="-4.16401">
        <ele>130.39599609375</ele>
        <time>2015-10-01T14:24:05Z</time>
      </trkpt>
      <trkpt lat="48.10899" lon="-4.16412">
        <ele>130.87670898438</ele>
        <time>2015-10-01T14:24:11Z</time>
      </trkpt>
      <trkpt lat="48.10896" lon="-4.16424">
        <ele>130.87670898438</ele>
        <time>2015-10-01T14:24:17Z</time>
      </trkpt>
      <trkpt lat="48.10893" lon="-4.16436">
        <ele>129.43469238281</ele>
        <time>2015-10-01T14:24:24Z</time>
      </trkpt>
      <trkpt lat="48.10891" lon="-4.1644">
        <ele>128.9541015625</ele>
        <time>2015-10-01T14:24:26Z</time>
      </trkpt>
      <trkpt lat="48.10887" lon="-4.16452">
        <ele>128.47338867188</ele>
        <time>2015-10-01T14:24:33Z</time>
      </trkpt>
      <trkpt lat="48.10883" lon="-4.16464">
        <ele>128.9541015625</ele>
        <time>2015-10-01T14:24:40Z</time>
      </trkpt>
      <trkpt lat="48.10879" lon="-4.16478">
        <ele>128.47338867188</ele>
        <time>2015-10-01T14:24:47Z</time>
      </trkpt>
      <trkpt lat="48.10876" lon="-4.16492">
        <ele>128.47338867188</ele>
        <time>2015-10-01T14:24:54Z</time>
      </trkpt>
      <trkpt lat="48.10875" lon="-4.16501">
        <ele>127.03137207031</ele>
        <time>2015-10-01T14:24:59Z</time>
      </trkpt>
      <trkpt lat="48.10873" lon="-4.16509">
        <ele>127.03137207031</ele>
        <time>2015-10-01T14:25:03Z</time>
      </trkpt>
      <trkpt lat="48.10871" lon="-4.16519">
        <ele>127.03137207031</ele>
        <time>2015-10-01T14:25:09Z</time>
      </trkpt>
      <trkpt lat="48.10869" lon="-4.16533">
        <ele>126.55065917969</ele>
        <time>2015-10-01T14:25:16Z</time>
      </trkpt>
      <trkpt lat="48.10868" lon="-4.16537">
        <ele>126.55065917969</ele>
        <time>2015-10-01T14:25:18Z</time>
      </trkpt>
      <trkpt lat="48.10868" lon="-4.1654">
        <ele>125.58935546875</ele>
        <time>2015-10-01T14:25:24Z</time>
      </trkpt>
      <trkpt lat="48.10873" lon="-4.16543">
        <ele>127.99255371094</ele>
        <time>2015-10-01T14:25:33Z</time>
      </trkpt>
      <trkpt lat="48.10873" lon="-4.16555">
        <ele>125.58935546875</ele>
        <time>2015-10-01T14:25:40Z</time>
      </trkpt>
      <trkpt lat="48.10873" lon="-4.16557">
        <ele>125.10876464844</ele>
        <time>2015-10-01T14:25:41Z</time>
      </trkpt>
      <trkpt lat="48.10873" lon="-4.16564">
        <ele>123.66674804688</ele>
        <time>2015-10-01T14:25:46Z</time>
      </trkpt>
      <trkpt lat="48.10871" lon="-4.16574">
        <ele>118.86010742188</ele>
        <time>2015-10-01T14:25:54Z</time>
      </trkpt>
      <trkpt lat="48.10872" lon="-4.16583">
        <ele>114.05358886719</ele>
        <time>2015-10-01T14:26:02Z</time>
      </trkpt>
      <trkpt lat="48.10874" lon="-4.16591">
        <ele>112.13098144531</ele>
        <time>2015-10-01T14:26:07Z</time>
      </trkpt>
      <trkpt lat="48.10874" lon="-4.16607">
        <ele>113.09228515625</ele>
        <time>2015-10-01T14:26:13Z</time>
      </trkpt>
      <trkpt lat="48.10872" lon="-4.16621">
        <ele>115.49560546875</ele>
        <time>2015-10-01T14:26:18Z</time>
      </trkpt>
      <trkpt lat="48.10873" lon="-4.16623">
        <ele>115.97619628906</ele>
        <time>2015-10-01T14:26:19Z</time>
      </trkpt>
      <trkpt lat="48.10873" lon="-4.16632">
        <ele>118.37939453125</ele>
        <time>2015-10-01T14:26:23Z</time>
      </trkpt>
      <trkpt lat="48.10872" lon="-4.16645">
        <ele>122.22473144531</ele>
        <time>2015-10-01T14:26:28Z</time>
      </trkpt>
      <trkpt lat="48.10874" lon="-4.1666">
        <ele>122.22473144531</ele>
        <time>2015-10-01T14:26:37Z</time>
      </trkpt>
      <trkpt lat="48.10874" lon="-4.16672">
        <ele>120.78283691406</ele>
        <time>2015-10-01T14:26:44Z</time>
      </trkpt>
      <trkpt lat="48.10874" lon="-4.16684">
        <ele>120.30212402344</ele>
        <time>2015-10-01T14:26:51Z</time>
      </trkpt>
      <trkpt lat="48.10874" lon="-4.16702">
        <ele>119.82141113281</ele>
        <time>2015-10-01T14:27:01Z</time>
      </trkpt>
      <trkpt lat="48.10874" lon="-4.16704">
        <ele>119.82141113281</ele>
        <time>2015-10-01T14:27:02Z</time>
      </trkpt>
      <trkpt lat="48.10874" lon="-4.16715">
        <ele>120.78283691406</ele>
        <time>2015-10-01T14:27:08Z</time>
      </trkpt>
      <trkpt lat="48.10872" lon="-4.16725">
        <ele>122.22473144531</ele>
        <time>2015-10-01T14:27:13Z</time>
      </trkpt>
      <trkpt lat="48.10871" lon="-4.16732">
        <ele>124.14733886719</ele>
        <time>2015-10-01T14:27:17Z</time>
      </trkpt>
      <trkpt lat="48.10871" lon="-4.16741">
        <ele>126.55065917969</ele>
        <time>2015-10-01T14:27:21Z</time>
      </trkpt>
      <trkpt lat="48.1087" lon="-4.16749">
        <ele>127.99255371094</ele>
        <time>2015-10-01T14:27:24Z</time>
      </trkpt>
      <trkpt lat="48.1087" lon="-4.16751">
        <ele>128.47338867188</ele>
        <time>2015-10-01T14:27:25Z</time>
      </trkpt>
      <trkpt lat="48.10869" lon="-4.1676">
        <ele>130.39599609375</ele>
        <time>2015-10-01T14:27:29Z</time>
      </trkpt>
      <trkpt lat="48.10868" lon="-4.16771">
        <ele>132.31860351562</ele>
        <time>2015-10-01T14:27:35Z</time>
      </trkpt>
      <trkpt lat="48.10867" lon="-4.16784">
        <ele>133.27990722656</ele>
        <time>2015-10-01T14:27:41Z</time>
      </trkpt>
      <trkpt lat="48.10865" lon="-4.16793">
        <ele>132.79931640625</ele>
        <time>2015-10-01T14:27:47Z</time>
      </trkpt>
      <trkpt lat="48.10861" lon="-4.16804">
        <ele>133.27990722656</ele>
        <time>2015-10-01T14:27:52Z</time>
      </trkpt>
      <trkpt lat="48.10861" lon="-4.16814">
        <ele>135.20251464844</ele>
        <time>2015-10-01T14:27:57Z</time>
      </trkpt>
      <trkpt lat="48.10861" lon="-4.16825">
        <ele>139.52844238281</ele>
        <time>2015-10-01T14:28:03Z</time>
      </trkpt>
      <trkpt lat="48.1086" lon="-4.16837">
        <ele>141.93176269531</ele>
        <time>2015-10-01T14:28:08Z</time>
      </trkpt>
      <trkpt lat="48.1086" lon="-4.1685">
        <ele>143.37365722656</ele>
        <time>2015-10-01T14:28:15Z</time>
      </trkpt>
      <trkpt lat="48.10859" lon="-4.1686">
        <ele>142.41247558594</ele>
        <time>2015-10-01T14:28:21Z</time>
      </trkpt>
      <trkpt lat="48.10858" lon="-4.16873">
        <ele>141.93176269531</ele>
        <time>2015-10-01T14:28:29Z</time>
      </trkpt>
      <trkpt lat="48.10856" lon="-4.16883">
        <ele>140.97045898438</ele>
        <time>2015-10-01T14:28:34Z</time>
      </trkpt>
      <trkpt lat="48.10855" lon="-4.16893">
        <ele>140.97045898438</ele>
        <time>2015-10-01T14:28:41Z</time>
      </trkpt>
      <trkpt lat="48.10852" lon="-4.16901">
        <ele>140.97045898438</ele>
        <time>2015-10-01T14:28:46Z</time>
      </trkpt>
      <trkpt lat="48.10851" lon="-4.16905">
        <ele>140.00915527344</ele>
        <time>2015-10-01T14:28:54Z</time>
      </trkpt>
      <trkpt lat="48.10851" lon="-4.16907">
        <ele>140.00915527344</ele>
        <time>2015-10-01T14:28:58Z</time>
      </trkpt>
      <trkpt lat="48.10852" lon="-4.16904">
        <ele>136.16394042969</ele>
        <time>2015-10-01T14:29:07Z</time>
      </trkpt>
      <trkpt lat="48.10852" lon="-4.16903">
        <ele>134.72192382812</ele>
        <time>2015-10-01T14:29:15Z</time>
      </trkpt>
      <trkpt lat="48.10853" lon="-4.16903">
        <ele>133.76049804688</ele>
        <time>2015-10-01T14:29:24Z</time>
      </trkpt>
      <trkpt lat="48.10854" lon="-4.16903">
        <ele>134.2412109375</ele>
        <time>2015-10-01T14:29:30Z</time>
      </trkpt>
      <trkpt lat="48.10854" lon="-4.16904">
        <ele>132.79931640625</ele>
        <time>2015-10-01T14:29:40Z</time>
      </trkpt>
      <trkpt lat="48.10854" lon="-4.16904">
        <ele>133.27990722656</ele>
        <time>2015-10-01T14:29:54Z</time>
      </trkpt>
      <trkpt lat="48.10854" lon="-4.16904">
        <ele>133.27990722656</ele>
        <time>2015-10-01T14:30:04Z</time>
      </trkpt>
      <trkpt lat="48.10854" lon="-4.16905">
        <ele>133.27990722656</ele>
        <time>2015-10-01T14:30:13Z</time>
      </trkpt>
      <trkpt lat="48.10853" lon="-4.16905">
        <ele>133.27990722656</ele>
        <time>2015-10-01T14:30:24Z</time>
      </trkpt>
      <trkpt lat="48.10855" lon="-4.16906">
        <ele>134.72192382812</ele>
        <time>2015-10-01T14:30:32Z</time>
      </trkpt>
      <trkpt lat="48.10857" lon="-4.1691">
        <ele>135.68310546875</ele>
        <time>2015-10-01T14:30:38Z</time>
      </trkpt>
      <trkpt lat="48.10858" lon="-4.16911">
        <ele>136.16394042969</ele>
        <time>2015-10-01T14:30:45Z</time>
      </trkpt>
      <trkpt lat="48.10858" lon="-4.16911">
        <ele>136.16394042969</ele>
        <time>2015-10-01T14:30:52Z</time>
      </trkpt>
      <trkpt lat="48.10859" lon="-4.16913">
        <ele>135.20251464844</ele>
        <time>2015-10-01T14:31:14Z</time>
      </trkpt>
      <trkpt lat="48.10858" lon="-4.16912">
        <ele>135.68310546875</ele>
        <time>2015-10-01T14:31:21Z</time>
      </trkpt>
      <trkpt lat="48.10858" lon="-4.16912">
        <ele>134.72192382812</ele>
        <time>2015-10-01T14:31:42Z</time>
      </trkpt>
      <trkpt lat="48.10857" lon="-4.1691">
        <ele>133.27990722656</ele>
        <time>2015-10-01T14:31:59Z</time>
      </trkpt>
      <trkpt lat="48.10857" lon="-4.16913">
        <ele>133.76049804688</ele>
        <time>2015-10-01T14:32:17Z</time>
      </trkpt>
      <trkpt lat="48.10857" lon="-4.16911">
        <ele>134.2412109375</ele>
        <time>2015-10-01T14:32:30Z</time>
      </trkpt>
      <trkpt lat="48.10853" lon="-4.16907">
        <ele>136.16394042969</ele>
        <time>2015-10-01T14:32:34Z</time>
      </trkpt>
      <trkpt lat="48.10854" lon="-4.16902">
        <ele>139.0478515625</ele>
        <time>2015-10-01T14:32:39Z</time>
      </trkpt>
      <trkpt lat="48.10843" lon="-4.16899">
        <ele>138.56726074219</ele>
        <time>2015-10-01T14:32:45Z</time>
      </trkpt>
      <trkpt lat="48.10851" lon="-4.16908">
        <ele>135.20251464844</ele>
        <time>2015-10-01T14:32:48Z</time>
      </trkpt>
      <trkpt lat="48.10856" lon="-4.16912">
        <ele>133.27990722656</ele>
        <time>2015-10-01T14:33:03Z</time>
      </trkpt>
      <trkpt lat="48.10857" lon="-4.16912">
        <ele>133.27990722656</ele>
        <time>2015-10-01T14:33:10Z</time>
      </trkpt>
      <trkpt lat="48.10858" lon="-4.16913">
        <ele>135.20251464844</ele>
        <time>2015-10-01T14:33:19Z</time>
      </trkpt>
      <trkpt lat="48.10858" lon="-4.16913">
        <ele>135.20251464844</ele>
        <time>2015-10-01T14:33:27Z</time>
      </trkpt>
      <trkpt lat="48.10857" lon="-4.16914">
        <ele>133.76049804688</ele>
        <time>2015-10-01T14:33:49Z</time>
      </trkpt>
      <trkpt lat="48.10857" lon="-4.16914">
        <ele>133.76049804688</ele>
        <time>2015-10-01T14:34:06Z</time>
      </trkpt>
      <trkpt lat="48.10856" lon="-4.16914">
        <ele>132.31860351562</ele>
        <time>2015-10-01T14:34:19Z</time>
      </trkpt>
      <trkpt lat="48.10857" lon="-4.16915">
        <ele>134.72192382812</ele>
        <time>2015-10-01T14:34:30Z</time>
      </trkpt>
      <trkpt lat="48.10857" lon="-4.16916">
        <ele>135.20251464844</ele>
        <time>2015-10-01T14:34:37Z</time>
      </trkpt>
      <trkpt lat="48.10857" lon="-4.16916">
        <ele>134.72192382812</ele>
        <time>2015-10-01T14:34:47Z</time>
      </trkpt>
      <trkpt lat="48.10859" lon="-4.16913">
        <ele>136.16394042969</ele>
        <time>2015-10-01T14:34:56Z</time>
      </trkpt>
      <trkpt lat="48.1086" lon="-4.16922">
        <ele>136.64465332031</ele>
        <time>2015-10-01T14:35:00Z</time>
      </trkpt>
      <trkpt lat="48.10857" lon="-4.16925">
        <ele>137.60583496094</ele>
        <time>2015-10-01T14:35:04Z</time>
      </trkpt>
      <trkpt lat="48.10853" lon="-4.16923">
        <ele>136.64465332031</ele>
        <time>2015-10-01T14:35:13Z</time>
      </trkpt>
      <trkpt lat="48.10854" lon="-4.16925">
        <ele>143.37365722656</ele>
        <time>2015-10-01T14:35:17Z</time>
      </trkpt>
      <trkpt lat="48.10862" lon="-4.1692">
        <ele>139.52844238281</ele>
        <time>2015-10-01T14:35:32Z</time>
      </trkpt>
      <trkpt lat="48.1086" lon="-4.16917">
        <ele>137.60583496094</ele>
        <time>2015-10-01T14:35:33Z</time>
      </trkpt>
      <trkpt lat="48.10846" lon="-4.16903">
        <ele>130.39599609375</ele>
        <time>2015-10-01T14:35:39Z</time>
      </trkpt>
      <trkpt lat="48.10839" lon="-4.16887">
        <ele>128.9541015625</ele>
        <time>2015-10-01T14:35:45Z</time>
      </trkpt>
      <trkpt lat="48.10853" lon="-4.16902">
        <ele>127.51196289062</ele>
        <time>2015-10-01T14:35:48Z</time>
      </trkpt>
      <trkpt lat="48.10852" lon="-4.16909">
        <ele>126.06994628906</ele>
        <time>2015-10-01T14:35:54Z</time>
      </trkpt>
      <trkpt lat="48.10851" lon="-4.16908">
        <ele>130.87670898438</ele>
        <time>2015-10-01T14:35:59Z</time>
      </trkpt>
      <trkpt lat="48.10855" lon="-4.16908">
        <ele>140.97045898438</ele>
        <time>2015-10-01T14:36:04Z</time>
      </trkpt>
      <trkpt lat="48.10853" lon="-4.16914">
        <ele>142.41247558594</ele>
        <time>2015-10-01T14:36:10Z</time>
      </trkpt>
      <trkpt lat="48.10854" lon="-4.16909">
        <ele>124.14733886719</ele>
        <time>2015-10-01T14:36:23Z</time>
      </trkpt>
      <trkpt lat="48.10859" lon="-4.16919">
        <ele>127.51196289062</ele>
        <time>2015-10-01T14:36:30Z</time>
      </trkpt>
      <trkpt lat="48.10858" lon="-4.16914">
        <ele>128.47338867188</ele>
        <time>2015-10-01T14:36:36Z</time>
      </trkpt>
      <trkpt lat="48.10859" lon="-4.16911">
        <ele>133.27990722656</ele>
        <time>2015-10-01T14:36:57Z</time>
      </trkpt>
      <trkpt lat="48.10859" lon="-4.16911">
        <ele>133.27990722656</ele>
        <time>2015-10-01T14:37:03Z</time>
      </trkpt>
      <trkpt lat="48.10857" lon="-4.16909">
        <ele>135.68310546875</ele>
        <time>2015-10-01T14:37:08Z</time>
      </trkpt>
      <trkpt lat="48.10861" lon="-4.16913">
        <ele>140.48986816406</ele>
        <time>2015-10-01T14:37:13Z</time>
      </trkpt>
      <trkpt lat="48.10862" lon="-4.16911">
        <ele>134.2412109375</ele>
        <time>2015-10-01T14:37:19Z</time>
      </trkpt>
      <trkpt lat="48.10859" lon="-4.16911">
        <ele>135.20251464844</ele>
        <time>2015-10-01T14:37:23Z</time>
      </trkpt>
      <trkpt lat="48.10854" lon="-4.16913">
        <ele>128.47338867188</ele>
        <time>2015-10-01T14:37:30Z</time>
      </trkpt>
      <trkpt lat="48.10849" lon="-4.16907">
        <ele>126.55065917969</ele>
        <time>2015-10-01T14:37:38Z</time>
      </trkpt>
      <trkpt lat="48.10853" lon="-4.16911">
        <ele>131.35729980469</ele>
        <time>2015-10-01T14:37:44Z</time>
      </trkpt>
      <trkpt lat="48.10856" lon="-4.16913">
        <ele>133.27990722656</ele>
        <time>2015-10-01T14:37:56Z</time>
      </trkpt>
      <trkpt lat="48.10857" lon="-4.16914">
        <ele>134.2412109375</ele>
        <time>2015-10-01T14:38:05Z</time>
      </trkpt>
      <trkpt lat="48.10858" lon="-4.16915">
        <ele>134.2412109375</ele>
        <time>2015-10-01T14:38:11Z</time>
      </trkpt>
      <trkpt lat="48.10858" lon="-4.16915">
        <ele>134.2412109375</ele>
        <time>2015-10-01T14:38:23Z</time>
      </trkpt>
      <trkpt lat="48.10858" lon="-4.16915">
        <ele>135.20251464844</ele>
        <time>2015-10-01T14:38:30Z</time>
      </trkpt>
      <trkpt lat="48.10858" lon="-4.16916">
        <ele>133.76049804688</ele>
        <time>2015-10-01T14:38:59Z</time>
      </trkpt>
      <trkpt lat="48.10857" lon="-4.16919">
        <ele>134.72192382812</ele>
        <time>2015-10-01T14:39:07Z</time>
      </trkpt>
      <trkpt lat="48.10857" lon="-4.1692">
        <ele>133.76049804688</ele>
        <time>2015-10-01T14:39:14Z</time>
      </trkpt>
      <trkpt lat="48.10857" lon="-4.16921">
        <ele>132.79931640625</ele>
        <time>2015-10-01T14:39:41Z</time>
      </trkpt>
      <trkpt lat="48.10857" lon="-4.16922">
        <ele>132.31860351562</ele>
        <time>2015-10-01T14:39:48Z</time>
      </trkpt>
      <trkpt lat="48.10855" lon="-4.16927">
        <ele>131.837890625</ele>
        <time>2015-10-01T14:39:56Z</time>
      </trkpt>
      <trkpt lat="48.10854" lon="-4.16932">
        <ele>131.35729980469</ele>
        <time>2015-10-01T14:40:02Z</time>
      </trkpt>
      <trkpt lat="48.10853" lon="-4.16937">
        <ele>131.837890625</ele>
        <time>2015-10-01T14:40:07Z</time>
      </trkpt>
      <trkpt lat="48.10851" lon="-4.16946">
        <ele>131.837890625</ele>
        <time>2015-10-01T14:40:14Z</time>
      </trkpt>
      <trkpt lat="48.10849" lon="-4.16954">
        <ele>132.31860351562</ele>
        <time>2015-10-01T14:40:20Z</time>
      </trkpt>
      <trkpt lat="48.10848" lon="-4.16964">
        <ele>132.79931640625</ele>
        <time>2015-10-01T14:40:27Z</time>
      </trkpt>
      <trkpt lat="48.10845" lon="-4.1698">
        <ele>132.79931640625</ele>
        <time>2015-10-01T14:40:38Z</time>
      </trkpt>
      <trkpt lat="48.10844" lon="-4.16987">
        <ele>132.31860351562</ele>
        <time>2015-10-01T14:40:43Z</time>
      </trkpt>
      <trkpt lat="48.1084" lon="-4.17004">
        <ele>132.31860351562</ele>
        <time>2015-10-01T14:40:54Z</time>
      </trkpt>
      <trkpt lat="48.10837" lon="-4.17018">
        <ele>132.79931640625</ele>
        <time>2015-10-01T14:41:03Z</time>
      </trkpt>
      <trkpt lat="48.10836" lon="-4.17024">
        <ele>132.79931640625</ele>
        <time>2015-10-01T14:41:11Z</time>
      </trkpt>
      <trkpt lat="48.10835" lon="-4.17032">
        <ele>132.31860351562</ele>
        <time>2015-10-01T14:41:16Z</time>
      </trkpt>
      <trkpt lat="48.10834" lon="-4.17049">
        <ele>130.87670898438</ele>
        <time>2015-10-01T14:41:27Z</time>
      </trkpt>
      <trkpt lat="48.10832" lon="-4.17067">
        <ele>130.87670898438</ele>
        <time>2015-10-01T14:41:38Z</time>
      </trkpt>
      <trkpt lat="48.10829" lon="-4.17083">
        <ele>131.35729980469</ele>
        <time>2015-10-01T14:41:48Z</time>
      </trkpt>
      <trkpt lat="48.10827" lon="-4.17095">
        <ele>131.837890625</ele>
        <time>2015-10-01T14:41:55Z</time>
      </trkpt>
      <trkpt lat="48.10827" lon="-4.17102">
        <ele>132.31860351562</ele>
        <time>2015-10-01T14:41:59Z</time>
      </trkpt>
      <trkpt lat="48.10824" lon="-4.17113">
        <ele>133.76049804688</ele>
        <time>2015-10-01T14:42:06Z</time>
      </trkpt>
      <trkpt lat="48.10823" lon="-4.17123">
        <ele>133.76049804688</ele>
        <time>2015-10-01T14:42:12Z</time>
      </trkpt>
      <trkpt lat="48.10821" lon="-4.17137">
        <ele>133.76049804688</ele>
        <time>2015-10-01T14:42:20Z</time>
      </trkpt>
      <trkpt lat="48.10819" lon="-4.17148">
        <ele>135.20251464844</ele>
        <time>2015-10-01T14:42:27Z</time>
      </trkpt>
      <trkpt lat="48.10816" lon="-4.1716">
        <ele>135.68310546875</ele>
        <time>2015-10-01T14:42:34Z</time>
      </trkpt>
      <trkpt lat="48.10814" lon="-4.17171">
        <ele>136.16394042969</ele>
        <time>2015-10-01T14:42:40Z</time>
      </trkpt>
      <trkpt lat="48.10811" lon="-4.17185">
        <ele>137.12524414062</ele>
        <time>2015-10-01T14:42:48Z</time>
      </trkpt>
      <trkpt lat="48.10808" lon="-4.172">
        <ele>137.60583496094</ele>
        <time>2015-10-01T14:42:56Z</time>
      </trkpt>
      <trkpt lat="48.10806" lon="-4.17214">
        <ele>137.60583496094</ele>
        <time>2015-10-01T14:43:04Z</time>
      </trkpt>
      <trkpt lat="48.10804" lon="-4.17225">
        <ele>137.12524414062</ele>
        <time>2015-10-01T14:43:11Z</time>
      </trkpt>
      <trkpt lat="48.10802" lon="-4.17234">
        <ele>137.60583496094</ele>
        <time>2015-10-01T14:43:16Z</time>
      </trkpt>
      <trkpt lat="48.10801" lon="-4.17239">
        <ele>138.08654785156</ele>
        <time>2015-10-01T14:43:18Z</time>
      </trkpt>
      <trkpt lat="48.108" lon="-4.17247">
        <ele>140.97045898438</ele>
        <time>2015-10-01T14:43:24Z</time>
      </trkpt>
      <trkpt lat="48.10798" lon="-4.17258">
        <ele>142.89306640625</ele>
        <time>2015-10-01T14:43:31Z</time>
      </trkpt>
      <trkpt lat="48.10797" lon="-4.1727">
        <ele>142.41247558594</ele>
        <time>2015-10-01T14:43:37Z</time>
      </trkpt>
      <trkpt lat="48.10794" lon="-4.1728">
        <ele>143.37365722656</ele>
        <time>2015-10-01T14:43:43Z</time>
      </trkpt>
      <trkpt lat="48.10792" lon="-4.17289">
        <ele>144.33520507812</ele>
        <time>2015-10-01T14:43:47Z</time>
      </trkpt>
      <trkpt lat="48.10789" lon="-4.17299">
        <ele>144.81579589844</ele>
        <time>2015-10-01T14:43:52Z</time>
      </trkpt>
      <trkpt lat="48.10789" lon="-4.17303">
        <ele>144.81579589844</ele>
        <time>2015-10-01T14:43:54Z</time>
      </trkpt>
      <trkpt lat="48.10786" lon="-4.17317">
        <ele>142.89306640625</ele>
        <time>2015-10-01T14:44:01Z</time>
      </trkpt>
      <trkpt lat="48.10785" lon="-4.17325">
        <ele>141.93176269531</ele>
        <time>2015-10-01T14:44:06Z</time>
      </trkpt>
      <trkpt lat="48.10781" lon="-4.17339">
        <ele>141.93176269531</ele>
        <time>2015-10-01T14:44:12Z</time>
      </trkpt>
      <trkpt lat="48.10779" lon="-4.1735">
        <ele>141.93176269531</ele>
        <time>2015-10-01T14:44:18Z</time>
      </trkpt>
      <trkpt lat="48.10778" lon="-4.17351">
        <ele>141.45104980469</ele>
        <time>2015-10-01T14:44:19Z</time>
      </trkpt>
      <trkpt lat="48.10777" lon="-4.17362">
        <ele>140.97045898438</ele>
        <time>2015-10-01T14:44:25Z</time>
      </trkpt>
      <trkpt lat="48.10776" lon="-4.1737">
        <ele>140.97045898438</ele>
        <time>2015-10-01T14:44:30Z</time>
      </trkpt>
      <trkpt lat="48.10776" lon="-4.17371">
        <ele>140.48986816406</ele>
        <time>2015-10-01T14:44:31Z</time>
      </trkpt>
      <trkpt lat="48.10776" lon="-4.17378">
        <ele>140.00915527344</ele>
        <time>2015-10-01T14:44:35Z</time>
      </trkpt>
      <trkpt lat="48.10776" lon="-4.17389">
        <ele>137.60583496094</ele>
        <time>2015-10-01T14:44:42Z</time>
      </trkpt>
      <trkpt lat="48.10777" lon="-4.17399">
        <ele>136.16394042969</ele>
        <time>2015-10-01T14:44:48Z</time>
      </trkpt>
      <trkpt lat="48.10777" lon="-4.17402">
        <ele>135.68310546875</ele>
        <time>2015-10-01T14:44:50Z</time>
      </trkpt>
      <trkpt lat="48.10776" lon="-4.17413">
        <ele>135.20251464844</ele>
        <time>2015-10-01T14:44:56Z</time>
      </trkpt>
      <trkpt lat="48.10776" lon="-4.17423">
        <ele>135.20251464844</ele>
        <time>2015-10-01T14:45:02Z</time>
      </trkpt>
      <trkpt lat="48.10774" lon="-4.17433">
        <ele>136.64465332031</ele>
        <time>2015-10-01T14:45:07Z</time>
      </trkpt>
      <trkpt lat="48.10774" lon="-4.17453">
        <ele>134.2412109375</ele>
        <time>2015-10-01T14:45:17Z</time>
      </trkpt>
      <trkpt lat="48.10773" lon="-4.17474">
        <ele>130.87670898438</ele>
        <time>2015-10-01T14:45:28Z</time>
      </trkpt>
      <trkpt lat="48.10772" lon="-4.17494">
        <ele>128.9541015625</ele>
        <time>2015-10-01T14:45:39Z</time>
      </trkpt>
      <trkpt lat="48.10772" lon="-4.17513">
        <ele>127.99255371094</ele>
        <time>2015-10-01T14:45:49Z</time>
      </trkpt>
      <trkpt lat="48.10771" lon="-4.17527">
        <ele>127.03137207031</ele>
        <time>2015-10-01T14:45:57Z</time>
      </trkpt>
      <trkpt lat="48.1077" lon="-4.17542">
        <ele>126.06994628906</ele>
        <time>2015-10-01T14:46:05Z</time>
      </trkpt>
      <trkpt lat="48.10768" lon="-4.17561">
        <ele>124.14733886719</ele>
        <time>2015-10-01T14:46:15Z</time>
      </trkpt>
      <trkpt lat="48.10767" lon="-4.1758">
        <ele>124.14733886719</ele>
        <time>2015-10-01T14:46:25Z</time>
      </trkpt>
      <trkpt lat="48.10767" lon="-4.176">
        <ele>122.70544433594</ele>
        <time>2015-10-01T14:46:36Z</time>
      </trkpt>
      <trkpt lat="48.10767" lon="-4.17616">
        <ele>122.22473144531</ele>
        <time>2015-10-01T14:46:45Z</time>
      </trkpt>
      <trkpt lat="48.10767" lon="-4.17625">
        <ele>122.22473144531</ele>
        <time>2015-10-01T14:46:50Z</time>
      </trkpt>
      <trkpt lat="48.10766" lon="-4.17627">
        <ele>123.66674804688</ele>
        <time>2015-10-01T14:46:57Z</time>
      </trkpt>
      <trkpt lat="48.10766" lon="-4.17635">
        <ele>123.18615722656</ele>
        <time>2015-10-01T14:47:04Z</time>
      </trkpt>
      <trkpt lat="48.10765" lon="-4.17644">
        <ele>122.70544433594</ele>
        <time>2015-10-01T14:47:09Z</time>
      </trkpt>
      <trkpt lat="48.10762" lon="-4.1766">
        <ele>121.26354980469</ele>
        <time>2015-10-01T14:47:19Z</time>
      </trkpt>
      <trkpt lat="48.10759" lon="-4.17679">
        <ele>121.744140625</ele>
        <time>2015-10-01T14:47:30Z</time>
      </trkpt>
      <trkpt lat="48.10756" lon="-4.17691">
        <ele>120.78283691406</ele>
        <time>2015-10-01T14:47:37Z</time>
      </trkpt>
      <trkpt lat="48.10753" lon="-4.17701">
        <ele>121.26354980469</ele>
        <time>2015-10-01T14:47:44Z</time>
      </trkpt>
      <trkpt lat="48.1075" lon="-4.17711">
        <ele>120.78283691406</ele>
        <time>2015-10-01T14:47:51Z</time>
      </trkpt>
      <trkpt lat="48.10746" lon="-4.17721">
        <ele>120.30212402344</ele>
        <time>2015-10-01T14:47:58Z</time>
      </trkpt>
      <trkpt lat="48.10745" lon="-4.17728">
        <ele>120.78283691406</ele>
        <time>2015-10-01T14:48:02Z</time>
      </trkpt>
      <trkpt lat="48.1074" lon="-4.17741">
        <ele>119.3408203125</ele>
        <time>2015-10-01T14:48:10Z</time>
      </trkpt>
      <trkpt lat="48.1074" lon="-4.17742">
        <ele>118.86010742188</ele>
        <time>2015-10-01T14:48:11Z</time>
      </trkpt>
      <trkpt lat="48.10734" lon="-4.17756">
        <ele>116.45678710938</ele>
        <time>2015-10-01T14:48:20Z</time>
      </trkpt>
      <trkpt lat="48.10728" lon="-4.17774">
        <ele>116.9375</ele>
        <time>2015-10-01T14:48:30Z</time>
      </trkpt>
      <trkpt lat="48.10723" lon="-4.17789">
        <ele>116.45678710938</ele>
        <time>2015-10-01T14:48:39Z</time>
      </trkpt>
      <trkpt lat="48.10717" lon="-4.17806">
        <ele>118.37939453125</ele>
        <time>2015-10-01T14:48:49Z</time>
      </trkpt>
      <trkpt lat="48.10715" lon="-4.17826">
        <ele>118.37939453125</ele>
        <time>2015-10-01T14:49:00Z</time>
      </trkpt>
      <trkpt lat="48.1071" lon="-4.17847">
        <ele>118.86010742188</ele>
        <time>2015-10-01T14:49:12Z</time>
      </trkpt>
      <trkpt lat="48.10706" lon="-4.17869">
        <ele>118.37939453125</ele>
        <time>2015-10-01T14:49:25Z</time>
      </trkpt>
      <trkpt lat="48.10705" lon="-4.17872">
        <ele>117.89880371094</ele>
        <time>2015-10-01T14:49:27Z</time>
      </trkpt>
      <trkpt lat="48.10703" lon="-4.1788">
        <ele>118.86010742188</ele>
        <time>2015-10-01T14:49:32Z</time>
      </trkpt>
      <trkpt lat="48.10702" lon="-4.17891">
        <ele>120.30212402344</ele>
        <time>2015-10-01T14:49:38Z</time>
      </trkpt>
      <trkpt lat="48.10697" lon="-4.17902">
        <ele>121.744140625</ele>
        <time>2015-10-01T14:49:45Z</time>
      </trkpt>
      <trkpt lat="48.10697" lon="-4.17903">
        <ele>122.22473144531</ele>
        <time>2015-10-01T14:49:46Z</time>
      </trkpt>
      <trkpt lat="48.10696" lon="-4.17906">
        <ele>122.70544433594</ele>
        <time>2015-10-01T14:49:51Z</time>
      </trkpt>
      <trkpt lat="48.10695" lon="-4.17911">
        <ele>123.66674804688</ele>
        <time>2015-10-01T14:49:56Z</time>
      </trkpt>
      <trkpt lat="48.10695" lon="-4.17913">
        <ele>124.14733886719</ele>
        <time>2015-10-01T14:49:57Z</time>
      </trkpt>
      <trkpt lat="48.10691" lon="-4.17924">
        <ele>126.06994628906</ele>
        <time>2015-10-01T14:50:04Z</time>
      </trkpt>
      <trkpt lat="48.10688" lon="-4.17934">
        <ele>127.03137207031</ele>
        <time>2015-10-01T14:50:10Z</time>
      </trkpt>
      <trkpt lat="48.10687" lon="-4.17938">
        <ele>126.55065917969</ele>
        <time>2015-10-01T14:50:13Z</time>
      </trkpt>
      <trkpt lat="48.10683" lon="-4.17949">
        <ele>127.03137207031</ele>
        <time>2015-10-01T14:50:20Z</time>
      </trkpt>
      <trkpt lat="48.10681" lon="-4.17955">
        <ele>127.03137207031</ele>
        <time>2015-10-01T14:50:23Z</time>
      </trkpt>
      <trkpt lat="48.10677" lon="-4.17965">
        <ele>128.47338867188</ele>
        <time>2015-10-01T14:50:29Z</time>
      </trkpt>
      <trkpt lat="48.10673" lon="-4.17978">
        <ele>128.47338867188</ele>
        <time>2015-10-01T14:50:36Z</time>
      </trkpt>
      <trkpt lat="48.10671" lon="-4.17986">
        <ele>128.9541015625</ele>
        <time>2015-10-01T14:50:41Z</time>
      </trkpt>
      <trkpt lat="48.10672" lon="-4.17987">
        <ele>129.43469238281</ele>
        <time>2015-10-01T14:50:42Z</time>
      </trkpt>
      <trkpt lat="48.10671" lon="-4.18001">
        <ele>129.91528320312</ele>
        <time>2015-10-01T14:50:48Z</time>
      </trkpt>
      <trkpt lat="48.1067" lon="-4.18005">
        <ele>128.9541015625</ele>
        <time>2015-10-01T14:50:50Z</time>
      </trkpt>
      <trkpt lat="48.10672" lon="-4.18014">
        <ele>126.55065917969</ele>
        <time>2015-10-01T14:50:54Z</time>
      </trkpt>
      <trkpt lat="48.10673" lon="-4.1802">
        <ele>124.62805175781</ele>
        <time>2015-10-01T14:50:59Z</time>
      </trkpt>
      <trkpt lat="48.10676" lon="-4.18031">
        <ele>122.70544433594</ele>
        <time>2015-10-01T14:51:05Z</time>
      </trkpt>
      <trkpt lat="48.10677" lon="-4.18033">
        <ele>122.22473144531</ele>
        <time>2015-10-01T14:51:06Z</time>
      </trkpt>
      <trkpt lat="48.1068" lon="-4.18039">
        <ele>121.26354980469</ele>
        <time>2015-10-01T14:51:10Z</time>
      </trkpt>
      <trkpt lat="48.1068" lon="-4.18043">
        <ele>120.30212402344</ele>
        <time>2015-10-01T14:51:12Z</time>
      </trkpt>
      <trkpt lat="48.10683" lon="-4.18052">
        <ele>118.86010742188</ele>
        <time>2015-10-01T14:51:18Z</time>
      </trkpt>
      <trkpt lat="48.10685" lon="-4.18056">
        <ele>118.86010742188</ele>
        <time>2015-10-01T14:51:21Z</time>
      </trkpt>
      <trkpt lat="48.10687" lon="-4.18058">
        <ele>117.89880371094</ele>
        <time>2015-10-01T14:51:23Z</time>
      </trkpt>
      <trkpt lat="48.10688" lon="-4.1806">
        <ele>118.86010742188</ele>
        <time>2015-10-01T14:51:32Z</time>
      </trkpt>
      <trkpt lat="48.1069" lon="-4.18062">
        <ele>119.3408203125</ele>
        <time>2015-10-01T14:51:42Z</time>
      </trkpt>
      <trkpt lat="48.10693" lon="-4.18067">
        <ele>119.3408203125</ele>
        <time>2015-10-01T14:52:12Z</time>
      </trkpt>
      <trkpt lat="48.10699" lon="-4.18073">
        <ele>118.86010742188</ele>
        <time>2015-10-01T14:52:19Z</time>
      </trkpt>
      <trkpt lat="48.10701" lon="-4.18078">
        <ele>117.41821289062</ele>
        <time>2015-10-01T14:52:23Z</time>
      </trkpt>
      <trkpt lat="48.10702" lon="-4.18088">
        <ele>116.9375</ele>
        <time>2015-10-01T14:52:29Z</time>
      </trkpt>
      <trkpt lat="48.10696" lon="-4.18106">
        <ele>115.49560546875</ele>
        <time>2015-10-01T14:52:40Z</time>
      </trkpt>
      <trkpt lat="48.1069" lon="-4.18121">
        <ele>113.57299804688</ele>
        <time>2015-10-01T14:52:50Z</time>
      </trkpt>
      <trkpt lat="48.10683" lon="-4.18134">
        <ele>113.09228515625</ele>
        <time>2015-10-01T14:52:59Z</time>
      </trkpt>
      <trkpt lat="48.1068" lon="-4.18144">
        <ele>113.09228515625</ele>
        <time>2015-10-01T14:53:05Z</time>
      </trkpt>
      <trkpt lat="48.10679" lon="-4.18154">
        <ele>113.09228515625</ele>
        <time>2015-10-01T14:53:11Z</time>
      </trkpt>
      <trkpt lat="48.10679" lon="-4.1816">
        <ele>113.09228515625</ele>
        <time>2015-10-01T14:53:15Z</time>
      </trkpt>
      <trkpt lat="48.10679" lon="-4.18166">
        <ele>113.09228515625</ele>
        <time>2015-10-01T14:53:19Z</time>
      </trkpt>
      <trkpt lat="48.1068" lon="-4.18176">
        <ele>112.61157226562</ele>
        <time>2015-10-01T14:53:25Z</time>
      </trkpt>
      <trkpt lat="48.10683" lon="-4.18187">
        <ele>114.5341796875</ele>
        <time>2015-10-01T14:53:31Z</time>
      </trkpt>
      <trkpt lat="48.10684" lon="-4.18192">
        <ele>115.97619628906</ele>
        <time>2015-10-01T14:53:33Z</time>
      </trkpt>
      <trkpt lat="48.10684" lon="-4.18205">
        <ele>115.97619628906</ele>
        <time>2015-10-01T14:53:40Z</time>
      </trkpt>
      <trkpt lat="48.10683" lon="-4.18217">
        <ele>115.97619628906</ele>
        <time>2015-10-01T14:53:47Z</time>
      </trkpt>
      <trkpt lat="48.10687" lon="-4.18228">
        <ele>117.89880371094</ele>
        <time>2015-10-01T14:53:53Z</time>
      </trkpt>
      <trkpt lat="48.1069" lon="-4.1824">
        <ele>118.37939453125</ele>
        <time>2015-10-01T14:54:00Z</time>
      </trkpt>
      <trkpt lat="48.10692" lon="-4.18251">
        <ele>116.9375</ele>
        <time>2015-10-01T14:54:07Z</time>
      </trkpt>
      <trkpt lat="48.10694" lon="-4.18256">
        <ele>115.97619628906</ele>
        <time>2015-10-01T14:54:10Z</time>
      </trkpt>
      <trkpt lat="48.10696" lon="-4.18268">
        <ele>116.45678710938</ele>
        <time>2015-10-01T14:54:17Z</time>
      </trkpt>
      <trkpt lat="48.10697" lon="-4.18274">
        <ele>116.9375</ele>
        <time>2015-10-01T14:54:21Z</time>
      </trkpt>
      <trkpt lat="48.10698" lon="-4.18278">
        <ele>117.41821289062</ele>
        <time>2015-10-01T14:54:24Z</time>
      </trkpt>
      <trkpt lat="48.107" lon="-4.18293">
        <ele>121.26354980469</ele>
        <time>2015-10-01T14:54:32Z</time>
      </trkpt>
      <trkpt lat="48.107" lon="-4.18303">
        <ele>120.30212402344</ele>
        <time>2015-10-01T14:54:37Z</time>
      </trkpt>
      <trkpt lat="48.10699" lon="-4.18309">
        <ele>118.86010742188</ele>
        <time>2015-10-01T14:54:40Z</time>
      </trkpt>
      <trkpt lat="48.10699" lon="-4.18325">
        <ele>119.82141113281</ele>
        <time>2015-10-01T14:54:49Z</time>
      </trkpt>
      <trkpt lat="48.10699" lon="-4.18335">
        <ele>117.89880371094</ele>
        <time>2015-10-01T14:54:54Z</time>
      </trkpt>
      <trkpt lat="48.107" lon="-4.18348">
        <ele>116.45678710938</ele>
        <time>2015-10-01T14:55:01Z</time>
      </trkpt>
      <trkpt lat="48.10701" lon="-4.1835">
        <ele>116.45678710938</ele>
        <time>2015-10-01T14:55:02Z</time>
      </trkpt>
      <trkpt lat="48.10704" lon="-4.18361">
        <ele>118.86010742188</ele>
        <time>2015-10-01T14:55:07Z</time>
      </trkpt>
      <trkpt lat="48.10706" lon="-4.18377">
        <ele>116.9375</ele>
        <time>2015-10-01T14:55:16Z</time>
      </trkpt>
      <trkpt lat="48.10706" lon="-4.18379">
        <ele>116.9375</ele>
        <time>2015-10-01T14:55:17Z</time>
      </trkpt>
      <trkpt lat="48.10703" lon="-4.18386">
        <ele>116.9375</ele>
        <time>2015-10-01T14:55:21Z</time>
      </trkpt>
      <trkpt lat="48.10698" lon="-4.18402">
        <ele>116.45678710938</ele>
        <time>2015-10-01T14:55:31Z</time>
      </trkpt>
      <trkpt lat="48.10695" lon="-4.18413">
        <ele>118.37939453125</ele>
        <time>2015-10-01T14:55:38Z</time>
      </trkpt>
      <trkpt lat="48.10691" lon="-4.18425">
        <ele>118.86010742188</ele>
        <time>2015-10-01T14:55:45Z</time>
      </trkpt>
      <trkpt lat="48.1069" lon="-4.18428">
        <ele>118.86010742188</ele>
        <time>2015-10-01T14:55:47Z</time>
      </trkpt>
      <trkpt lat="48.10688" lon="-4.18436">
        <ele>118.37939453125</ele>
        <time>2015-10-01T14:55:53Z</time>
      </trkpt>
      <trkpt lat="48.10684" lon="-4.18447">
        <ele>117.41821289062</ele>
        <time>2015-10-01T14:56:00Z</time>
      </trkpt>
      <trkpt lat="48.1068" lon="-4.18455">
        <ele>117.41821289062</ele>
        <time>2015-10-01T14:56:06Z</time>
      </trkpt>
      <trkpt lat="48.10677" lon="-4.18463">
        <ele>118.86010742188</ele>
        <time>2015-10-01T14:56:11Z</time>
      </trkpt>
      <trkpt lat="48.10674" lon="-4.18474">
        <ele>118.86010742188</ele>
        <time>2015-10-01T14:56:17Z</time>
      </trkpt>
      <trkpt lat="48.10669" lon="-4.18485">
        <ele>117.89880371094</ele>
        <time>2015-10-01T14:56:24Z</time>
      </trkpt>
      <trkpt lat="48.10666" lon="-4.18493">
        <ele>116.9375</ele>
        <time>2015-10-01T14:56:30Z</time>
      </trkpt>
      <trkpt lat="48.10664" lon="-4.185">
        <ele>117.41821289062</ele>
        <time>2015-10-01T14:56:34Z</time>
      </trkpt>
      <trkpt lat="48.10659" lon="-4.18514">
        <ele>117.41821289062</ele>
        <time>2015-10-01T14:56:43Z</time>
      </trkpt>
      <trkpt lat="48.10655" lon="-4.18524">
        <ele>117.41821289062</ele>
        <time>2015-10-01T14:56:50Z</time>
      </trkpt>
      <trkpt lat="48.10651" lon="-4.18533">
        <ele>117.89880371094</ele>
        <time>2015-10-01T14:56:55Z</time>
      </trkpt>
      <trkpt lat="48.10649" lon="-4.18539">
        <ele>117.41821289062</ele>
        <time>2015-10-01T14:56:59Z</time>
      </trkpt>
      <trkpt lat="48.10645" lon="-4.18551">
        <ele>116.9375</ele>
        <time>2015-10-01T14:57:07Z</time>
      </trkpt>
      <trkpt lat="48.10644" lon="-4.18554">
        <ele>116.45678710938</ele>
        <time>2015-10-01T14:57:09Z</time>
      </trkpt>
      <trkpt lat="48.10639" lon="-4.18566">
        <ele>116.45678710938</ele>
        <time>2015-10-01T14:57:17Z</time>
      </trkpt>
      <trkpt lat="48.10633" lon="-4.18577">
        <ele>117.89880371094</ele>
        <time>2015-10-01T14:57:25Z</time>
      </trkpt>
      <trkpt lat="48.10629" lon="-4.18588">
        <ele>117.89880371094</ele>
        <time>2015-10-01T14:57:32Z</time>
      </trkpt>
      <trkpt lat="48.10625" lon="-4.18597">
        <ele>117.89880371094</ele>
        <time>2015-10-01T14:57:38Z</time>
      </trkpt>
      <trkpt lat="48.10621" lon="-4.18607">
        <ele>118.86010742188</ele>
        <time>2015-10-01T14:57:45Z</time>
      </trkpt>
      <trkpt lat="48.10617" lon="-4.18618">
        <ele>117.89880371094</ele>
        <time>2015-10-01T14:57:53Z</time>
      </trkpt>
      <trkpt lat="48.10612" lon="-4.18633">
        <ele>118.37939453125</ele>
        <time>2015-10-01T14:58:02Z</time>
      </trkpt>
      <trkpt lat="48.10609" lon="-4.18645">
        <ele>118.37939453125</ele>
        <time>2015-10-01T14:58:09Z</time>
      </trkpt>
      <trkpt lat="48.10606" lon="-4.18655">
        <ele>118.86010742188</ele>
        <time>2015-10-01T14:58:15Z</time>
      </trkpt>
      <trkpt lat="48.10605" lon="-4.18666">
        <ele>118.37939453125</ele>
        <time>2015-10-01T14:58:21Z</time>
      </trkpt>
      <trkpt lat="48.10603" lon="-4.18677">
        <ele>117.89880371094</ele>
        <time>2015-10-01T14:58:27Z</time>
      </trkpt>
      <trkpt lat="48.10602" lon="-4.18681">
        <ele>117.89880371094</ele>
        <time>2015-10-01T14:58:29Z</time>
      </trkpt>
      <trkpt lat="48.10599" lon="-4.1869">
        <ele>118.86010742188</ele>
        <time>2015-10-01T14:58:35Z</time>
      </trkpt>
      <trkpt lat="48.10594" lon="-4.18702">
        <ele>119.3408203125</ele>
        <time>2015-10-01T14:58:43Z</time>
      </trkpt>
      <trkpt lat="48.1059" lon="-4.18713">
        <ele>118.86010742188</ele>
        <time>2015-10-01T14:58:50Z</time>
      </trkpt>
      <trkpt lat="48.10584" lon="-4.18725">
        <ele>118.37939453125</ele>
        <time>2015-10-01T14:58:58Z</time>
      </trkpt>
      <trkpt lat="48.10579" lon="-4.18736">
        <ele>118.86010742188</ele>
        <time>2015-10-01T14:59:05Z</time>
      </trkpt>
      <trkpt lat="48.10573" lon="-4.18744">
        <ele>119.3408203125</ele>
        <time>2015-10-01T14:59:12Z</time>
      </trkpt>
      <trkpt lat="48.10566" lon="-4.1875">
        <ele>120.30212402344</ele>
        <time>2015-10-01T14:59:19Z</time>
      </trkpt>
      <trkpt lat="48.10561" lon="-4.18753">
        <ele>120.30212402344</ele>
        <time>2015-10-01T14:59:25Z</time>
      </trkpt>
      <trkpt lat="48.1056" lon="-4.18758">
        <ele>119.82141113281</ele>
        <time>2015-10-01T14:59:29Z</time>
      </trkpt>
      <trkpt lat="48.10558" lon="-4.18772">
        <ele>119.3408203125</ele>
        <time>2015-10-01T14:59:37Z</time>
      </trkpt>
      <trkpt lat="48.10558" lon="-4.18777">
        <ele>119.3408203125</ele>
        <time>2015-10-01T14:59:41Z</time>
      </trkpt>
      <trkpt lat="48.10556" lon="-4.18784">
        <ele>117.41821289062</ele>
        <time>2015-10-01T14:59:47Z</time>
      </trkpt>
      <trkpt lat="48.10553" lon="-4.18796">
        <ele>115.97619628906</ele>
        <time>2015-10-01T14:59:54Z</time>
      </trkpt>
      <trkpt lat="48.10552" lon="-4.18799">
        <ele>115.01489257812</ele>
        <time>2015-10-01T14:59:56Z</time>
      </trkpt>
      <trkpt lat="48.10549" lon="-4.18805">
        <ele>113.57299804688</ele>
        <time>2015-10-01T15:00:00Z</time>
      </trkpt>
      <trkpt lat="48.10548" lon="-4.18808">
        <ele>112.13098144531</ele>
        <time>2015-10-01T15:00:03Z</time>
      </trkpt>
      <trkpt lat="48.10546" lon="-4.18814">
        <ele>109.24694824219</ele>
        <time>2015-10-01T15:00:07Z</time>
      </trkpt>
      <trkpt lat="48.10543" lon="-4.18826">
        <ele>109.72766113281</ele>
        <time>2015-10-01T15:00:14Z</time>
      </trkpt>
      <trkpt lat="48.10541" lon="-4.18831">
        <ele>109.24694824219</ele>
        <time>2015-10-01T15:00:17Z</time>
      </trkpt>
      <trkpt lat="48.10539" lon="-4.18841">
        <ele>110.68884277344</ele>
        <time>2015-10-01T15:00:21Z</time>
      </trkpt>
      <trkpt lat="48.10537" lon="-4.18846">
        <ele>109.72766113281</ele>
        <time>2015-10-01T15:00:25Z</time>
      </trkpt>
      <trkpt lat="48.10536" lon="-4.18848">
        <ele>109.72766113281</ele>
        <time>2015-10-01T15:00:27Z</time>
      </trkpt>
      <trkpt lat="48.10533" lon="-4.18857">
        <ele>110.68884277344</ele>
        <time>2015-10-01T15:00:32Z</time>
      </trkpt>
      <trkpt lat="48.10528" lon="-4.18867">
        <ele>112.61157226562</ele>
        <time>2015-10-01T15:00:37Z</time>
      </trkpt>
      <trkpt lat="48.10528" lon="-4.18869">
        <ele>112.61157226562</ele>
        <time>2015-10-01T15:00:39Z</time>
      </trkpt>
      <trkpt lat="48.10526" lon="-4.18875">
        <ele>112.13098144531</ele>
        <time>2015-10-01T15:00:43Z</time>
      </trkpt>
      <trkpt lat="48.10524" lon="-4.18879">
        <ele>111.16955566406</ele>
        <time>2015-10-01T15:00:46Z</time>
      </trkpt>
      <trkpt lat="48.10518" lon="-4.18891">
        <ele>113.57299804688</ele>
        <time>2015-10-01T15:00:54Z</time>
      </trkpt>
      <trkpt lat="48.10517" lon="-4.18894">
        <ele>113.57299804688</ele>
        <time>2015-10-01T15:00:56Z</time>
      </trkpt>
      <trkpt lat="48.10514" lon="-4.189">
        <ele>113.09228515625</ele>
        <time>2015-10-01T15:01:01Z</time>
      </trkpt>
      <trkpt lat="48.10511" lon="-4.18906">
        <ele>110.68884277344</ele>
        <time>2015-10-01T15:01:06Z</time>
      </trkpt>
      <trkpt lat="48.10508" lon="-4.18916">
        <ele>110.68884277344</ele>
        <time>2015-10-01T15:01:11Z</time>
      </trkpt>
      <trkpt lat="48.10501" lon="-4.1893">
        <ele>109.24694824219</ele>
        <time>2015-10-01T15:01:20Z</time>
      </trkpt>
      <trkpt lat="48.10495" lon="-4.18935">
        <ele>109.72766113281</ele>
        <time>2015-10-01T15:01:25Z</time>
      </trkpt>
      <trkpt lat="48.10487" lon="-4.18943">
        <ele>111.65026855469</ele>
        <time>2015-10-01T15:01:32Z</time>
      </trkpt>
      <trkpt lat="48.10478" lon="-4.1895">
        <ele>112.13098144531</ele>
        <time>2015-10-01T15:01:40Z</time>
      </trkpt>
      <trkpt lat="48.10473" lon="-4.18954">
        <ele>112.61157226562</ele>
        <time>2015-10-01T15:01:45Z</time>
      </trkpt>
      <trkpt lat="48.10468" lon="-4.18955">
        <ele>112.13098144531</ele>
        <time>2015-10-01T15:01:50Z</time>
      </trkpt>
      <trkpt lat="48.10469" lon="-4.18954">
        <ele>112.13098144531</ele>
        <time>2015-10-01T15:01:59Z</time>
      </trkpt>
      <trkpt lat="48.10468" lon="-4.18957">
        <ele>113.09228515625</ele>
        <time>2015-10-01T15:02:07Z</time>
      </trkpt>
      <trkpt lat="48.10463" lon="-4.18963">
        <ele>112.61157226562</ele>
        <time>2015-10-01T15:02:13Z</time>
      </trkpt>
      <trkpt lat="48.10453" lon="-4.1897">
        <ele>112.13098144531</ele>
        <time>2015-10-01T15:02:22Z</time>
      </trkpt>
      <trkpt lat="48.10452" lon="-4.18971">
        <ele>112.13098144531</ele>
        <time>2015-10-01T15:02:28Z</time>
      </trkpt>
      <trkpt lat="48.10449" lon="-4.18973">
        <ele>112.13098144531</ele>
        <time>2015-10-01T15:02:35Z</time>
      </trkpt>
      <trkpt lat="48.10445" lon="-4.18975">
        <ele>112.13098144531</ele>
        <time>2015-10-01T15:02:42Z</time>
      </trkpt>
      <trkpt lat="48.10444" lon="-4.18975">
        <ele>111.16955566406</ele>
        <time>2015-10-01T15:02:55Z</time>
      </trkpt>
      <trkpt lat="48.10443" lon="-4.18975">
        <ele>110.68884277344</ele>
        <time>2015-10-01T15:03:05Z</time>
      </trkpt>
      <trkpt lat="48.1044" lon="-4.18976">
        <ele>111.16955566406</ele>
        <time>2015-10-01T15:03:12Z</time>
      </trkpt>
      <trkpt lat="48.10435" lon="-4.18979">
        <ele>111.16955566406</ele>
        <time>2015-10-01T15:03:21Z</time>
      </trkpt>
      <trkpt lat="48.10429" lon="-4.1898">
        <ele>111.16955566406</ele>
        <time>2015-10-01T15:03:29Z</time>
      </trkpt>
      <trkpt lat="48.10427" lon="-4.18983">
        <ele>111.16955566406</ele>
        <time>2015-10-01T15:03:36Z</time>
      </trkpt>
      <trkpt lat="48.10422" lon="-4.18985">
        <ele>111.16955566406</ele>
        <time>2015-10-01T15:03:43Z</time>
      </trkpt>
      <trkpt lat="48.10418" lon="-4.18988">
        <ele>111.65026855469</ele>
        <time>2015-10-01T15:03:51Z</time>
      </trkpt>
      <trkpt lat="48.10412" lon="-4.1899">
        <ele>112.13098144531</ele>
        <time>2015-10-01T15:03:58Z</time>
      </trkpt>
      <trkpt lat="48.10404" lon="-4.18994">
        <ele>112.61157226562</ele>
        <time>2015-10-01T15:04:07Z</time>
      </trkpt>
      <trkpt lat="48.10396" lon="-4.18999">
        <ele>112.13098144531</ele>
        <time>2015-10-01T15:04:16Z</time>
      </trkpt>
      <trkpt lat="48.10389" lon="-4.19004">
        <ele>112.13098144531</ele>
        <time>2015-10-01T15:04:23Z</time>
      </trkpt>
      <trkpt lat="48.10382" lon="-4.19008">
        <ele>112.13098144531</ele>
        <time>2015-10-01T15:04:30Z</time>
      </trkpt>
      <trkpt lat="48.10381" lon="-4.19009">
        <ele>112.13098144531</ele>
        <time>2015-10-01T15:04:31Z</time>
      </trkpt>
      <trkpt lat="48.10375" lon="-4.19014">
        <ele>112.61157226562</ele>
        <time>2015-10-01T15:04:37Z</time>
      </trkpt>
      <trkpt lat="48.10365" lon="-4.19021">
        <ele>113.57299804688</ele>
        <time>2015-10-01T15:04:47Z</time>
      </trkpt>
      <trkpt lat="48.10358" lon="-4.19027">
        <ele>115.49560546875</ele>
        <time>2015-10-01T15:04:55Z</time>
      </trkpt>
      <trkpt lat="48.10352" lon="-4.19032">
        <ele>116.9375</ele>
        <time>2015-10-01T15:05:02Z</time>
      </trkpt>
      <trkpt lat="48.10346" lon="-4.19036">
        <ele>116.45678710938</ele>
        <time>2015-10-01T15:05:09Z</time>
      </trkpt>
      <trkpt lat="48.1034" lon="-4.19036">
        <ele>118.37939453125</ele>
        <time>2015-10-01T15:05:15Z</time>
      </trkpt>
      <trkpt lat="48.10339" lon="-4.19037">
        <ele>118.37939453125</ele>
        <time>2015-10-01T15:05:16Z</time>
      </trkpt>
      <trkpt lat="48.10335" lon="-4.19037">
        <ele>118.86010742188</ele>
        <time>2015-10-01T15:05:20Z</time>
      </trkpt>
      <trkpt lat="48.10326" lon="-4.1904">
        <ele>122.22473144531</ele>
        <time>2015-10-01T15:05:28Z</time>
      </trkpt>
      <trkpt lat="48.1032" lon="-4.1904">
        <ele>122.70544433594</ele>
        <time>2015-10-01T15:05:34Z</time>
      </trkpt>
      <trkpt lat="48.10314" lon="-4.1904">
        <ele>123.18615722656</ele>
        <time>2015-10-01T15:05:40Z</time>
      </trkpt>
      <trkpt lat="48.10308" lon="-4.1904">
        <ele>124.62805175781</ele>
        <time>2015-10-01T15:05:47Z</time>
      </trkpt>
      <trkpt lat="48.10302" lon="-4.1904">
        <ele>126.06994628906</ele>
        <time>2015-10-01T15:05:53Z</time>
      </trkpt>
      <trkpt lat="48.10294" lon="-4.19042">
        <ele>128.9541015625</ele>
        <time>2015-10-01T15:06:01Z</time>
      </trkpt>
      <trkpt lat="48.10294" lon="-4.19043">
        <ele>128.9541015625</ele>
        <time>2015-10-01T15:06:02Z</time>
      </trkpt>
      <trkpt lat="48.10286" lon="-4.19048">
        <ele>130.39599609375</ele>
        <time>2015-10-01T15:06:09Z</time>
      </trkpt>
      <trkpt lat="48.10281" lon="-4.19055">
        <ele>131.35729980469</ele>
        <time>2015-10-01T15:06:16Z</time>
      </trkpt>
      <trkpt lat="48.10275" lon="-4.19064">
        <ele>131.837890625</ele>
        <time>2015-10-01T15:06:23Z</time>
      </trkpt>
      <trkpt lat="48.10269" lon="-4.19074">
        <ele>133.76049804688</ele>
        <time>2015-10-01T15:06:30Z</time>
      </trkpt>
      <trkpt lat="48.10266" lon="-4.1908">
        <ele>134.72192382812</ele>
        <time>2015-10-01T15:06:35Z</time>
      </trkpt>
      <trkpt lat="48.10262" lon="-4.19091">
        <ele>136.64465332031</ele>
        <time>2015-10-01T15:06:43Z</time>
      </trkpt>
      <trkpt lat="48.10256" lon="-4.19102">
        <ele>136.64465332031</ele>
        <time>2015-10-01T15:06:51Z</time>
      </trkpt>
      <trkpt lat="48.1025" lon="-4.19113">
        <ele>137.12524414062</ele>
        <time>2015-10-01T15:06:58Z</time>
      </trkpt>
      <trkpt lat="48.10245" lon="-4.19124">
        <ele>136.64465332031</ele>
        <time>2015-10-01T15:07:06Z</time>
      </trkpt>
      <trkpt lat="48.1024" lon="-4.19134">
        <ele>135.68310546875</ele>
        <time>2015-10-01T15:07:13Z</time>
      </trkpt>
      <trkpt lat="48.10237" lon="-4.19142">
        <ele>136.64465332031</ele>
        <time>2015-10-01T15:07:19Z</time>
      </trkpt>
      <trkpt lat="48.10235" lon="-4.1915">
        <ele>137.12524414062</ele>
        <time>2015-10-01T15:07:24Z</time>
      </trkpt>
      <trkpt lat="48.10231" lon="-4.19156">
        <ele>139.0478515625</ele>
        <time>2015-10-01T15:07:30Z</time>
      </trkpt>
      <trkpt lat="48.1023" lon="-4.19159">
        <ele>139.0478515625</ele>
        <time>2015-10-01T15:07:32Z</time>
      </trkpt>
      <trkpt lat="48.10224" lon="-4.1917">
        <ele>136.64465332031</ele>
        <time>2015-10-01T15:07:40Z</time>
      </trkpt>
      <trkpt lat="48.1022" lon="-4.1918">
        <ele>136.16394042969</ele>
        <time>2015-10-01T15:07:47Z</time>
      </trkpt>
      <trkpt lat="48.10217" lon="-4.19189">
        <ele>135.20251464844</ele>
        <time>2015-10-01T15:07:54Z</time>
      </trkpt>
      <trkpt lat="48.10215" lon="-4.19195">
        <ele>134.72192382812</ele>
        <time>2015-10-01T15:07:58Z</time>
      </trkpt>
      <trkpt lat="48.10211" lon="-4.19204">
        <ele>134.2412109375</ele>
        <time>2015-10-01T15:08:03Z</time>
      </trkpt>
      <trkpt lat="48.10211" lon="-4.19211">
        <ele>135.20251464844</ele>
        <time>2015-10-01T15:08:07Z</time>
      </trkpt>
      <trkpt lat="48.10212" lon="-4.19213">
        <ele>135.20251464844</ele>
        <time>2015-10-01T15:08:08Z</time>
      </trkpt>
      <trkpt lat="48.10213" lon="-4.19222">
        <ele>135.68310546875</ele>
        <time>2015-10-01T15:08:13Z</time>
      </trkpt>
      <trkpt lat="48.10216" lon="-4.19233">
        <ele>134.72192382812</ele>
        <time>2015-10-01T15:08:19Z</time>
      </trkpt>
      <trkpt lat="48.10222" lon="-4.19241">
        <ele>132.79931640625</ele>
        <time>2015-10-01T15:08:27Z</time>
      </trkpt>
      <trkpt lat="48.10225" lon="-4.19245">
        <ele>132.79931640625</ele>
        <time>2015-10-01T15:08:30Z</time>
      </trkpt>
      <trkpt lat="48.10233" lon="-4.19256">
        <ele>130.87670898438</ele>
        <time>2015-10-01T15:08:40Z</time>
      </trkpt>
      <trkpt lat="48.10239" lon="-4.19266">
        <ele>129.91528320312</ele>
        <time>2015-10-01T15:08:48Z</time>
      </trkpt>
      <trkpt lat="48.10247" lon="-4.19277">
        <ele>128.47338867188</ele>
        <time>2015-10-01T15:08:57Z</time>
      </trkpt>
      <trkpt lat="48.10255" lon="-4.1929">
        <ele>127.03137207031</ele>
        <time>2015-10-01T15:09:07Z</time>
      </trkpt>
      <trkpt lat="48.10262" lon="-4.193">
        <ele>126.55065917969</ele>
        <time>2015-10-01T15:09:15Z</time>
      </trkpt>
      <trkpt lat="48.1027" lon="-4.1931">
        <ele>125.58935546875</ele>
        <time>2015-10-01T15:09:23Z</time>
      </trkpt>
      <trkpt lat="48.10277" lon="-4.19321">
        <ele>126.06994628906</ele>
        <time>2015-10-01T15:09:31Z</time>
      </trkpt>
      <trkpt lat="48.10283" lon="-4.19329">
        <ele>126.06994628906</ele>
        <time>2015-10-01T15:09:38Z</time>
      </trkpt>
      <trkpt lat="48.10285" lon="-4.19337">
        <ele>127.03137207031</ele>
        <time>2015-10-01T15:09:45Z</time>
      </trkpt>
      <trkpt lat="48.10282" lon="-4.19344">
        <ele>127.51196289062</ele>
        <time>2015-10-01T15:09:50Z</time>
      </trkpt>
      <trkpt lat="48.1028" lon="-4.19349">
        <ele>126.06994628906</ele>
        <time>2015-10-01T15:09:56Z</time>
      </trkpt>
      <trkpt lat="48.10278" lon="-4.19354">
        <ele>126.06994628906</ele>
        <time>2015-10-01T15:10:01Z</time>
      </trkpt>
      <trkpt lat="48.10275" lon="-4.19359">
        <ele>126.06994628906</ele>
        <time>2015-10-01T15:10:04Z</time>
      </trkpt>
      <trkpt lat="48.10271" lon="-4.19372">
        <ele>126.06994628906</ele>
        <time>2015-10-01T15:10:12Z</time>
      </trkpt>
      <trkpt lat="48.10268" lon="-4.19379">
        <ele>126.55065917969</ele>
        <time>2015-10-01T15:10:17Z</time>
      </trkpt>
      <trkpt lat="48.10267" lon="-4.19383">
        <ele>126.55065917969</ele>
        <time>2015-10-01T15:10:21Z</time>
      </trkpt>
      <trkpt lat="48.10263" lon="-4.19391">
        <ele>125.58935546875</ele>
        <time>2015-10-01T15:10:29Z</time>
      </trkpt>
      <trkpt lat="48.10257" lon="-4.19402">
        <ele>127.51196289062</ele>
        <time>2015-10-01T15:10:36Z</time>
      </trkpt>
      <trkpt lat="48.10256" lon="-4.19403">
        <ele>127.99255371094</ele>
        <time>2015-10-01T15:10:37Z</time>
      </trkpt>
      <trkpt lat="48.10255" lon="-4.19409">
        <ele>127.99255371094</ele>
        <time>2015-10-01T15:10:41Z</time>
      </trkpt>
      <trkpt lat="48.10251" lon="-4.19418">
        <ele>127.99255371094</ele>
        <time>2015-10-01T15:10:48Z</time>
      </trkpt>
      <trkpt lat="48.10249" lon="-4.19423">
        <ele>128.9541015625</ele>
        <time>2015-10-01T15:10:51Z</time>
      </trkpt>
      <trkpt lat="48.10247" lon="-4.19429">
        <ele>128.9541015625</ele>
        <time>2015-10-01T15:10:56Z</time>
      </trkpt>
      <trkpt lat="48.10243" lon="-4.19437">
        <ele>128.9541015625</ele>
        <time>2015-10-01T15:11:02Z</time>
      </trkpt>
      <trkpt lat="48.10239" lon="-4.19447">
        <ele>126.55065917969</ele>
        <time>2015-10-01T15:11:08Z</time>
      </trkpt>
      <trkpt lat="48.10238" lon="-4.1945">
        <ele>124.62805175781</ele>
        <time>2015-10-01T15:11:12Z</time>
      </trkpt>
      <trkpt lat="48.10235" lon="-4.19464">
        <ele>127.51196289062</ele>
        <time>2015-10-01T15:11:18Z</time>
      </trkpt>
      <trkpt lat="48.10236" lon="-4.19468">
        <ele>127.99255371094</ele>
        <time>2015-10-01T15:11:20Z</time>
      </trkpt>
      <trkpt lat="48.10235" lon="-4.19472">
        <ele>129.43469238281</ele>
        <time>2015-10-01T15:11:23Z</time>
      </trkpt>
      <trkpt lat="48.10234" lon="-4.19482">
        <ele>130.87670898438</ele>
        <time>2015-10-01T15:11:29Z</time>
      </trkpt>
      <trkpt lat="48.10235" lon="-4.19484">
        <ele>131.35729980469</ele>
        <time>2015-10-01T15:11:30Z</time>
      </trkpt>
      <trkpt lat="48.10236" lon="-4.19499">
        <ele>130.87670898438</ele>
        <time>2015-10-01T15:11:39Z</time>
      </trkpt>
      <trkpt lat="48.10235" lon="-4.1951">
        <ele>132.79931640625</ele>
        <time>2015-10-01T15:11:46Z</time>
      </trkpt>
      <trkpt lat="48.10234" lon="-4.19522">
        <ele>133.27990722656</ele>
        <time>2015-10-01T15:11:52Z</time>
      </trkpt>
      <trkpt lat="48.10234" lon="-4.19535">
        <ele>131.35729980469</ele>
        <time>2015-10-01T15:11:59Z</time>
      </trkpt>
      <trkpt lat="48.10232" lon="-4.19545">
        <ele>131.35729980469</ele>
        <time>2015-10-01T15:12:05Z</time>
      </trkpt>
      <trkpt lat="48.10231" lon="-4.19549">
        <ele>131.837890625</ele>
        <time>2015-10-01T15:12:07Z</time>
      </trkpt>
      <trkpt lat="48.10233" lon="-4.19555">
        <ele>132.79931640625</ele>
        <time>2015-10-01T15:12:11Z</time>
      </trkpt>
      <trkpt lat="48.10233" lon="-4.19562">
        <ele>130.87670898438</ele>
        <time>2015-10-01T15:12:15Z</time>
      </trkpt>
      <trkpt lat="48.1023" lon="-4.19573">
        <ele>129.43469238281</ele>
        <time>2015-10-01T15:12:21Z</time>
      </trkpt>
      <trkpt lat="48.10231" lon="-4.19575">
        <ele>129.43469238281</ele>
        <time>2015-10-01T15:12:22Z</time>
      </trkpt>
      <trkpt lat="48.1023" lon="-4.19581">
        <ele>129.43469238281</ele>
        <time>2015-10-01T15:12:26Z</time>
      </trkpt>
      <trkpt lat="48.10228" lon="-4.19593">
        <ele>128.9541015625</ele>
        <time>2015-10-01T15:12:33Z</time>
      </trkpt>
      <trkpt lat="48.10228" lon="-4.19597">
        <ele>129.91528320312</ele>
        <time>2015-10-01T15:12:36Z</time>
      </trkpt>
      <trkpt lat="48.10226" lon="-4.19605">
        <ele>127.99255371094</ele>
        <time>2015-10-01T15:12:42Z</time>
      </trkpt>
      <trkpt lat="48.10225" lon="-4.19612">
        <ele>126.55065917969</ele>
        <time>2015-10-01T15:12:47Z</time>
      </trkpt>
      <trkpt lat="48.10223" lon="-4.19614">
        <ele>129.91528320312</ele>
        <time>2015-10-01T15:12:53Z</time>
      </trkpt>
      <trkpt lat="48.10221" lon="-4.19621">
        <ele>130.39599609375</ele>
        <time>2015-10-01T15:12:58Z</time>
      </trkpt>
      <trkpt lat="48.1022" lon="-4.19625">
        <ele>131.35729980469</ele>
        <time>2015-10-01T15:13:01Z</time>
      </trkpt>
      <trkpt lat="48.10217" lon="-4.19631">
        <ele>130.39599609375</ele>
        <time>2015-10-01T15:13:04Z</time>
      </trkpt>
      <trkpt lat="48.10214" lon="-4.19639">
        <ele>131.35729980469</ele>
        <time>2015-10-01T15:13:08Z</time>
      </trkpt>
      <trkpt lat="48.10209" lon="-4.19648">
        <ele>133.27990722656</ele>
        <time>2015-10-01T15:13:15Z</time>
      </trkpt>
      <trkpt lat="48.10206" lon="-4.1966">
        <ele>131.837890625</ele>
        <time>2015-10-01T15:13:23Z</time>
      </trkpt>
      <trkpt lat="48.10206" lon="-4.19661">
        <ele>131.837890625</ele>
        <time>2015-10-01T15:13:24Z</time>
      </trkpt>
      <trkpt lat="48.10205" lon="-4.19665">
        <ele>131.837890625</ele>
        <time>2015-10-01T15:13:26Z</time>
      </trkpt>
      <trkpt lat="48.10202" lon="-4.19674">
        <ele>131.35729980469</ele>
        <time>2015-10-01T15:13:31Z</time>
      </trkpt>
      <trkpt lat="48.10199" lon="-4.19683">
        <ele>131.837890625</ele>
        <time>2015-10-01T15:13:36Z</time>
      </trkpt>
      <trkpt lat="48.10195" lon="-4.19694">
        <ele>130.87670898438</ele>
        <time>2015-10-01T15:13:42Z</time>
      </trkpt>
      <trkpt lat="48.10191" lon="-4.19703">
        <ele>128.9541015625</ele>
        <time>2015-10-01T15:13:49Z</time>
      </trkpt>
      <trkpt lat="48.1019" lon="-4.19704">
        <ele>127.99255371094</ele>
        <time>2015-10-01T15:13:51Z</time>
      </trkpt>
      <trkpt lat="48.10185" lon="-4.19713">
        <ele>127.99255371094</ele>
        <time>2015-10-01T15:13:57Z</time>
      </trkpt>
      <trkpt lat="48.10181" lon="-4.1972">
        <ele>128.9541015625</ele>
        <time>2015-10-01T15:14:04Z</time>
      </trkpt>
      <trkpt lat="48.1018" lon="-4.19721">
        <ele>128.47338867188</ele>
        <time>2015-10-01T15:14:05Z</time>
      </trkpt>
      <trkpt lat="48.10172" lon="-4.1973">
        <ele>129.91528320312</ele>
        <time>2015-10-01T15:14:12Z</time>
      </trkpt>
      <trkpt lat="48.10167" lon="-4.19737">
        <ele>130.87670898438</ele>
        <time>2015-10-01T15:14:19Z</time>
      </trkpt>
      <trkpt lat="48.10163" lon="-4.19742">
        <ele>131.35729980469</ele>
        <time>2015-10-01T15:14:24Z</time>
      </trkpt>
      <trkpt lat="48.10159" lon="-4.19749">
        <ele>130.87670898438</ele>
        <time>2015-10-01T15:14:30Z</time>
      </trkpt>
      <trkpt lat="48.10157" lon="-4.19753">
        <ele>132.79931640625</ele>
        <time>2015-10-01T15:14:34Z</time>
      </trkpt>
      <trkpt lat="48.10154" lon="-4.19757">
        <ele>130.87670898438</ele>
        <time>2015-10-01T15:14:37Z</time>
      </trkpt>
      <trkpt lat="48.10152" lon="-4.19759">
        <ele>130.39599609375</ele>
        <time>2015-10-01T15:14:39Z</time>
      </trkpt>
      <trkpt lat="48.10149" lon="-4.19765">
        <ele>129.43469238281</ele>
        <time>2015-10-01T15:14:43Z</time>
      </trkpt>
      <trkpt lat="48.10144" lon="-4.19772">
        <ele>127.03137207031</ele>
        <time>2015-10-01T15:14:49Z</time>
      </trkpt>
      <trkpt lat="48.10144" lon="-4.19773">
        <ele>127.03137207031</ele>
        <time>2015-10-01T15:14:50Z</time>
      </trkpt>
      <trkpt lat="48.10139" lon="-4.19787">
        <ele>128.9541015625</ele>
        <time>2015-10-01T15:14:57Z</time>
      </trkpt>
      <trkpt lat="48.10135" lon="-4.19793">
        <ele>129.91528320312</ele>
        <time>2015-10-01T15:15:01Z</time>
      </trkpt>
      <trkpt lat="48.10134" lon="-4.19797">
        <ele>129.91528320312</ele>
        <time>2015-10-01T15:15:03Z</time>
      </trkpt>
      <trkpt lat="48.10133" lon="-4.198">
        <ele>128.9541015625</ele>
        <time>2015-10-01T15:15:07Z</time>
      </trkpt>
      <trkpt lat="48.1013" lon="-4.19812">
        <ele>129.43469238281</ele>
        <time>2015-10-01T15:15:14Z</time>
      </trkpt>
      <trkpt lat="48.10127" lon="-4.1982">
        <ele>129.91528320312</ele>
        <time>2015-10-01T15:15:18Z</time>
      </trkpt>
      <trkpt lat="48.10124" lon="-4.19824">
        <ele>130.39599609375</ele>
        <time>2015-10-01T15:15:22Z</time>
      </trkpt>
      <trkpt lat="48.10123" lon="-4.19826">
        <ele>130.87670898438</ele>
        <time>2015-10-01T15:15:24Z</time>
      </trkpt>
      <trkpt lat="48.10121" lon="-4.19829">
        <ele>130.39599609375</ele>
        <time>2015-10-01T15:15:27Z</time>
      </trkpt>
      <trkpt lat="48.10117" lon="-4.19836">
        <ele>129.43469238281</ele>
        <time>2015-10-01T15:15:32Z</time>
      </trkpt>
      <trkpt lat="48.10112" lon="-4.19845">
        <ele>131.837890625</ele>
        <time>2015-10-01T15:15:39Z</time>
      </trkpt>
      <trkpt lat="48.10107" lon="-4.19855">
        <ele>132.31860351562</ele>
        <time>2015-10-01T15:15:46Z</time>
      </trkpt>
      <trkpt lat="48.10106" lon="-4.19859">
        <ele>132.31860351562</ele>
        <time>2015-10-01T15:15:48Z</time>
      </trkpt>
      <trkpt lat="48.10104" lon="-4.19865">
        <ele>128.9541015625</ele>
        <time>2015-10-01T15:15:54Z</time>
      </trkpt>
      <trkpt lat="48.10102" lon="-4.1987">
        <ele>127.51196289062</ele>
        <time>2015-10-01T15:15:57Z</time>
      </trkpt>
      <trkpt lat="48.10101" lon="-4.19873">
        <ele>126.06994628906</ele>
        <time>2015-10-01T15:15:59Z</time>
      </trkpt>
      <trkpt lat="48.10099" lon="-4.19883">
        <ele>122.70544433594</ele>
        <time>2015-10-01T15:16:05Z</time>
      </trkpt>
      <trkpt lat="48.10097" lon="-4.19888">
        <ele>120.30212402344</ele>
        <time>2015-10-01T15:16:09Z</time>
      </trkpt>
      <trkpt lat="48.10096" lon="-4.1989">
        <ele>120.30212402344</ele>
        <time>2015-10-01T15:16:11Z</time>
      </trkpt>
      <trkpt lat="48.10094" lon="-4.199">
        <ele>116.9375</ele>
        <time>2015-10-01T15:16:17Z</time>
      </trkpt>
      <trkpt lat="48.10094" lon="-4.19912">
        <ele>114.05358886719</ele>
        <time>2015-10-01T15:16:24Z</time>
      </trkpt>
      <trkpt lat="48.10094" lon="-4.19918">
        <ele>114.05358886719</ele>
        <time>2015-10-01T15:16:27Z</time>
      </trkpt>
      <trkpt lat="48.10094" lon="-4.19933">
        <ele>118.37939453125</ele>
        <time>2015-10-01T15:16:33Z</time>
      </trkpt>
      <trkpt lat="48.10095" lon="-4.19944">
        <ele>119.3408203125</ele>
        <time>2015-10-01T15:16:39Z</time>
      </trkpt>
      <trkpt lat="48.10096" lon="-4.1995">
        <ele>119.82141113281</ele>
        <time>2015-10-01T15:16:43Z</time>
      </trkpt>
      <trkpt lat="48.10096" lon="-4.19959">
        <ele>121.26354980469</ele>
        <time>2015-10-01T15:16:49Z</time>
      </trkpt>
      <trkpt lat="48.10096" lon="-4.19963">
        <ele>122.22473144531</ele>
        <time>2015-10-01T15:16:51Z</time>
      </trkpt>
      <trkpt lat="48.10096" lon="-4.19967">
        <ele>122.70544433594</ele>
        <time>2015-10-01T15:16:53Z</time>
      </trkpt>
      <trkpt lat="48.10094" lon="-4.19977">
        <ele>122.22473144531</ele>
        <time>2015-10-01T15:16:59Z</time>
      </trkpt>
      <trkpt lat="48.10094" lon="-4.19981">
        <ele>122.70544433594</ele>
        <time>2015-10-01T15:17:01Z</time>
      </trkpt>
      <trkpt lat="48.10094" lon="-4.19989">
        <ele>122.70544433594</ele>
        <time>2015-10-01T15:17:06Z</time>
      </trkpt>
      <trkpt lat="48.10092" lon="-4.19999">
        <ele>123.66674804688</ele>
        <time>2015-10-01T15:17:12Z</time>
      </trkpt>
      <trkpt lat="48.10088" lon="-4.2001">
        <ele>124.14733886719</ele>
        <time>2015-10-01T15:17:19Z</time>
      </trkpt>
      <trkpt lat="48.10084" lon="-4.2002">
        <ele>125.10876464844</ele>
        <time>2015-10-01T15:17:25Z</time>
      </trkpt>
      <trkpt lat="48.10084" lon="-4.20023">
        <ele>125.58935546875</ele>
        <time>2015-10-01T15:17:27Z</time>
      </trkpt>
      <trkpt lat="48.10082" lon="-4.20033">
        <ele>126.06994628906</ele>
        <time>2015-10-01T15:17:33Z</time>
      </trkpt>
      <trkpt lat="48.10082" lon="-4.20038">
        <ele>126.06994628906</ele>
        <time>2015-10-01T15:17:36Z</time>
      </trkpt>
      <trkpt lat="48.10082" lon="-4.20042">
        <ele>125.58935546875</ele>
        <time>2015-10-01T15:17:39Z</time>
      </trkpt>
      <trkpt lat="48.10082" lon="-4.20052">
        <ele>125.10876464844</ele>
        <time>2015-10-01T15:17:45Z</time>
      </trkpt>
      <trkpt lat="48.10081" lon="-4.20057">
        <ele>124.14733886719</ele>
        <time>2015-10-01T15:17:51Z</time>
      </trkpt>
      <trkpt lat="48.10082" lon="-4.20065">
        <ele>123.66674804688</ele>
        <time>2015-10-01T15:17:57Z</time>
      </trkpt>
      <trkpt lat="48.10082" lon="-4.2007">
        <ele>124.14733886719</ele>
        <time>2015-10-01T15:18:03Z</time>
      </trkpt>
      <trkpt lat="48.1008" lon="-4.20069">
        <ele>126.55065917969</ele>
        <time>2015-10-01T15:18:21Z</time>
      </trkpt>
      <trkpt lat="48.1008" lon="-4.20069">
        <ele>127.51196289062</ele>
        <time>2015-10-01T15:18:27Z</time>
      </trkpt>
      <trkpt lat="48.10079" lon="-4.20069">
        <ele>125.58935546875</ele>
        <time>2015-10-01T15:18:43Z</time>
      </trkpt>
      <trkpt lat="48.10078" lon="-4.20071">
        <ele>125.58935546875</ele>
        <time>2015-10-01T15:18:48Z</time>
      </trkpt>
      <trkpt lat="48.10077" lon="-4.2007">
        <ele>124.62805175781</ele>
        <time>2015-10-01T15:18:57Z</time>
      </trkpt>
      <trkpt lat="48.10077" lon="-4.2007">
        <ele>122.70544433594</ele>
        <time>2015-10-01T15:19:17Z</time>
      </trkpt>
      <trkpt lat="48.10075" lon="-4.20072">
        <ele>122.70544433594</ele>
        <time>2015-10-01T15:19:44Z</time>
      </trkpt>
      <trkpt lat="48.10069" lon="-4.20075">
        <ele>121.26354980469</ele>
        <time>2015-10-01T15:19:50Z</time>
      </trkpt>
      <trkpt lat="48.10068" lon="-4.20075">
        <ele>121.26354980469</ele>
        <time>2015-10-01T15:19:52Z</time>
      </trkpt>
      <trkpt lat="48.10063" lon="-4.20074">
        <ele>120.78283691406</ele>
        <time>2015-10-01T15:19:57Z</time>
      </trkpt>
      <trkpt lat="48.10059" lon="-4.20076">
        <ele>121.26354980469</ele>
        <time>2015-10-01T15:20:00Z</time>
      </trkpt>
      <trkpt lat="48.10051" lon="-4.20077">
        <ele>121.26354980469</ele>
        <time>2015-10-01T15:20:07Z</time>
      </trkpt>
      <trkpt lat="48.10045" lon="-4.20079">
        <ele>121.26354980469</ele>
        <time>2015-10-01T15:20:13Z</time>
      </trkpt>
      <trkpt lat="48.1004" lon="-4.2008">
        <ele>120.30212402344</ele>
        <time>2015-10-01T15:20:19Z</time>
      </trkpt>
      <trkpt lat="48.10032" lon="-4.2008">
        <ele>120.78283691406</ele>
        <time>2015-10-01T15:20:26Z</time>
      </trkpt>
      <trkpt lat="48.10025" lon="-4.20083">
        <ele>120.30212402344</ele>
        <time>2015-10-01T15:20:31Z</time>
      </trkpt>
      <trkpt lat="48.10024" lon="-4.20083">
        <ele>120.30212402344</ele>
        <time>2015-10-01T15:20:32Z</time>
      </trkpt>
      <trkpt lat="48.1002" lon="-4.20092">
        <ele>120.78283691406</ele>
        <time>2015-10-01T15:20:39Z</time>
      </trkpt>
      <trkpt lat="48.10021" lon="-4.20098">
        <ele>120.30212402344</ele>
        <time>2015-10-01T15:20:46Z</time>
      </trkpt>
      <trkpt lat="48.10021" lon="-4.20099">
        <ele>120.30212402344</ele>
        <time>2015-10-01T15:20:47Z</time>
      </trkpt>
      <trkpt lat="48.10015" lon="-4.20102">
        <ele>120.30212402344</ele>
        <time>2015-10-01T15:20:51Z</time>
      </trkpt>
      <trkpt lat="48.10011" lon="-4.20105">
        <ele>121.26354980469</ele>
        <time>2015-10-01T15:20:55Z</time>
      </trkpt>
      <trkpt lat="48.10002" lon="-4.20113">
        <ele>123.18615722656</ele>
        <time>2015-10-01T15:21:03Z</time>
      </trkpt>
      <trkpt lat="48.1" lon="-4.20114">
        <ele>123.18615722656</ele>
        <time>2015-10-01T15:21:05Z</time>
      </trkpt>
      <trkpt lat="48.09997" lon="-4.20117">
        <ele>123.18615722656</ele>
        <time>2015-10-01T15:21:11Z</time>
      </trkpt>
      <trkpt lat="48.09996" lon="-4.20118">
        <ele>123.18615722656</ele>
        <time>2015-10-01T15:21:12Z</time>
      </trkpt>
      <trkpt lat="48.09994" lon="-4.20119">
        <ele>122.70544433594</ele>
        <time>2015-10-01T15:21:14Z</time>
      </trkpt>
      <trkpt lat="48.09988" lon="-4.20123">
        <ele>123.18615722656</ele>
        <time>2015-10-01T15:21:20Z</time>
      </trkpt>
      <trkpt lat="48.09986" lon="-4.20126">
        <ele>123.66674804688</ele>
        <time>2015-10-01T15:21:23Z</time>
      </trkpt>
      <trkpt lat="48.0998" lon="-4.20133">
        <ele>124.14733886719</ele>
        <time>2015-10-01T15:21:30Z</time>
      </trkpt>
      <trkpt lat="48.09974" lon="-4.20139">
        <ele>125.10876464844</ele>
        <time>2015-10-01T15:21:38Z</time>
      </trkpt>
      <trkpt lat="48.09967" lon="-4.20142">
        <ele>126.55065917969</ele>
        <time>2015-10-01T15:21:45Z</time>
      </trkpt>
      <trkpt lat="48.09966" lon="-4.20142">
        <ele>127.51196289062</ele>
        <time>2015-10-01T15:21:51Z</time>
      </trkpt>
      <trkpt lat="48.0996" lon="-4.20141">
        <ele>130.87670898438</ele>
        <time>2015-10-01T15:21:57Z</time>
      </trkpt>
      <trkpt lat="48.09955" lon="-4.20137">
        <ele>132.79931640625</ele>
        <time>2015-10-01T15:22:04Z</time>
      </trkpt>
      <trkpt lat="48.09951" lon="-4.20135">
        <ele>132.31860351562</ele>
        <time>2015-10-01T15:22:09Z</time>
      </trkpt>
      <trkpt lat="48.09943" lon="-4.2013">
        <ele>131.35729980469</ele>
        <time>2015-10-01T15:22:17Z</time>
      </trkpt>
      <trkpt lat="48.0994" lon="-4.20128">
        <ele>129.91528320312</ele>
        <time>2015-10-01T15:22:22Z</time>
      </trkpt>
      <trkpt lat="48.09934" lon="-4.20128">
        <ele>128.9541015625</ele>
        <time>2015-10-01T15:22:28Z</time>
      </trkpt>
      <trkpt lat="48.0993" lon="-4.20133">
        <ele>129.43469238281</ele>
        <time>2015-10-01T15:22:34Z</time>
      </trkpt>
      <trkpt lat="48.09927" lon="-4.20139">
        <ele>132.79931640625</ele>
        <time>2015-10-01T15:22:40Z</time>
      </trkpt>
      <trkpt lat="48.09923" lon="-4.20149">
        <ele>133.76049804688</ele>
        <time>2015-10-01T15:22:48Z</time>
      </trkpt>
      <trkpt lat="48.09923" lon="-4.20151">
        <ele>133.76049804688</ele>
        <time>2015-10-01T15:22:49Z</time>
      </trkpt>
      <trkpt lat="48.09918" lon="-4.20166">
        <ele>134.72192382812</ele>
        <time>2015-10-01T15:23:00Z</time>
      </trkpt>
      <trkpt lat="48.09913" lon="-4.2018">
        <ele>135.68310546875</ele>
        <time>2015-10-01T15:23:10Z</time>
      </trkpt>
      <trkpt lat="48.09908" lon="-4.20192">
        <ele>136.16394042969</ele>
        <time>2015-10-01T15:23:19Z</time>
      </trkpt>
      <trkpt lat="48.09906" lon="-4.20204">
        <ele>136.64465332031</ele>
        <time>2015-10-01T15:23:27Z</time>
      </trkpt>
      <trkpt lat="48.09904" lon="-4.20218">
        <ele>137.12524414062</ele>
        <time>2015-10-01T15:23:36Z</time>
      </trkpt>
      <trkpt lat="48.09903" lon="-4.20229">
        <ele>138.08654785156</ele>
        <time>2015-10-01T15:23:43Z</time>
      </trkpt>
      <trkpt lat="48.09902" lon="-4.20245">
        <ele>138.56726074219</ele>
        <time>2015-10-01T15:23:53Z</time>
      </trkpt>
      <trkpt lat="48.09902" lon="-4.20258">
        <ele>139.52844238281</ele>
        <time>2015-10-01T15:24:01Z</time>
      </trkpt>
      <trkpt lat="48.09904" lon="-4.20272">
        <ele>140.48986816406</ele>
        <time>2015-10-01T15:24:10Z</time>
      </trkpt>
      <trkpt lat="48.09904" lon="-4.20286">
        <ele>140.48986816406</ele>
        <time>2015-10-01T15:24:19Z</time>
      </trkpt>
      <trkpt lat="48.09904" lon="-4.20302">
        <ele>140.97045898438</ele>
        <time>2015-10-01T15:24:29Z</time>
      </trkpt>
      <trkpt lat="48.09905" lon="-4.20315">
        <ele>140.97045898438</ele>
        <time>2015-10-01T15:24:37Z</time>
      </trkpt>
      <trkpt lat="48.09906" lon="-4.20323">
        <ele>140.97045898438</ele>
        <time>2015-10-01T15:24:42Z</time>
      </trkpt>
      <trkpt lat="48.09906" lon="-4.20329">
        <ele>141.93176269531</ele>
        <time>2015-10-01T15:24:51Z</time>
      </trkpt>
      <trkpt lat="48.09906" lon="-4.20337">
        <ele>142.41247558594</ele>
        <time>2015-10-01T15:24:56Z</time>
      </trkpt>
      <trkpt lat="48.09907" lon="-4.20355">
        <ele>142.41247558594</ele>
        <time>2015-10-01T15:25:07Z</time>
      </trkpt>
      <trkpt lat="48.09906" lon="-4.20368">
        <ele>143.37365722656</ele>
        <time>2015-10-01T15:25:15Z</time>
      </trkpt>
      <trkpt lat="48.09907" lon="-4.20384">
        <ele>144.81579589844</ele>
        <time>2015-10-01T15:25:25Z</time>
      </trkpt>
      <trkpt lat="48.09908" lon="-4.20401">
        <ele>145.77709960938</ele>
        <time>2015-10-01T15:25:35Z</time>
      </trkpt>
      <trkpt lat="48.09908" lon="-4.20414">
        <ele>145.77709960938</ele>
        <time>2015-10-01T15:25:43Z</time>
      </trkpt>
      <trkpt lat="48.09908" lon="-4.2043">
        <ele>145.77709960938</ele>
        <time>2015-10-01T15:25:53Z</time>
      </trkpt>
      <trkpt lat="48.09906" lon="-4.20443">
        <ele>146.73840332031</ele>
        <time>2015-10-01T15:26:01Z</time>
      </trkpt>
      <trkpt lat="48.09905" lon="-4.20458">
        <ele>147.69970703125</ele>
        <time>2015-10-01T15:26:10Z</time>
      </trkpt>
      <trkpt lat="48.09904" lon="-4.20462">
        <ele>148.18041992188</ele>
        <time>2015-10-01T15:26:13Z</time>
      </trkpt>
      <trkpt lat="48.09901" lon="-4.20474">
        <ele>149.1416015625</ele>
        <time>2015-10-01T15:26:20Z</time>
      </trkpt>
      <trkpt lat="48.09899" lon="-4.20483">
        <ele>150.58361816406</ele>
        <time>2015-10-01T15:26:26Z</time>
      </trkpt>
      <trkpt lat="48.09897" lon="-4.2049">
        <ele>151.06420898438</ele>
        <time>2015-10-01T15:26:30Z</time>
      </trkpt>
      <trkpt lat="48.09893" lon="-4.205">
        <ele>152.02575683594</ele>
        <time>2015-10-01T15:26:37Z</time>
      </trkpt>
      <trkpt lat="48.09891" lon="-4.20508">
        <ele>152.50634765625</ele>
        <time>2015-10-01T15:26:44Z</time>
      </trkpt>
      <trkpt lat="48.09887" lon="-4.20513">
        <ele>153.46765136719</ele>
        <time>2015-10-01T15:26:49Z</time>
      </trkpt>
      <trkpt lat="48.09887" lon="-4.20524">
        <ele>153.94836425781</ele>
        <time>2015-10-01T15:26:56Z</time>
      </trkpt>
      <trkpt lat="48.09885" lon="-4.20532">
        <ele>155.39025878906</ele>
        <time>2015-10-01T15:27:01Z</time>
      </trkpt>
      <trkpt lat="48.09885" lon="-4.20534">
        <ele>155.39025878906</ele>
        <time>2015-10-01T15:27:02Z</time>
      </trkpt>
      <trkpt lat="48.09883" lon="-4.20547">
        <ele>155.39025878906</ele>
        <time>2015-10-01T15:27:10Z</time>
      </trkpt>
      <trkpt lat="48.09882" lon="-4.20556">
        <ele>155.87097167969</ele>
        <time>2015-10-01T15:27:15Z</time>
      </trkpt>
      <trkpt lat="48.09883" lon="-4.20557">
        <ele>156.3515625</ele>
        <time>2015-10-01T15:27:19Z</time>
      </trkpt>
      <trkpt lat="48.09885" lon="-4.20556">
        <ele>154.90954589844</ele>
        <time>2015-10-01T15:27:24Z</time>
      </trkpt>
      <trkpt lat="48.09887" lon="-4.20557">
        <ele>153.46765136719</ele>
        <time>2015-10-01T15:27:35Z</time>
      </trkpt>
      <trkpt lat="48.09884" lon="-4.20567">
        <ele>154.90954589844</ele>
        <time>2015-10-01T15:27:40Z</time>
      </trkpt>
      <trkpt lat="48.09884" lon="-4.20569">
        <ele>154.90954589844</ele>
        <time>2015-10-01T15:27:41Z</time>
      </trkpt>
      <trkpt lat="48.09881" lon="-4.20577">
        <ele>156.3515625</ele>
        <time>2015-10-01T15:27:48Z</time>
      </trkpt>
      <trkpt lat="48.09882" lon="-4.2058">
        <ele>158.75476074219</ele>
        <time>2015-10-01T15:27:59Z</time>
      </trkpt>
      <trkpt lat="48.09879" lon="-4.20597">
        <ele>159.23547363281</ele>
        <time>2015-10-01T15:28:09Z</time>
      </trkpt>
      <trkpt lat="48.09877" lon="-4.20607">
        <ele>158.27416992188</ele>
        <time>2015-10-01T15:28:15Z</time>
      </trkpt>
      <trkpt lat="48.09877" lon="-4.20609">
        <ele>158.27416992188</ele>
        <time>2015-10-01T15:28:16Z</time>
      </trkpt>
      <trkpt lat="48.09876" lon="-4.20615">
        <ele>158.27416992188</ele>
        <time>2015-10-01T15:28:22Z</time>
      </trkpt>
      <trkpt lat="48.09875" lon="-4.20619">
        <ele>157.79357910156</ele>
        <time>2015-10-01T15:28:27Z</time>
      </trkpt>
      <trkpt lat="48.09874" lon="-4.20627">
        <ele>157.31286621094</ele>
        <time>2015-10-01T15:28:34Z</time>
      </trkpt>
      <trkpt lat="48.09872" lon="-4.2064">
        <ele>157.31286621094</ele>
        <time>2015-10-01T15:28:42Z</time>
      </trkpt>
      <trkpt lat="48.09872" lon="-4.20641">
        <ele>157.31286621094</ele>
        <time>2015-10-01T15:28:43Z</time>
      </trkpt>
      <trkpt lat="48.0987" lon="-4.20652">
        <ele>157.79357910156</ele>
        <time>2015-10-01T15:28:50Z</time>
      </trkpt>
      <trkpt lat="48.09867" lon="-4.20666">
        <ele>157.79357910156</ele>
        <time>2015-10-01T15:28:58Z</time>
      </trkpt>
      <trkpt lat="48.09864" lon="-4.20675">
        <ele>157.31286621094</ele>
        <time>2015-10-01T15:29:03Z</time>
      </trkpt>
      <trkpt lat="48.09861" lon="-4.20686">
        <ele>158.27416992188</ele>
        <time>2015-10-01T15:29:10Z</time>
      </trkpt>
      <trkpt lat="48.0986" lon="-4.20691">
        <ele>157.31286621094</ele>
        <time>2015-10-01T15:29:14Z</time>
      </trkpt>
      <trkpt lat="48.09857" lon="-4.20705">
        <ele>155.39025878906</ele>
        <time>2015-10-01T15:29:22Z</time>
      </trkpt>
      <trkpt lat="48.09854" lon="-4.20716">
        <ele>155.87097167969</ele>
        <time>2015-10-01T15:29:29Z</time>
      </trkpt>
      <trkpt lat="48.09853" lon="-4.20719">
        <ele>156.3515625</ele>
        <time>2015-10-01T15:29:31Z</time>
      </trkpt>
      <trkpt lat="48.09851" lon="-4.2073">
        <ele>156.3515625</ele>
        <time>2015-10-01T15:29:37Z</time>
      </trkpt>
      <trkpt lat="48.09851" lon="-4.20731">
        <ele>156.3515625</ele>
        <time>2015-10-01T15:29:38Z</time>
      </trkpt>
      <trkpt lat="48.09851" lon="-4.20735">
        <ele>157.31286621094</ele>
        <time>2015-10-01T15:29:45Z</time>
      </trkpt>
      <trkpt lat="48.09851" lon="-4.20739">
        <ele>156.83215332031</ele>
        <time>2015-10-01T15:29:49Z</time>
      </trkpt>
      <trkpt lat="48.09851" lon="-4.2074">
        <ele>156.83215332031</ele>
        <time>2015-10-01T15:29:51Z</time>
      </trkpt>
      <trkpt lat="48.09849" lon="-4.20749">
        <ele>155.87097167969</ele>
        <time>2015-10-01T15:29:55Z</time>
      </trkpt>
      <trkpt lat="48.09848" lon="-4.20758">
        <ele>155.87097167969</ele>
        <time>2015-10-01T15:30:00Z</time>
      </trkpt>
      <trkpt lat="48.09846" lon="-4.20768">
        <ele>156.3515625</ele>
        <time>2015-10-01T15:30:05Z</time>
      </trkpt>
      <trkpt lat="48.09844" lon="-4.20776">
        <ele>156.3515625</ele>
        <time>2015-10-01T15:30:11Z</time>
      </trkpt>
      <trkpt lat="48.09841" lon="-4.20784">
        <ele>155.87097167969</ele>
        <time>2015-10-01T15:30:16Z</time>
      </trkpt>
      <trkpt lat="48.0984" lon="-4.20786">
        <ele>155.39025878906</ele>
        <time>2015-10-01T15:30:17Z</time>
      </trkpt>
      <trkpt lat="48.0984" lon="-4.20788">
        <ele>154.90954589844</ele>
        <time>2015-10-01T15:30:19Z</time>
      </trkpt>
      <trkpt lat="48.09837" lon="-4.20794">
        <ele>153.94836425781</ele>
        <time>2015-10-01T15:30:23Z</time>
      </trkpt>
      <trkpt lat="48.09835" lon="-4.20804">
        <ele>154.42895507812</ele>
        <time>2015-10-01T15:30:28Z</time>
      </trkpt>
      <trkpt lat="48.09834" lon="-4.2081">
        <ele>153.94836425781</ele>
        <time>2015-10-01T15:30:32Z</time>
      </trkpt>
      <trkpt lat="48.09834" lon="-4.20819">
        <ele>153.94836425781</ele>
        <time>2015-10-01T15:30:37Z</time>
      </trkpt>
      <trkpt lat="48.09835" lon="-4.20827">
        <ele>153.94836425781</ele>
        <time>2015-10-01T15:30:43Z</time>
      </trkpt>
      <trkpt lat="48.09829" lon="-4.20836">
        <ele>154.42895507812</ele>
        <time>2015-10-01T15:30:50Z</time>
      </trkpt>
      <trkpt lat="48.09826" lon="-4.20846">
        <ele>153.94836425781</ele>
        <time>2015-10-01T15:30:56Z</time>
      </trkpt>
      <trkpt lat="48.09822" lon="-4.20855">
        <ele>153.94836425781</ele>
        <time>2015-10-01T15:31:03Z</time>
      </trkpt>
      <trkpt lat="48.0982" lon="-4.20867">
        <ele>153.46765136719</ele>
        <time>2015-10-01T15:31:10Z</time>
      </trkpt>
      <trkpt lat="48.09818" lon="-4.20877">
        <ele>153.94836425781</ele>
        <time>2015-10-01T15:31:16Z</time>
      </trkpt>
      <trkpt lat="48.09815" lon="-4.20889">
        <ele>153.94836425781</ele>
        <time>2015-10-01T15:31:22Z</time>
      </trkpt>
      <trkpt lat="48.09814" lon="-4.209">
        <ele>154.42895507812</ele>
        <time>2015-10-01T15:31:28Z</time>
      </trkpt>
      <trkpt lat="48.09814" lon="-4.20901">
        <ele>154.90954589844</ele>
        <time>2015-10-01T15:31:29Z</time>
      </trkpt>
      <trkpt lat="48.09812" lon="-4.20913">
        <ele>156.83215332031</ele>
        <time>2015-10-01T15:31:36Z</time>
      </trkpt>
      <trkpt lat="48.09811" lon="-4.2093">
        <ele>155.87097167969</ele>
        <time>2015-10-01T15:31:45Z</time>
      </trkpt>
      <trkpt lat="48.09811" lon="-4.20932">
        <ele>155.87097167969</ele>
        <time>2015-10-01T15:31:46Z</time>
      </trkpt>
      <trkpt lat="48.09809" lon="-4.20945">
        <ele>154.90954589844</ele>
        <time>2015-10-01T15:31:54Z</time>
      </trkpt>
      <trkpt lat="48.09807" lon="-4.20954">
        <ele>155.39025878906</ele>
        <time>2015-10-01T15:31:59Z</time>
      </trkpt>
      <trkpt lat="48.09805" lon="-4.20968">
        <ele>155.39025878906</ele>
        <time>2015-10-01T15:32:07Z</time>
      </trkpt>
      <trkpt lat="48.09804" lon="-4.20983">
        <ele>154.42895507812</ele>
        <time>2015-10-01T15:32:15Z</time>
      </trkpt>
      <trkpt lat="48.09803" lon="-4.20987">
        <ele>154.42895507812</ele>
        <time>2015-10-01T15:32:17Z</time>
      </trkpt>
      <trkpt lat="48.09801" lon="-4.20999">
        <ele>155.87097167969</ele>
        <time>2015-10-01T15:32:24Z</time>
      </trkpt>
      <trkpt lat="48.098" lon="-4.21005">
        <ele>156.3515625</ele>
        <time>2015-10-01T15:32:27Z</time>
      </trkpt>
      <trkpt lat="48.098" lon="-4.21014">
        <ele>156.3515625</ele>
        <time>2015-10-01T15:32:32Z</time>
      </trkpt>
      <trkpt lat="48.09798" lon="-4.21027">
        <ele>157.31286621094</ele>
        <time>2015-10-01T15:32:39Z</time>
      </trkpt>
      <trkpt lat="48.09797" lon="-4.21031">
        <ele>157.31286621094</ele>
        <time>2015-10-01T15:32:41Z</time>
      </trkpt>
      <trkpt lat="48.09797" lon="-4.21037">
        <ele>157.31286621094</ele>
        <time>2015-10-01T15:32:44Z</time>
      </trkpt>
      <trkpt lat="48.09795" lon="-4.21052">
        <ele>157.79357910156</ele>
        <time>2015-10-01T15:32:52Z</time>
      </trkpt>
      <trkpt lat="48.09796" lon="-4.21065">
        <ele>157.79357910156</ele>
        <time>2015-10-01T15:32:59Z</time>
      </trkpt>
      <trkpt lat="48.09796" lon="-4.21066">
        <ele>157.31286621094</ele>
        <time>2015-10-01T15:33:00Z</time>
      </trkpt>
      <trkpt lat="48.09796" lon="-4.21077">
        <ele>157.31286621094</ele>
        <time>2015-10-01T15:33:06Z</time>
      </trkpt>
      <trkpt lat="48.09795" lon="-4.21081">
        <ele>156.3515625</ele>
        <time>2015-10-01T15:33:08Z</time>
      </trkpt>
      <trkpt lat="48.09795" lon="-4.21088">
        <ele>156.83215332031</ele>
        <time>2015-10-01T15:33:12Z</time>
      </trkpt>
      <trkpt lat="48.09796" lon="-4.21092">
        <ele>156.3515625</ele>
        <time>2015-10-01T15:33:15Z</time>
      </trkpt>
      <trkpt lat="48.09796" lon="-4.21108">
        <ele>155.87097167969</ele>
        <time>2015-10-01T15:33:24Z</time>
      </trkpt>
      <trkpt lat="48.09793" lon="-4.21126">
        <ele>157.31286621094</ele>
        <time>2015-10-01T15:33:33Z</time>
      </trkpt>
      <trkpt lat="48.09793" lon="-4.21128">
        <ele>157.31286621094</ele>
        <time>2015-10-01T15:33:34Z</time>
      </trkpt>
      <trkpt lat="48.09791" lon="-4.21143">
        <ele>157.31286621094</ele>
        <time>2015-10-01T15:33:43Z</time>
      </trkpt>
      <trkpt lat="48.09789" lon="-4.21154">
        <ele>158.27416992188</ele>
        <time>2015-10-01T15:33:48Z</time>
      </trkpt>
      <trkpt lat="48.09788" lon="-4.21164">
        <ele>158.27416992188</ele>
        <time>2015-10-01T15:33:53Z</time>
      </trkpt>
      <trkpt lat="48.09787" lon="-4.21171">
        <ele>159.23547363281</ele>
        <time>2015-10-01T15:33:57Z</time>
      </trkpt>
      <trkpt lat="48.09786" lon="-4.21177">
        <ele>159.71618652344</ele>
        <time>2015-10-01T15:34:00Z</time>
      </trkpt>
      <trkpt lat="48.09785" lon="-4.21188">
        <ele>161.158203125</ele>
        <time>2015-10-01T15:34:06Z</time>
      </trkpt>
      <trkpt lat="48.09783" lon="-4.21204">
        <ele>162.60009765625</ele>
        <time>2015-10-01T15:34:15Z</time>
      </trkpt>
      <trkpt lat="48.09781" lon="-4.21213">
        <ele>162.11950683594</ele>
        <time>2015-10-01T15:34:21Z</time>
      </trkpt>
      <trkpt lat="48.09781" lon="-4.21216">
        <ele>161.63891601562</ele>
        <time>2015-10-01T15:34:23Z</time>
      </trkpt>
      <trkpt lat="48.09781" lon="-4.21223">
        <ele>160.67749023438</ele>
        <time>2015-10-01T15:34:30Z</time>
      </trkpt>
      <trkpt lat="48.09781" lon="-4.21222">
        <ele>159.23547363281</ele>
        <time>2015-10-01T15:34:36Z</time>
      </trkpt>
      <trkpt lat="48.09782" lon="-4.21221">
        <ele>158.27416992188</ele>
        <time>2015-10-01T15:34:51Z</time>
      </trkpt>
      <trkpt lat="48.09782" lon="-4.21222">
        <ele>159.71618652344</ele>
        <time>2015-10-01T15:35:04Z</time>
      </trkpt>
      <trkpt lat="48.09783" lon="-4.21221">
        <ele>159.71618652344</ele>
        <time>2015-10-01T15:35:11Z</time>
      </trkpt>
      <trkpt lat="48.09784" lon="-4.21221">
        <ele>157.79357910156</ele>
        <time>2015-10-01T15:35:38Z</time>
      </trkpt>
      <trkpt lat="48.09784" lon="-4.21219">
        <ele>159.71618652344</ele>
        <time>2015-10-01T15:35:47Z</time>
      </trkpt>
      <trkpt lat="48.09784" lon="-4.2122">
        <ele>157.79357910156</ele>
        <time>2015-10-01T15:36:02Z</time>
      </trkpt>
      <trkpt lat="48.09784" lon="-4.2122">
        <ele>156.83215332031</ele>
        <time>2015-10-01T15:36:13Z</time>
      </trkpt>
    </trkseg>
  </trk>
</gpx>